<?xml version="1.0" encoding="UTF-8" standalone="no" ?>
<gpx xmlns="http://www.topografix.com/GPX/1/1" xmlns:xsi="http://www.w3.org/2001/XMLSchema-instance" xsi:schemaLocation="http://www.topografix.com/GPX/1/1 http://www.topografix.com/GPX/1/1/gpx.xsd" version="1.1" creator="VisuGPX - https://www.visugpx.com">
  <metadata>
    <name>Traces DPT 33</name>
    <desc><![CDATA[Total: 12.2km]]></desc>
  </metadata>
  <trk>
    <name><![CDATA[track]]></name>
    <extensions>
      <line xmlns="http://www.topografix.com/GPX/gpx_style/0/2">
        <color>00FFFF</color>
        <width>4</width>
      </line>
    </extensions>
    <trkseg>
      <trkpt lat="44.8795" lon="-0.09782">
        <ele>24</ele>
        <time>2020-10-29T08:08:44Z</time>
      </trkpt>
      <trkpt lat="44.8795" lon="-0.09782">
        <ele>24</ele>
        <time>2020-10-29T08:08:45Z</time>
      </trkpt>
      <trkpt lat="44.87947" lon="-0.09779">
        <ele>24</ele>
        <time>2020-10-29T08:09:16Z</time>
      </trkpt>
      <trkpt lat="44.87947" lon="-0.09779">
        <ele>24</ele>
        <time>2020-10-29T08:09:49Z</time>
      </trkpt>
      <trkpt lat="44.87953" lon="-0.09783">
        <ele>24</ele>
        <time>2020-10-29T08:10:04Z</time>
      </trkpt>
      <trkpt lat="44.87962" lon="-0.09797">
        <ele>25</ele>
        <time>2020-10-29T08:10:22Z</time>
      </trkpt>
      <trkpt lat="44.8797" lon="-0.09796">
        <ele>25</ele>
        <time>2020-10-29T08:10:38Z</time>
      </trkpt>
      <trkpt lat="44.8797" lon="-0.09798">
        <ele>24</ele>
        <time>2020-10-29T08:10:55Z</time>
      </trkpt>
      <trkpt lat="44.87969" lon="-0.09797">
        <ele>24</ele>
        <time>2020-10-29T08:11:15Z</time>
      </trkpt>
      <trkpt lat="44.87968" lon="-0.09797">
        <ele>24</ele>
        <time>2020-10-29T08:11:36Z</time>
      </trkpt>
      <trkpt lat="44.87967" lon="-0.09798">
        <ele>24</ele>
        <time>2020-10-29T08:11:52Z</time>
      </trkpt>
      <trkpt lat="44.87969" lon="-0.09796">
        <ele>24</ele>
        <time>2020-10-29T08:12:22Z</time>
      </trkpt>
      <trkpt lat="44.8797" lon="-0.09799">
        <ele>26</ele>
        <time>2020-10-29T08:12:52Z</time>
      </trkpt>
      <trkpt lat="44.8797" lon="-0.09799">
        <ele>24</ele>
        <time>2020-10-29T08:12:54Z</time>
      </trkpt>
      <trkpt lat="44.8797" lon="-0.09798">
        <ele>24</ele>
        <time>2020-10-29T08:13:07Z</time>
      </trkpt>
      <trkpt lat="44.87969" lon="-0.09798">
        <ele>24</ele>
        <time>2020-10-29T08:13:31Z</time>
      </trkpt>
      <trkpt lat="44.87969" lon="-0.09798">
        <ele>25</ele>
        <time>2020-10-29T08:13:48Z</time>
      </trkpt>
      <trkpt lat="44.87967" lon="-0.09798">
        <ele>25</ele>
        <time>2020-10-29T08:14:16Z</time>
      </trkpt>
      <trkpt lat="44.87967" lon="-0.09797">
        <ele>24</ele>
        <time>2020-10-29T08:14:46Z</time>
      </trkpt>
      <trkpt lat="44.87969" lon="-0.09798">
        <ele>25</ele>
        <time>2020-10-29T08:15:19Z</time>
      </trkpt>
      <trkpt lat="44.87969" lon="-0.09799">
        <ele>23</ele>
        <time>2020-10-29T08:15:43Z</time>
      </trkpt>
      <trkpt lat="44.87966" lon="-0.09798">
        <ele>23</ele>
        <time>2020-10-29T08:16:14Z</time>
      </trkpt>
      <trkpt lat="44.87967" lon="-0.09798">
        <ele>25</ele>
        <time>2020-10-29T08:16:17Z</time>
      </trkpt>
      <trkpt lat="44.87967" lon="-0.09798">
        <ele>22</ele>
        <time>2020-10-29T08:16:20Z</time>
      </trkpt>
      <trkpt lat="44.87966" lon="-0.09799">
        <ele>26</ele>
        <time>2020-10-29T08:16:21Z</time>
      </trkpt>
      <trkpt lat="44.87966" lon="-0.09799">
        <ele>24</ele>
        <time>2020-10-29T08:16:22Z</time>
      </trkpt>
      <trkpt lat="44.87966" lon="-0.09804">
        <ele>24</ele>
        <time>2020-10-29T08:16:36Z</time>
      </trkpt>
      <trkpt lat="44.8797" lon="-0.09815">
        <ele>24</ele>
        <time>2020-10-29T08:16:48Z</time>
      </trkpt>
      <trkpt lat="44.87973" lon="-0.09833">
        <ele>24</ele>
        <time>2020-10-29T08:17:05Z</time>
      </trkpt>
      <trkpt lat="44.87985" lon="-0.0983">
        <ele>24</ele>
        <time>2020-10-29T08:17:19Z</time>
      </trkpt>
      <trkpt lat="44.87993" lon="-0.09828">
        <ele>25</ele>
        <time>2020-10-29T08:17:30Z</time>
      </trkpt>
      <trkpt lat="44.88002" lon="-0.09828">
        <ele>25</ele>
        <time>2020-10-29T08:17:41Z</time>
      </trkpt>
      <trkpt lat="44.88015" lon="-0.09829">
        <ele>26</ele>
        <time>2020-10-29T08:17:56Z</time>
      </trkpt>
      <trkpt lat="44.88026" lon="-0.09834">
        <ele>27</ele>
        <time>2020-10-29T08:18:13Z</time>
      </trkpt>
      <trkpt lat="44.8803" lon="-0.09838">
        <ele>28</ele>
        <time>2020-10-29T08:18:26Z</time>
      </trkpt>
      <trkpt lat="44.88033" lon="-0.09837">
        <ele>28</ele>
        <time>2020-10-29T08:18:41Z</time>
      </trkpt>
      <trkpt lat="44.88038" lon="-0.09838">
        <ele>28</ele>
        <time>2020-10-29T08:18:56Z</time>
      </trkpt>
      <trkpt lat="44.88042" lon="-0.09834">
        <ele>29</ele>
        <time>2020-10-29T08:19:12Z</time>
      </trkpt>
      <trkpt lat="44.88046" lon="-0.0984">
        <ele>29</ele>
        <time>2020-10-29T08:19:35Z</time>
      </trkpt>
      <trkpt lat="44.88054" lon="-0.09854">
        <ele>32</ele>
        <time>2020-10-29T08:19:52Z</time>
      </trkpt>
      <trkpt lat="44.88057" lon="-0.09869">
        <ele>33</ele>
        <time>2020-10-29T08:20:09Z</time>
      </trkpt>
      <trkpt lat="44.88063" lon="-0.09887">
        <ele>34</ele>
        <time>2020-10-29T08:20:26Z</time>
      </trkpt>
      <trkpt lat="44.88068" lon="-0.09896">
        <ele>36</ele>
        <time>2020-10-29T08:20:40Z</time>
      </trkpt>
      <trkpt lat="44.8807" lon="-0.09896">
        <ele>37</ele>
        <time>2020-10-29T08:21:02Z</time>
      </trkpt>
      <trkpt lat="44.88071" lon="-0.09895">
        <ele>37</ele>
        <time>2020-10-29T08:21:27Z</time>
      </trkpt>
      <trkpt lat="44.88071" lon="-0.09894">
        <ele>37</ele>
        <time>2020-10-29T08:21:49Z</time>
      </trkpt>
      <trkpt lat="44.88076" lon="-0.09895">
        <ele>37</ele>
        <time>2020-10-29T08:22:03Z</time>
      </trkpt>
      <trkpt lat="44.88088" lon="-0.09893">
        <ele>39</ele>
        <time>2020-10-29T08:22:19Z</time>
      </trkpt>
      <trkpt lat="44.881" lon="-0.09891">
        <ele>40</ele>
        <time>2020-10-29T08:22:32Z</time>
      </trkpt>
      <trkpt lat="44.88107" lon="-0.09896">
        <ele>41</ele>
        <time>2020-10-29T08:22:46Z</time>
      </trkpt>
      <trkpt lat="44.88105" lon="-0.09892">
        <ele>41</ele>
        <time>2020-10-29T08:23:00Z</time>
      </trkpt>
      <trkpt lat="44.88102" lon="-0.0989">
        <ele>41</ele>
        <time>2020-10-29T08:23:04Z</time>
      </trkpt>
      <trkpt lat="44.88096" lon="-0.09892">
        <ele>39</ele>
        <time>2020-10-29T08:23:10Z</time>
      </trkpt>
      <trkpt lat="44.8808" lon="-0.09893">
        <ele>37</ele>
        <time>2020-10-29T08:23:26Z</time>
      </trkpt>
      <trkpt lat="44.88076" lon="-0.09894">
        <ele>37</ele>
        <time>2020-10-29T08:23:30Z</time>
      </trkpt>
      <trkpt lat="44.88071" lon="-0.09887">
        <ele>37</ele>
        <time>2020-10-29T08:23:45Z</time>
      </trkpt>
      <trkpt lat="44.88074" lon="-0.09888">
        <ele>38</ele>
        <time>2020-10-29T08:24:00Z</time>
      </trkpt>
      <trkpt lat="44.88078" lon="-0.09886">
        <ele>38</ele>
        <time>2020-10-29T08:24:05Z</time>
      </trkpt>
      <trkpt lat="44.88095" lon="-0.09883">
        <ele>41</ele>
        <time>2020-10-29T08:24:23Z</time>
      </trkpt>
      <trkpt lat="44.88102" lon="-0.09881">
        <ele>41</ele>
        <time>2020-10-29T08:24:35Z</time>
      </trkpt>
      <trkpt lat="44.8812" lon="-0.09876">
        <ele>44</ele>
        <time>2020-10-29T08:24:52Z</time>
      </trkpt>
      <trkpt lat="44.88122" lon="-0.09867">
        <ele>44</ele>
        <time>2020-10-29T08:25:00Z</time>
      </trkpt>
      <trkpt lat="44.88121" lon="-0.09846">
        <ele>45</ele>
        <time>2020-10-29T08:25:14Z</time>
      </trkpt>
      <trkpt lat="44.88121" lon="-0.09842">
        <ele>45</ele>
        <time>2020-10-29T08:25:18Z</time>
      </trkpt>
      <trkpt lat="44.88123" lon="-0.09835">
        <ele>45</ele>
        <time>2020-10-29T08:25:23Z</time>
      </trkpt>
      <trkpt lat="44.88127" lon="-0.09815">
        <ele>46</ele>
        <time>2020-10-29T08:25:38Z</time>
      </trkpt>
      <trkpt lat="44.8813" lon="-0.09804">
        <ele>46</ele>
        <time>2020-10-29T08:25:46Z</time>
      </trkpt>
      <trkpt lat="44.88131" lon="-0.098">
        <ele>46</ele>
        <time>2020-10-29T08:25:49Z</time>
      </trkpt>
      <trkpt lat="44.88129" lon="-0.0978">
        <ele>45</ele>
        <time>2020-10-29T08:26:02Z</time>
      </trkpt>
      <trkpt lat="44.88127" lon="-0.09777">
        <ele>45</ele>
        <time>2020-10-29T08:26:06Z</time>
      </trkpt>
      <trkpt lat="44.88118" lon="-0.09759">
        <ele>43</ele>
        <time>2020-10-29T08:26:21Z</time>
      </trkpt>
      <trkpt lat="44.88119" lon="-0.09754">
        <ele>42</ele>
        <time>2020-10-29T08:26:25Z</time>
      </trkpt>
      <trkpt lat="44.88121" lon="-0.0975">
        <ele>42</ele>
        <time>2020-10-29T08:26:28Z</time>
      </trkpt>
      <trkpt lat="44.88122" lon="-0.09746">
        <ele>42</ele>
        <time>2020-10-29T08:26:32Z</time>
      </trkpt>
      <trkpt lat="44.88135" lon="-0.0973">
        <ele>42</ele>
        <time>2020-10-29T08:26:50Z</time>
      </trkpt>
      <trkpt lat="44.88143" lon="-0.09718">
        <ele>42</ele>
        <time>2020-10-29T08:27:01Z</time>
      </trkpt>
      <trkpt lat="44.88151" lon="-0.09706">
        <ele>42</ele>
        <time>2020-10-29T08:27:13Z</time>
      </trkpt>
      <trkpt lat="44.88158" lon="-0.09699">
        <ele>43</ele>
        <time>2020-10-29T08:27:21Z</time>
      </trkpt>
      <trkpt lat="44.88172" lon="-0.09687">
        <ele>43</ele>
        <time>2020-10-29T08:27:36Z</time>
      </trkpt>
      <trkpt lat="44.88185" lon="-0.0967">
        <ele>44</ele>
        <time>2020-10-29T08:27:53Z</time>
      </trkpt>
      <trkpt lat="44.8819" lon="-0.09664">
        <ele>44</ele>
        <time>2020-10-29T08:27:59Z</time>
      </trkpt>
      <trkpt lat="44.88197" lon="-0.09661">
        <ele>44</ele>
        <time>2020-10-29T08:28:06Z</time>
      </trkpt>
      <trkpt lat="44.88199" lon="-0.09661">
        <ele>45</ele>
        <time>2020-10-29T08:28:10Z</time>
      </trkpt>
      <trkpt lat="44.88205" lon="-0.09664">
        <ele>45</ele>
        <time>2020-10-29T08:28:17Z</time>
      </trkpt>
      <trkpt lat="44.88213" lon="-0.09672">
        <ele>47</ele>
        <time>2020-10-29T08:28:29Z</time>
      </trkpt>
      <trkpt lat="44.88227" lon="-0.09683">
        <ele>50</ele>
        <time>2020-10-29T08:28:45Z</time>
      </trkpt>
      <trkpt lat="44.88238" lon="-0.09697">
        <ele>53</ele>
        <time>2020-10-29T08:29:01Z</time>
      </trkpt>
      <trkpt lat="44.88246" lon="-0.09704">
        <ele>55</ele>
        <time>2020-10-29T08:29:12Z</time>
      </trkpt>
      <trkpt lat="44.88252" lon="-0.09704">
        <ele>55</ele>
        <time>2020-10-29T08:29:19Z</time>
      </trkpt>
      <trkpt lat="44.88264" lon="-0.09716">
        <ele>58</ele>
        <time>2020-10-29T08:29:36Z</time>
      </trkpt>
      <trkpt lat="44.88274" lon="-0.09727">
        <ele>60</ele>
        <time>2020-10-29T08:29:50Z</time>
      </trkpt>
      <trkpt lat="44.88282" lon="-0.09739">
        <ele>62</ele>
        <time>2020-10-29T08:30:05Z</time>
      </trkpt>
      <trkpt lat="44.8829" lon="-0.0975">
        <ele>64</ele>
        <time>2020-10-29T08:30:20Z</time>
      </trkpt>
      <trkpt lat="44.88297" lon="-0.09767">
        <ele>65</ele>
        <time>2020-10-29T08:30:35Z</time>
      </trkpt>
      <trkpt lat="44.88298" lon="-0.09781">
        <ele>67</ele>
        <time>2020-10-29T08:30:48Z</time>
      </trkpt>
      <trkpt lat="44.88298" lon="-0.09786">
        <ele>69</ele>
        <time>2020-10-29T08:30:54Z</time>
      </trkpt>
      <trkpt lat="44.88296" lon="-0.09801">
        <ele>71</ele>
        <time>2020-10-29T08:31:12Z</time>
      </trkpt>
      <trkpt lat="44.88294" lon="-0.09814">
        <ele>74</ele>
        <time>2020-10-29T08:31:24Z</time>
      </trkpt>
      <trkpt lat="44.88294" lon="-0.09815">
        <ele>74</ele>
        <time>2020-10-29T08:31:25Z</time>
      </trkpt>
      <trkpt lat="44.88294" lon="-0.09828">
        <ele>75</ele>
        <time>2020-10-29T08:31:41Z</time>
      </trkpt>
      <trkpt lat="44.88293" lon="-0.09831">
        <ele>75</ele>
        <time>2020-10-29T08:32:00Z</time>
      </trkpt>
      <trkpt lat="44.88295" lon="-0.09835">
        <ele>73</ele>
        <time>2020-10-29T08:32:22Z</time>
      </trkpt>
      <trkpt lat="44.88296" lon="-0.09836">
        <ele>77</ele>
        <time>2020-10-29T08:32:23Z</time>
      </trkpt>
      <trkpt lat="44.88301" lon="-0.09846">
        <ele>78</ele>
        <time>2020-10-29T08:32:40Z</time>
      </trkpt>
      <trkpt lat="44.88313" lon="-0.09852">
        <ele>78</ele>
        <time>2020-10-29T08:32:53Z</time>
      </trkpt>
      <trkpt lat="44.88316" lon="-0.09868">
        <ele>81</ele>
        <time>2020-10-29T08:33:15Z</time>
      </trkpt>
      <trkpt lat="44.88315" lon="-0.09867">
        <ele>81</ele>
        <time>2020-10-29T08:33:36Z</time>
      </trkpt>
      <trkpt lat="44.88313" lon="-0.09865">
        <ele>81</ele>
        <time>2020-10-29T08:33:38Z</time>
      </trkpt>
      <trkpt lat="44.88304" lon="-0.09859">
        <ele>84</ele>
        <time>2020-10-29T08:33:47Z</time>
      </trkpt>
      <trkpt lat="44.88301" lon="-0.09859">
        <ele>82</ele>
        <time>2020-10-29T08:33:49Z</time>
      </trkpt>
      <trkpt lat="44.88286" lon="-0.09853">
        <ele>82</ele>
        <time>2020-10-29T08:34:05Z</time>
      </trkpt>
      <trkpt lat="44.8827" lon="-0.09853">
        <ele>81</ele>
        <time>2020-10-29T08:34:20Z</time>
      </trkpt>
      <trkpt lat="44.88254" lon="-0.0985">
        <ele>83</ele>
        <time>2020-10-29T08:34:36Z</time>
      </trkpt>
      <trkpt lat="44.88241" lon="-0.0985">
        <ele>81</ele>
        <time>2020-10-29T08:34:50Z</time>
      </trkpt>
      <trkpt lat="44.88225" lon="-0.09859">
        <ele>81</ele>
        <time>2020-10-29T08:35:06Z</time>
      </trkpt>
      <trkpt lat="44.88211" lon="-0.09862">
        <ele>81</ele>
        <time>2020-10-29T08:35:23Z</time>
      </trkpt>
      <trkpt lat="44.88205" lon="-0.09859">
        <ele>81</ele>
        <time>2020-10-29T08:35:44Z</time>
      </trkpt>
      <trkpt lat="44.88204" lon="-0.09861">
        <ele>81</ele>
        <time>2020-10-29T08:36:06Z</time>
      </trkpt>
      <trkpt lat="44.88203" lon="-0.09862">
        <ele>81</ele>
        <time>2020-10-29T08:36:25Z</time>
      </trkpt>
      <trkpt lat="44.88203" lon="-0.09859">
        <ele>81</ele>
        <time>2020-10-29T08:36:43Z</time>
      </trkpt>
      <trkpt lat="44.88205" lon="-0.09857">
        <ele>81</ele>
        <time>2020-10-29T08:37:09Z</time>
      </trkpt>
      <trkpt lat="44.88204" lon="-0.0986">
        <ele>81</ele>
        <time>2020-10-29T08:37:23Z</time>
      </trkpt>
      <trkpt lat="44.88202" lon="-0.0986">
        <ele>81</ele>
        <time>2020-10-29T08:37:36Z</time>
      </trkpt>
      <trkpt lat="44.88207" lon="-0.09857">
        <ele>81</ele>
        <time>2020-10-29T08:37:51Z</time>
      </trkpt>
      <trkpt lat="44.88208" lon="-0.09861">
        <ele>81</ele>
        <time>2020-10-29T08:38:05Z</time>
      </trkpt>
      <trkpt lat="44.88204" lon="-0.09864">
        <ele>81</ele>
        <time>2020-10-29T08:38:24Z</time>
      </trkpt>
      <trkpt lat="44.88202" lon="-0.09865">
        <ele>80</ele>
        <time>2020-10-29T08:38:51Z</time>
      </trkpt>
      <trkpt lat="44.88203" lon="-0.09862">
        <ele>80</ele>
        <time>2020-10-29T08:39:19Z</time>
      </trkpt>
      <trkpt lat="44.88203" lon="-0.09864">
        <ele>80</ele>
        <time>2020-10-29T08:39:49Z</time>
      </trkpt>
      <trkpt lat="44.88203" lon="-0.09863">
        <ele>81</ele>
        <time>2020-10-29T08:40:21Z</time>
      </trkpt>
      <trkpt lat="44.88209" lon="-0.09858">
        <ele>81</ele>
        <time>2020-10-29T08:40:41Z</time>
      </trkpt>
      <trkpt lat="44.8821" lon="-0.09858">
        <ele>81</ele>
        <time>2020-10-29T08:40:42Z</time>
      </trkpt>
      <trkpt lat="44.88226" lon="-0.09859">
        <ele>81</ele>
        <time>2020-10-29T08:41:00Z</time>
      </trkpt>
      <trkpt lat="44.88244" lon="-0.09853">
        <ele>81</ele>
        <time>2020-10-29T08:41:20Z</time>
      </trkpt>
      <trkpt lat="44.88253" lon="-0.09849">
        <ele>81</ele>
        <time>2020-10-29T08:41:32Z</time>
      </trkpt>
      <trkpt lat="44.88256" lon="-0.09849">
        <ele>81</ele>
        <time>2020-10-29T08:41:36Z</time>
      </trkpt>
      <trkpt lat="44.88271" lon="-0.09851">
        <ele>80</ele>
        <time>2020-10-29T08:41:53Z</time>
      </trkpt>
      <trkpt lat="44.88287" lon="-0.09854">
        <ele>80</ele>
        <time>2020-10-29T08:42:12Z</time>
      </trkpt>
      <trkpt lat="44.88305" lon="-0.09861">
        <ele>80</ele>
        <time>2020-10-29T08:42:30Z</time>
      </trkpt>
      <trkpt lat="44.88317" lon="-0.09867">
        <ele>80</ele>
        <time>2020-10-29T08:42:43Z</time>
      </trkpt>
      <trkpt lat="44.88329" lon="-0.09883">
        <ele>80</ele>
        <time>2020-10-29T08:43:01Z</time>
      </trkpt>
      <trkpt lat="44.88337" lon="-0.09898">
        <ele>81</ele>
        <time>2020-10-29T08:43:14Z</time>
      </trkpt>
      <trkpt lat="44.88338" lon="-0.09901">
        <ele>81</ele>
        <time>2020-10-29T08:43:16Z</time>
      </trkpt>
      <trkpt lat="44.88348" lon="-0.09925">
        <ele>81</ele>
        <time>2020-10-29T08:43:37Z</time>
      </trkpt>
      <trkpt lat="44.88352" lon="-0.0993">
        <ele>81</ele>
        <time>2020-10-29T08:43:42Z</time>
      </trkpt>
      <trkpt lat="44.88364" lon="-0.09958">
        <ele>82</ele>
        <time>2020-10-29T08:44:04Z</time>
      </trkpt>
      <trkpt lat="44.88366" lon="-0.09962">
        <ele>75</ele>
        <time>2020-10-29T08:44:07Z</time>
      </trkpt>
      <trkpt lat="44.88367" lon="-0.09963">
        <ele>79</ele>
        <time>2020-10-29T08:44:08Z</time>
      </trkpt>
      <trkpt lat="44.88367" lon="-0.09965">
        <ele>93</ele>
        <time>2020-10-29T08:44:10Z</time>
      </trkpt>
      <trkpt lat="44.88368" lon="-0.09966">
        <ele>83</ele>
        <time>2020-10-29T08:44:11Z</time>
      </trkpt>
      <trkpt lat="44.88369" lon="-0.09969">
        <ele>82</ele>
        <time>2020-10-29T08:44:13Z</time>
      </trkpt>
      <trkpt lat="44.88378" lon="-0.09991">
        <ele>82</ele>
        <time>2020-10-29T08:44:31Z</time>
      </trkpt>
      <trkpt lat="44.88387" lon="-0.10015">
        <ele>83</ele>
        <time>2020-10-29T08:44:50Z</time>
      </trkpt>
      <trkpt lat="44.88396" lon="-0.10037">
        <ele>83</ele>
        <time>2020-10-29T08:45:06Z</time>
      </trkpt>
      <trkpt lat="44.88406" lon="-0.1006">
        <ele>84</ele>
        <time>2020-10-29T08:45:25Z</time>
      </trkpt>
      <trkpt lat="44.88417" lon="-0.10083">
        <ele>85</ele>
        <time>2020-10-29T08:45:43Z</time>
      </trkpt>
      <trkpt lat="44.88427" lon="-0.10107">
        <ele>85</ele>
        <time>2020-10-29T08:46:02Z</time>
      </trkpt>
      <trkpt lat="44.88436" lon="-0.10129">
        <ele>85</ele>
        <time>2020-10-29T08:46:19Z</time>
      </trkpt>
      <trkpt lat="44.88442" lon="-0.10142">
        <ele>83</ele>
        <time>2020-10-29T08:46:30Z</time>
      </trkpt>
      <trkpt lat="44.88455" lon="-0.10168">
        <ele>83</ele>
        <time>2020-10-29T08:46:50Z</time>
      </trkpt>
      <trkpt lat="44.88465" lon="-0.10188">
        <ele>83</ele>
        <time>2020-10-29T08:47:06Z</time>
      </trkpt>
      <trkpt lat="44.88472" lon="-0.10201">
        <ele>83</ele>
        <time>2020-10-29T08:47:17Z</time>
      </trkpt>
      <trkpt lat="44.88484" lon="-0.10226">
        <ele>78</ele>
        <time>2020-10-29T08:47:36Z</time>
      </trkpt>
      <trkpt lat="44.88485" lon="-0.10227">
        <ele>86</ele>
        <time>2020-10-29T08:47:37Z</time>
      </trkpt>
      <trkpt lat="44.88486" lon="-0.10229">
        <ele>82</ele>
        <time>2020-10-29T08:47:39Z</time>
      </trkpt>
      <trkpt lat="44.88487" lon="-0.1023">
        <ele>82</ele>
        <time>2020-10-29T08:47:40Z</time>
      </trkpt>
      <trkpt lat="44.88491" lon="-0.10247">
        <ele>82</ele>
        <time>2020-10-29T08:47:53Z</time>
      </trkpt>
      <trkpt lat="44.88494" lon="-0.10253">
        <ele>82</ele>
        <time>2020-10-29T08:47:58Z</time>
      </trkpt>
      <trkpt lat="44.88509" lon="-0.1025">
        <ele>82</ele>
        <time>2020-10-29T08:48:14Z</time>
      </trkpt>
      <trkpt lat="44.88512" lon="-0.10251">
        <ele>82</ele>
        <time>2020-10-29T08:48:17Z</time>
      </trkpt>
      <trkpt lat="44.88524" lon="-0.10265">
        <ele>82</ele>
        <time>2020-10-29T08:48:31Z</time>
      </trkpt>
      <trkpt lat="44.88527" lon="-0.10272">
        <ele>82</ele>
        <time>2020-10-29T08:48:35Z</time>
      </trkpt>
      <trkpt lat="44.88537" lon="-0.10293">
        <ele>82</ele>
        <time>2020-10-29T08:48:51Z</time>
      </trkpt>
      <trkpt lat="44.88547" lon="-0.10308">
        <ele>82</ele>
        <time>2020-10-29T08:49:04Z</time>
      </trkpt>
      <trkpt lat="44.88553" lon="-0.10316">
        <ele>82</ele>
        <time>2020-10-29T08:49:14Z</time>
      </trkpt>
      <trkpt lat="44.88559" lon="-0.10336">
        <ele>82</ele>
        <time>2020-10-29T08:49:28Z</time>
      </trkpt>
      <trkpt lat="44.88565" lon="-0.1036">
        <ele>82</ele>
        <time>2020-10-29T08:49:45Z</time>
      </trkpt>
      <trkpt lat="44.88571" lon="-0.10379">
        <ele>82</ele>
        <time>2020-10-29T08:50:00Z</time>
      </trkpt>
      <trkpt lat="44.88574" lon="-0.10394">
        <ele>82</ele>
        <time>2020-10-29T08:50:13Z</time>
      </trkpt>
      <trkpt lat="44.88576" lon="-0.104">
        <ele>82</ele>
        <time>2020-10-29T08:50:30Z</time>
      </trkpt>
      <trkpt lat="44.88577" lon="-0.10402">
        <ele>82</ele>
        <time>2020-10-29T08:50:32Z</time>
      </trkpt>
      <trkpt lat="44.88578" lon="-0.10411">
        <ele>82</ele>
        <time>2020-10-29T08:50:48Z</time>
      </trkpt>
      <trkpt lat="44.8858" lon="-0.10415">
        <ele>82</ele>
        <time>2020-10-29T08:50:56Z</time>
      </trkpt>
      <trkpt lat="44.88583" lon="-0.10428">
        <ele>82</ele>
        <time>2020-10-29T08:51:10Z</time>
      </trkpt>
      <trkpt lat="44.88588" lon="-0.10443">
        <ele>82</ele>
        <time>2020-10-29T08:51:24Z</time>
      </trkpt>
      <trkpt lat="44.88591" lon="-0.10453">
        <ele>82</ele>
        <time>2020-10-29T08:51:33Z</time>
      </trkpt>
      <trkpt lat="44.88592" lon="-0.10455">
        <ele>87</ele>
        <time>2020-10-29T08:51:35Z</time>
      </trkpt>
      <trkpt lat="44.88594" lon="-0.10456">
        <ele>83</ele>
        <time>2020-10-29T08:51:36Z</time>
      </trkpt>
      <trkpt lat="44.88596" lon="-0.10459">
        <ele>82</ele>
        <time>2020-10-29T08:51:38Z</time>
      </trkpt>
      <trkpt lat="44.88602" lon="-0.10478">
        <ele>82</ele>
        <time>2020-10-29T08:51:56Z</time>
      </trkpt>
      <trkpt lat="44.88604" lon="-0.10483">
        <ele>82</ele>
        <time>2020-10-29T08:52:00Z</time>
      </trkpt>
      <trkpt lat="44.88615" lon="-0.10509">
        <ele>82</ele>
        <time>2020-10-29T08:52:20Z</time>
      </trkpt>
      <trkpt lat="44.88619" lon="-0.10535">
        <ele>83</ele>
        <time>2020-10-29T08:52:39Z</time>
      </trkpt>
      <trkpt lat="44.88616" lon="-0.10555">
        <ele>83</ele>
        <time>2020-10-29T08:52:54Z</time>
      </trkpt>
      <trkpt lat="44.88617" lon="-0.10558">
        <ele>85</ele>
        <time>2020-10-29T08:52:56Z</time>
      </trkpt>
      <trkpt lat="44.88618" lon="-0.10562">
        <ele>83</ele>
        <time>2020-10-29T08:52:59Z</time>
      </trkpt>
      <trkpt lat="44.88627" lon="-0.10582">
        <ele>83</ele>
        <time>2020-10-29T08:53:14Z</time>
      </trkpt>
      <trkpt lat="44.88633" lon="-0.10596">
        <ele>84</ele>
        <time>2020-10-29T08:53:26Z</time>
      </trkpt>
      <trkpt lat="44.8864" lon="-0.10615">
        <ele>84</ele>
        <time>2020-10-29T08:53:38Z</time>
      </trkpt>
      <trkpt lat="44.88645" lon="-0.10624">
        <ele>84</ele>
        <time>2020-10-29T08:53:48Z</time>
      </trkpt>
      <trkpt lat="44.88653" lon="-0.10646">
        <ele>84</ele>
        <time>2020-10-29T08:54:04Z</time>
      </trkpt>
      <trkpt lat="44.88662" lon="-0.10664">
        <ele>85</ele>
        <time>2020-10-29T08:54:18Z</time>
      </trkpt>
      <trkpt lat="44.88667" lon="-0.10677">
        <ele>85</ele>
        <time>2020-10-29T08:54:30Z</time>
      </trkpt>
      <trkpt lat="44.88668" lon="-0.1068">
        <ele>85</ele>
        <time>2020-10-29T08:54:37Z</time>
      </trkpt>
      <trkpt lat="44.88672" lon="-0.10696">
        <ele>86</ele>
        <time>2020-10-29T08:54:48Z</time>
      </trkpt>
      <trkpt lat="44.8868" lon="-0.10712">
        <ele>86</ele>
        <time>2020-10-29T08:55:02Z</time>
      </trkpt>
      <trkpt lat="44.88687" lon="-0.10729">
        <ele>87</ele>
        <time>2020-10-29T08:55:16Z</time>
      </trkpt>
      <trkpt lat="44.88694" lon="-0.10745">
        <ele>88</ele>
        <time>2020-10-29T08:55:28Z</time>
      </trkpt>
      <trkpt lat="44.88695" lon="-0.10747">
        <ele>88</ele>
        <time>2020-10-29T08:55:30Z</time>
      </trkpt>
      <trkpt lat="44.88704" lon="-0.10766">
        <ele>89</ele>
        <time>2020-10-29T08:55:45Z</time>
      </trkpt>
      <trkpt lat="44.8871" lon="-0.10781">
        <ele>90</ele>
        <time>2020-10-29T08:55:57Z</time>
      </trkpt>
      <trkpt lat="44.88714" lon="-0.10791">
        <ele>91</ele>
        <time>2020-10-29T08:56:05Z</time>
      </trkpt>
      <trkpt lat="44.88722" lon="-0.1081">
        <ele>92</ele>
        <time>2020-10-29T08:56:20Z</time>
      </trkpt>
      <trkpt lat="44.88725" lon="-0.10816">
        <ele>93</ele>
        <time>2020-10-29T08:56:25Z</time>
      </trkpt>
      <trkpt lat="44.88726" lon="-0.10819">
        <ele>93</ele>
        <time>2020-10-29T08:56:28Z</time>
      </trkpt>
      <trkpt lat="44.88728" lon="-0.10824">
        <ele>93</ele>
        <time>2020-10-29T08:56:31Z</time>
      </trkpt>
      <trkpt lat="44.8873" lon="-0.10827">
        <ele>94</ele>
        <time>2020-10-29T08:56:35Z</time>
      </trkpt>
      <trkpt lat="44.88732" lon="-0.10833">
        <ele>94</ele>
        <time>2020-10-29T08:56:40Z</time>
      </trkpt>
      <trkpt lat="44.88738" lon="-0.10847">
        <ele>95</ele>
        <time>2020-10-29T08:56:52Z</time>
      </trkpt>
      <trkpt lat="44.88738" lon="-0.10849">
        <ele>95</ele>
        <time>2020-10-29T08:56:54Z</time>
      </trkpt>
      <trkpt lat="44.88746" lon="-0.10869">
        <ele>95</ele>
        <time>2020-10-29T08:57:08Z</time>
      </trkpt>
      <trkpt lat="44.88754" lon="-0.10886">
        <ele>95</ele>
        <time>2020-10-29T08:57:21Z</time>
      </trkpt>
      <trkpt lat="44.88763" lon="-0.109">
        <ele>94</ele>
        <time>2020-10-29T08:57:34Z</time>
      </trkpt>
      <trkpt lat="44.8877" lon="-0.10912">
        <ele>93</ele>
        <time>2020-10-29T08:57:48Z</time>
      </trkpt>
      <trkpt lat="44.88783" lon="-0.1094">
        <ele>92</ele>
        <time>2020-10-29T08:58:03Z</time>
      </trkpt>
      <trkpt lat="44.88794" lon="-0.10957">
        <ele>92</ele>
        <time>2020-10-29T08:58:16Z</time>
      </trkpt>
      <trkpt lat="44.88803" lon="-0.10971">
        <ele>91</ele>
        <time>2020-10-29T08:58:34Z</time>
      </trkpt>
      <trkpt lat="44.88816" lon="-0.10997">
        <ele>90</ele>
        <time>2020-10-29T08:58:49Z</time>
      </trkpt>
      <trkpt lat="44.88829" lon="-0.11018">
        <ele>90</ele>
        <time>2020-10-29T08:59:03Z</time>
      </trkpt>
      <trkpt lat="44.88841" lon="-0.11037">
        <ele>89</ele>
        <time>2020-10-29T08:59:22Z</time>
      </trkpt>
      <trkpt lat="44.88849" lon="-0.11054">
        <ele>87</ele>
        <time>2020-10-29T08:59:33Z</time>
      </trkpt>
      <trkpt lat="44.88854" lon="-0.11063">
        <ele>88</ele>
        <time>2020-10-29T08:59:39Z</time>
      </trkpt>
      <trkpt lat="44.88867" lon="-0.11086">
        <ele>87</ele>
        <time>2020-10-29T08:59:55Z</time>
      </trkpt>
      <trkpt lat="44.88878" lon="-0.11109">
        <ele>85</ele>
        <time>2020-10-29T09:00:09Z</time>
      </trkpt>
      <trkpt lat="44.88892" lon="-0.11131">
        <ele>85</ele>
        <time>2020-10-29T09:00:27Z</time>
      </trkpt>
      <trkpt lat="44.88904" lon="-0.1115">
        <ele>84</ele>
        <time>2020-10-29T09:00:46Z</time>
      </trkpt>
      <trkpt lat="44.88915" lon="-0.11167">
        <ele>83</ele>
        <time>2020-10-29T09:01:04Z</time>
      </trkpt>
      <trkpt lat="44.88926" lon="-0.11193">
        <ele>82</ele>
        <time>2020-10-29T09:01:20Z</time>
      </trkpt>
      <trkpt lat="44.88943" lon="-0.11226">
        <ele>82</ele>
        <time>2020-10-29T09:01:38Z</time>
      </trkpt>
      <trkpt lat="44.88959" lon="-0.1125">
        <ele>81</ele>
        <time>2020-10-29T09:01:57Z</time>
      </trkpt>
      <trkpt lat="44.88967" lon="-0.11264">
        <ele>81</ele>
        <time>2020-10-29T09:02:14Z</time>
      </trkpt>
      <trkpt lat="44.88979" lon="-0.11286">
        <ele>81</ele>
        <time>2020-10-29T09:02:29Z</time>
      </trkpt>
      <trkpt lat="44.88988" lon="-0.11301">
        <ele>81</ele>
        <time>2020-10-29T09:02:41Z</time>
      </trkpt>
      <trkpt lat="44.88996" lon="-0.1133">
        <ele>81</ele>
        <time>2020-10-29T09:02:57Z</time>
      </trkpt>
      <trkpt lat="44.89003" lon="-0.11352">
        <ele>81</ele>
        <time>2020-10-29T09:03:18Z</time>
      </trkpt>
      <trkpt lat="44.89011" lon="-0.11381">
        <ele>81</ele>
        <time>2020-10-29T09:03:37Z</time>
      </trkpt>
      <trkpt lat="44.89016" lon="-0.11402">
        <ele>81</ele>
        <time>2020-10-29T09:03:48Z</time>
      </trkpt>
      <trkpt lat="44.89018" lon="-0.11419">
        <ele>81</ele>
        <time>2020-10-29T09:04:01Z</time>
      </trkpt>
      <trkpt lat="44.89022" lon="-0.11437">
        <ele>81</ele>
        <time>2020-10-29T09:04:14Z</time>
      </trkpt>
      <trkpt lat="44.89026" lon="-0.11448">
        <ele>82</ele>
        <time>2020-10-29T09:04:20Z</time>
      </trkpt>
      <trkpt lat="44.89033" lon="-0.11471">
        <ele>82</ele>
        <time>2020-10-29T09:04:38Z</time>
      </trkpt>
      <trkpt lat="44.89045" lon="-0.11507">
        <ele>83</ele>
        <time>2020-10-29T09:05:00Z</time>
      </trkpt>
      <trkpt lat="44.89052" lon="-0.11531">
        <ele>83</ele>
        <time>2020-10-29T09:05:20Z</time>
      </trkpt>
      <trkpt lat="44.89058" lon="-0.11564">
        <ele>85</ele>
        <time>2020-10-29T09:05:38Z</time>
      </trkpt>
      <trkpt lat="44.8906" lon="-0.11569">
        <ele>84</ele>
        <time>2020-10-29T09:05:41Z</time>
      </trkpt>
      <trkpt lat="44.89071" lon="-0.11605">
        <ele>84</ele>
        <time>2020-10-29T09:05:59Z</time>
      </trkpt>
      <trkpt lat="44.89079" lon="-0.11628">
        <ele>85</ele>
        <time>2020-10-29T09:06:21Z</time>
      </trkpt>
      <trkpt lat="44.8908" lon="-0.11639">
        <ele>85</ele>
        <time>2020-10-29T09:06:28Z</time>
      </trkpt>
      <trkpt lat="44.89089" lon="-0.11667">
        <ele>85</ele>
        <time>2020-10-29T09:06:48Z</time>
      </trkpt>
      <trkpt lat="44.89091" lon="-0.11678">
        <ele>85</ele>
        <time>2020-10-29T09:06:55Z</time>
      </trkpt>
      <trkpt lat="44.89092" lon="-0.11686">
        <ele>85</ele>
        <time>2020-10-29T09:06:59Z</time>
      </trkpt>
      <trkpt lat="44.89097" lon="-0.11709">
        <ele>85</ele>
        <time>2020-10-29T09:07:14Z</time>
      </trkpt>
      <trkpt lat="44.89104" lon="-0.11731">
        <ele>85</ele>
        <time>2020-10-29T09:07:28Z</time>
      </trkpt>
      <trkpt lat="44.8911" lon="-0.11753">
        <ele>85</ele>
        <time>2020-10-29T09:07:45Z</time>
      </trkpt>
      <trkpt lat="44.89118" lon="-0.11783">
        <ele>85</ele>
        <time>2020-10-29T09:08:01Z</time>
      </trkpt>
      <trkpt lat="44.89125" lon="-0.11806">
        <ele>85</ele>
        <time>2020-10-29T09:08:19Z</time>
      </trkpt>
      <trkpt lat="44.89127" lon="-0.1181">
        <ele>82</ele>
        <time>2020-10-29T09:08:25Z</time>
      </trkpt>
      <trkpt lat="44.89127" lon="-0.1181">
        <ele>88</ele>
        <time>2020-10-29T09:08:26Z</time>
      </trkpt>
      <trkpt lat="44.89127" lon="-0.1181">
        <ele>88</ele>
        <time>2020-10-29T09:08:27Z</time>
      </trkpt>
      <trkpt lat="44.89128" lon="-0.11809">
        <ele>86</ele>
        <time>2020-10-29T09:08:29Z</time>
      </trkpt>
      <trkpt lat="44.89128" lon="-0.11814">
        <ele>86</ele>
        <time>2020-10-29T09:08:50Z</time>
      </trkpt>
      <trkpt lat="44.89133" lon="-0.11824">
        <ele>86</ele>
        <time>2020-10-29T09:09:11Z</time>
      </trkpt>
      <trkpt lat="44.89136" lon="-0.11836">
        <ele>86</ele>
        <time>2020-10-29T09:09:25Z</time>
      </trkpt>
      <trkpt lat="44.89141" lon="-0.11844">
        <ele>86</ele>
        <time>2020-10-29T09:09:40Z</time>
      </trkpt>
      <trkpt lat="44.89144" lon="-0.11849">
        <ele>82</ele>
        <time>2020-10-29T09:09:45Z</time>
      </trkpt>
      <trkpt lat="44.89144" lon="-0.11851">
        <ele>89</ele>
        <time>2020-10-29T09:09:46Z</time>
      </trkpt>
      <trkpt lat="44.89146" lon="-0.11853">
        <ele>85</ele>
        <time>2020-10-29T09:09:48Z</time>
      </trkpt>
      <trkpt lat="44.89146" lon="-0.11854">
        <ele>85</ele>
        <time>2020-10-29T09:09:49Z</time>
      </trkpt>
      <trkpt lat="44.89148" lon="-0.11861">
        <ele>85</ele>
        <time>2020-10-29T09:10:02Z</time>
      </trkpt>
      <trkpt lat="44.89148" lon="-0.11859">
        <ele>85</ele>
        <time>2020-10-29T09:10:15Z</time>
      </trkpt>
      <trkpt lat="44.89157" lon="-0.11878">
        <ele>84</ele>
        <time>2020-10-29T09:10:30Z</time>
      </trkpt>
      <trkpt lat="44.89162" lon="-0.11896">
        <ele>84</ele>
        <time>2020-10-29T09:10:42Z</time>
      </trkpt>
      <trkpt lat="44.89168" lon="-0.11917">
        <ele>83</ele>
        <time>2020-10-29T09:10:59Z</time>
      </trkpt>
      <trkpt lat="44.89168" lon="-0.11918">
        <ele>83</ele>
        <time>2020-10-29T09:11:00Z</time>
      </trkpt>
      <trkpt lat="44.89174" lon="-0.11949">
        <ele>83</ele>
        <time>2020-10-29T09:11:15Z</time>
      </trkpt>
      <trkpt lat="44.89174" lon="-0.11965">
        <ele>83</ele>
        <time>2020-10-29T09:11:30Z</time>
      </trkpt>
      <trkpt lat="44.89173" lon="-0.11963">
        <ele>83</ele>
        <time>2020-10-29T09:11:47Z</time>
      </trkpt>
      <trkpt lat="44.89171" lon="-0.11964">
        <ele>83</ele>
        <time>2020-10-29T09:12:02Z</time>
      </trkpt>
      <trkpt lat="44.8917" lon="-0.11969">
        <ele>82</ele>
        <time>2020-10-29T09:12:19Z</time>
      </trkpt>
      <trkpt lat="44.8917" lon="-0.11971">
        <ele>82</ele>
        <time>2020-10-29T09:12:34Z</time>
      </trkpt>
      <trkpt lat="44.8917" lon="-0.11976">
        <ele>82</ele>
        <time>2020-10-29T09:12:45Z</time>
      </trkpt>
      <trkpt lat="44.89171" lon="-0.11975">
        <ele>82</ele>
        <time>2020-10-29T09:12:49Z</time>
      </trkpt>
      <trkpt lat="44.89174" lon="-0.11966">
        <ele>82</ele>
        <time>2020-10-29T09:12:55Z</time>
      </trkpt>
      <trkpt lat="44.89172" lon="-0.11939">
        <ele>82</ele>
        <time>2020-10-29T09:13:12Z</time>
      </trkpt>
      <trkpt lat="44.89167" lon="-0.11924">
        <ele>82</ele>
        <time>2020-10-29T09:13:24Z</time>
      </trkpt>
      <trkpt lat="44.89167" lon="-0.11915">
        <ele>83</ele>
        <time>2020-10-29T09:13:29Z</time>
      </trkpt>
      <trkpt lat="44.89157" lon="-0.11885">
        <ele>84</ele>
        <time>2020-10-29T09:13:50Z</time>
      </trkpt>
      <trkpt lat="44.89156" lon="-0.11877">
        <ele>84</ele>
        <time>2020-10-29T09:13:56Z</time>
      </trkpt>
      <trkpt lat="44.89154" lon="-0.11865">
        <ele>84</ele>
        <time>2020-10-29T09:14:02Z</time>
      </trkpt>
      <trkpt lat="44.89145" lon="-0.11845">
        <ele>85</ele>
        <time>2020-10-29T09:14:18Z</time>
      </trkpt>
      <trkpt lat="44.89143" lon="-0.11824">
        <ele>86</ele>
        <time>2020-10-29T09:14:32Z</time>
      </trkpt>
      <trkpt lat="44.89161" lon="-0.11801">
        <ele>82</ele>
        <time>2020-10-29T09:14:49Z</time>
      </trkpt>
      <trkpt lat="44.89162" lon="-0.118">
        <ele>85</ele>
        <time>2020-10-29T09:14:50Z</time>
      </trkpt>
      <trkpt lat="44.89164" lon="-0.11797">
        <ele>91</ele>
        <time>2020-10-29T09:14:52Z</time>
      </trkpt>
      <trkpt lat="44.89165" lon="-0.11797">
        <ele>87</ele>
        <time>2020-10-29T09:14:53Z</time>
      </trkpt>
      <trkpt lat="44.89167" lon="-0.11796">
        <ele>86</ele>
        <time>2020-10-29T09:14:55Z</time>
      </trkpt>
      <trkpt lat="44.89178" lon="-0.11783">
        <ele>86</ele>
        <time>2020-10-29T09:15:09Z</time>
      </trkpt>
      <trkpt lat="44.89195" lon="-0.11765">
        <ele>85</ele>
        <time>2020-10-29T09:15:30Z</time>
      </trkpt>
      <trkpt lat="44.89196" lon="-0.11764">
        <ele>85</ele>
        <time>2020-10-29T09:15:31Z</time>
      </trkpt>
      <trkpt lat="44.89205" lon="-0.11758">
        <ele>85</ele>
        <time>2020-10-29T09:15:47Z</time>
      </trkpt>
      <trkpt lat="44.89204" lon="-0.11757">
        <ele>84</ele>
        <time>2020-10-29T09:16:16Z</time>
      </trkpt>
      <trkpt lat="44.89206" lon="-0.11757">
        <ele>84</ele>
        <time>2020-10-29T09:16:52Z</time>
      </trkpt>
      <trkpt lat="44.89205" lon="-0.1176">
        <ele>84</ele>
        <time>2020-10-29T09:17:30Z</time>
      </trkpt>
      <trkpt lat="44.89204" lon="-0.11761">
        <ele>84</ele>
        <time>2020-10-29T09:18:01Z</time>
      </trkpt>
      <trkpt lat="44.89204" lon="-0.11761">
        <ele>84</ele>
        <time>2020-10-29T09:18:23Z</time>
      </trkpt>
      <trkpt lat="44.89204" lon="-0.11761">
        <ele>86</ele>
        <time>2020-10-29T09:18:29Z</time>
      </trkpt>
      <trkpt lat="44.89204" lon="-0.11761">
        <ele>83</ele>
        <time>2020-10-29T09:18:30Z</time>
      </trkpt>
      <trkpt lat="44.89204" lon="-0.1176">
        <ele>86</ele>
        <time>2020-10-29T09:18:31Z</time>
      </trkpt>
      <trkpt lat="44.89203" lon="-0.11758">
        <ele>81</ele>
        <time>2020-10-29T09:18:34Z</time>
      </trkpt>
      <trkpt lat="44.89204" lon="-0.11758">
        <ele>90</ele>
        <time>2020-10-29T09:18:35Z</time>
      </trkpt>
      <trkpt lat="44.89205" lon="-0.11757">
        <ele>86</ele>
        <time>2020-10-29T09:18:36Z</time>
      </trkpt>
      <trkpt lat="44.89216" lon="-0.11745">
        <ele>85</ele>
        <time>2020-10-29T09:18:54Z</time>
      </trkpt>
      <trkpt lat="44.89228" lon="-0.1173">
        <ele>85</ele>
        <time>2020-10-29T09:19:08Z</time>
      </trkpt>
      <trkpt lat="44.89243" lon="-0.11716">
        <ele>85</ele>
        <time>2020-10-29T09:19:24Z</time>
      </trkpt>
      <trkpt lat="44.89256" lon="-0.11699">
        <ele>85</ele>
        <time>2020-10-29T09:19:41Z</time>
      </trkpt>
      <trkpt lat="44.89272" lon="-0.11681">
        <ele>85</ele>
        <time>2020-10-29T09:19:59Z</time>
      </trkpt>
      <trkpt lat="44.89287" lon="-0.11668">
        <ele>85</ele>
        <time>2020-10-29T09:20:14Z</time>
      </trkpt>
      <trkpt lat="44.89297" lon="-0.11654">
        <ele>85</ele>
        <time>2020-10-29T09:20:30Z</time>
      </trkpt>
      <trkpt lat="44.89308" lon="-0.1164">
        <ele>85</ele>
        <time>2020-10-29T09:20:45Z</time>
      </trkpt>
      <trkpt lat="44.89313" lon="-0.11632">
        <ele>84</ele>
        <time>2020-10-29T09:20:53Z</time>
      </trkpt>
      <trkpt lat="44.89332" lon="-0.11618">
        <ele>84</ele>
        <time>2020-10-29T09:21:09Z</time>
      </trkpt>
      <trkpt lat="44.89338" lon="-0.11602">
        <ele>84</ele>
        <time>2020-10-29T09:21:19Z</time>
      </trkpt>
      <trkpt lat="44.89334" lon="-0.11578">
        <ele>84</ele>
        <time>2020-10-29T09:21:35Z</time>
      </trkpt>
      <trkpt lat="44.89329" lon="-0.11557">
        <ele>84</ele>
        <time>2020-10-29T09:21:47Z</time>
      </trkpt>
      <trkpt lat="44.89325" lon="-0.11543">
        <ele>83</ele>
        <time>2020-10-29T09:21:59Z</time>
      </trkpt>
      <trkpt lat="44.89319" lon="-0.11517">
        <ele>83</ele>
        <time>2020-10-29T09:22:14Z</time>
      </trkpt>
      <trkpt lat="44.89319" lon="-0.11514">
        <ele>83</ele>
        <time>2020-10-29T09:22:16Z</time>
      </trkpt>
      <trkpt lat="44.89311" lon="-0.11492">
        <ele>83</ele>
        <time>2020-10-29T09:22:33Z</time>
      </trkpt>
      <trkpt lat="44.89306" lon="-0.11479">
        <ele>85</ele>
        <time>2020-10-29T09:22:42Z</time>
      </trkpt>
      <trkpt lat="44.89298" lon="-0.11461">
        <ele>85</ele>
        <time>2020-10-29T09:22:59Z</time>
      </trkpt>
      <trkpt lat="44.89298" lon="-0.11461">
        <ele>85</ele>
        <time>2020-10-29T09:23:03Z</time>
      </trkpt>
      <trkpt lat="44.89299" lon="-0.11461">
        <ele>85</ele>
        <time>2020-10-29T09:23:04Z</time>
      </trkpt>
      <trkpt lat="44.893" lon="-0.11461">
        <ele>85</ele>
        <time>2020-10-29T09:23:05Z</time>
      </trkpt>
      <trkpt lat="44.89316" lon="-0.11452">
        <ele>85</ele>
        <time>2020-10-29T09:23:21Z</time>
      </trkpt>
      <trkpt lat="44.89335" lon="-0.11444">
        <ele>84</ele>
        <time>2020-10-29T09:23:36Z</time>
      </trkpt>
      <trkpt lat="44.89342" lon="-0.11439">
        <ele>83</ele>
        <time>2020-10-29T09:23:47Z</time>
      </trkpt>
      <trkpt lat="44.89342" lon="-0.11438">
        <ele>83</ele>
        <time>2020-10-29T09:23:48Z</time>
      </trkpt>
      <trkpt lat="44.89344" lon="-0.11426">
        <ele>83</ele>
        <time>2020-10-29T09:23:55Z</time>
      </trkpt>
      <trkpt lat="44.89358" lon="-0.11418">
        <ele>82</ele>
        <time>2020-10-29T09:24:08Z</time>
      </trkpt>
      <trkpt lat="44.89373" lon="-0.1141">
        <ele>81</ele>
        <time>2020-10-29T09:24:22Z</time>
      </trkpt>
      <trkpt lat="44.89397" lon="-0.11403">
        <ele>80</ele>
        <time>2020-10-29T09:24:42Z</time>
      </trkpt>
      <trkpt lat="44.89414" lon="-0.11395">
        <ele>79</ele>
        <time>2020-10-29T09:24:56Z</time>
      </trkpt>
      <trkpt lat="44.89425" lon="-0.11391">
        <ele>80</ele>
        <time>2020-10-29T09:25:05Z</time>
      </trkpt>
      <trkpt lat="44.89434" lon="-0.11388">
        <ele>77</ele>
        <time>2020-10-29T09:25:13Z</time>
      </trkpt>
      <trkpt lat="44.89435" lon="-0.11387">
        <ele>80</ele>
        <time>2020-10-29T09:25:14Z</time>
      </trkpt>
      <trkpt lat="44.89438" lon="-0.11386">
        <ele>78</ele>
        <time>2020-10-29T09:25:17Z</time>
      </trkpt>
      <trkpt lat="44.8946" lon="-0.11378">
        <ele>77</ele>
        <time>2020-10-29T09:25:34Z</time>
      </trkpt>
      <trkpt lat="44.89477" lon="-0.11367">
        <ele>76</ele>
        <time>2020-10-29T09:25:50Z</time>
      </trkpt>
      <trkpt lat="44.89479" lon="-0.11337">
        <ele>76</ele>
        <time>2020-10-29T09:26:08Z</time>
      </trkpt>
      <trkpt lat="44.89479" lon="-0.11336">
        <ele>76</ele>
        <time>2020-10-29T09:26:09Z</time>
      </trkpt>
      <trkpt lat="44.89486" lon="-0.11322">
        <ele>75</ele>
        <time>2020-10-29T09:26:19Z</time>
      </trkpt>
      <trkpt lat="44.89476" lon="-0.11298">
        <ele>73</ele>
        <time>2020-10-29T09:26:35Z</time>
      </trkpt>
      <trkpt lat="44.89464" lon="-0.11281">
        <ele>72</ele>
        <time>2020-10-29T09:26:49Z</time>
      </trkpt>
      <trkpt lat="44.89458" lon="-0.11275">
        <ele>72</ele>
        <time>2020-10-29T09:26:57Z</time>
      </trkpt>
      <trkpt lat="44.89443" lon="-0.11259">
        <ele>72</ele>
        <time>2020-10-29T09:27:12Z</time>
      </trkpt>
      <trkpt lat="44.89438" lon="-0.11252">
        <ele>74</ele>
        <time>2020-10-29T09:27:19Z</time>
      </trkpt>
      <trkpt lat="44.89431" lon="-0.11234">
        <ele>74</ele>
        <time>2020-10-29T09:27:32Z</time>
      </trkpt>
      <trkpt lat="44.89423" lon="-0.11211">
        <ele>74</ele>
        <time>2020-10-29T09:27:47Z</time>
      </trkpt>
      <trkpt lat="44.89416" lon="-0.11194">
        <ele>74</ele>
        <time>2020-10-29T09:28:01Z</time>
      </trkpt>
      <trkpt lat="44.89411" lon="-0.11183">
        <ele>74</ele>
        <time>2020-10-29T09:28:08Z</time>
      </trkpt>
      <trkpt lat="44.89409" lon="-0.11179">
        <ele>74</ele>
        <time>2020-10-29T09:28:12Z</time>
      </trkpt>
      <trkpt lat="44.894" lon="-0.11163">
        <ele>72</ele>
        <time>2020-10-29T09:28:24Z</time>
      </trkpt>
      <trkpt lat="44.89397" lon="-0.11156">
        <ele>72</ele>
        <time>2020-10-29T09:28:29Z</time>
      </trkpt>
      <trkpt lat="44.89387" lon="-0.11135">
        <ele>72</ele>
        <time>2020-10-29T09:28:45Z</time>
      </trkpt>
      <trkpt lat="44.89384" lon="-0.11127">
        <ele>73</ele>
        <time>2020-10-29T09:28:50Z</time>
      </trkpt>
      <trkpt lat="44.89378" lon="-0.11115">
        <ele>69</ele>
        <time>2020-10-29T09:28:59Z</time>
      </trkpt>
      <trkpt lat="44.89378" lon="-0.11113">
        <ele>75</ele>
        <time>2020-10-29T09:29:00Z</time>
      </trkpt>
      <trkpt lat="44.89377" lon="-0.11112">
        <ele>75</ele>
        <time>2020-10-29T09:29:01Z</time>
      </trkpt>
      <trkpt lat="44.89377" lon="-0.11109">
        <ele>73</ele>
        <time>2020-10-29T09:29:03Z</time>
      </trkpt>
      <trkpt lat="44.8937" lon="-0.1108">
        <ele>73</ele>
        <time>2020-10-29T09:29:23Z</time>
      </trkpt>
      <trkpt lat="44.89366" lon="-0.11058">
        <ele>74</ele>
        <time>2020-10-29T09:29:41Z</time>
      </trkpt>
      <trkpt lat="44.89361" lon="-0.1104">
        <ele>75</ele>
        <time>2020-10-29T09:29:56Z</time>
      </trkpt>
      <trkpt lat="44.89357" lon="-0.11026">
        <ele>75</ele>
        <time>2020-10-29T09:30:08Z</time>
      </trkpt>
      <trkpt lat="44.89352" lon="-0.11003">
        <ele>77</ele>
        <time>2020-10-29T09:30:25Z</time>
      </trkpt>
      <trkpt lat="44.89348" lon="-0.10982">
        <ele>77</ele>
        <time>2020-10-29T09:30:40Z</time>
      </trkpt>
      <trkpt lat="44.89343" lon="-0.10963">
        <ele>78</ele>
        <time>2020-10-29T09:30:55Z</time>
      </trkpt>
      <trkpt lat="44.89343" lon="-0.10962">
        <ele>78</ele>
        <time>2020-10-29T09:30:56Z</time>
      </trkpt>
      <trkpt lat="44.8934" lon="-0.10953">
        <ele>78</ele>
        <time>2020-10-29T09:31:04Z</time>
      </trkpt>
      <trkpt lat="44.89336" lon="-0.10933">
        <ele>78</ele>
        <time>2020-10-29T09:31:21Z</time>
      </trkpt>
      <trkpt lat="44.89332" lon="-0.10919">
        <ele>78</ele>
        <time>2020-10-29T09:31:36Z</time>
      </trkpt>
      <trkpt lat="44.89331" lon="-0.10913">
        <ele>78</ele>
        <time>2020-10-29T09:31:54Z</time>
      </trkpt>
      <trkpt lat="44.89334" lon="-0.109">
        <ele>78</ele>
        <time>2020-10-29T09:32:11Z</time>
      </trkpt>
      <trkpt lat="44.89337" lon="-0.10894">
        <ele>78</ele>
        <time>2020-10-29T09:32:17Z</time>
      </trkpt>
      <trkpt lat="44.89342" lon="-0.10888">
        <ele>78</ele>
        <time>2020-10-29T09:32:24Z</time>
      </trkpt>
      <trkpt lat="44.89338" lon="-0.10896">
        <ele>77</ele>
        <time>2020-10-29T09:32:32Z</time>
      </trkpt>
      <trkpt lat="44.89321" lon="-0.10918">
        <ele>77</ele>
        <time>2020-10-29T09:32:50Z</time>
      </trkpt>
      <trkpt lat="44.89314" lon="-0.10924">
        <ele>78</ele>
        <time>2020-10-29T09:32:55Z</time>
      </trkpt>
      <trkpt lat="44.89295" lon="-0.10938">
        <ele>78</ele>
        <time>2020-10-29T09:33:09Z</time>
      </trkpt>
      <trkpt lat="44.89282" lon="-0.1095">
        <ele>78</ele>
        <time>2020-10-29T09:33:22Z</time>
      </trkpt>
      <trkpt lat="44.89274" lon="-0.10954">
        <ele>78</ele>
        <time>2020-10-29T09:33:29Z</time>
      </trkpt>
      <trkpt lat="44.89273" lon="-0.10954">
        <ele>78</ele>
        <time>2020-10-29T09:33:30Z</time>
      </trkpt>
      <trkpt lat="44.89272" lon="-0.10944">
        <ele>78</ele>
        <time>2020-10-29T09:33:38Z</time>
      </trkpt>
      <trkpt lat="44.89272" lon="-0.10942">
        <ele>78</ele>
        <time>2020-10-29T09:33:39Z</time>
      </trkpt>
      <trkpt lat="44.89272" lon="-0.10933">
        <ele>78</ele>
        <time>2020-10-29T09:33:43Z</time>
      </trkpt>
      <trkpt lat="44.89267" lon="-0.10904">
        <ele>78</ele>
        <time>2020-10-29T09:34:02Z</time>
      </trkpt>
      <trkpt lat="44.89262" lon="-0.10877">
        <ele>78</ele>
        <time>2020-10-29T09:34:17Z</time>
      </trkpt>
      <trkpt lat="44.89257" lon="-0.1086">
        <ele>78</ele>
        <time>2020-10-29T09:34:31Z</time>
      </trkpt>
      <trkpt lat="44.89251" lon="-0.10833">
        <ele>79</ele>
        <time>2020-10-29T09:34:45Z</time>
      </trkpt>
      <trkpt lat="44.89246" lon="-0.10821">
        <ele>79</ele>
        <time>2020-10-29T09:34:56Z</time>
      </trkpt>
      <trkpt lat="44.89244" lon="-0.10819">
        <ele>79</ele>
        <time>2020-10-29T09:34:58Z</time>
      </trkpt>
      <trkpt lat="44.89241" lon="-0.10816">
        <ele>79</ele>
        <time>2020-10-29T09:35:02Z</time>
      </trkpt>
      <trkpt lat="44.89229" lon="-0.10824">
        <ele>79</ele>
        <time>2020-10-29T09:35:13Z</time>
      </trkpt>
      <trkpt lat="44.89218" lon="-0.10829">
        <ele>79</ele>
        <time>2020-10-29T09:35:29Z</time>
      </trkpt>
      <trkpt lat="44.89194" lon="-0.10839">
        <ele>79</ele>
        <time>2020-10-29T09:35:46Z</time>
      </trkpt>
      <trkpt lat="44.89182" lon="-0.10844">
        <ele>80</ele>
        <time>2020-10-29T09:35:55Z</time>
      </trkpt>
      <trkpt lat="44.89179" lon="-0.10845">
        <ele>79</ele>
        <time>2020-10-29T09:35:58Z</time>
      </trkpt>
      <trkpt lat="44.89174" lon="-0.10844">
        <ele>79</ele>
        <time>2020-10-29T09:36:04Z</time>
      </trkpt>
      <trkpt lat="44.89173" lon="-0.1084">
        <ele>80</ele>
        <time>2020-10-29T09:36:06Z</time>
      </trkpt>
      <trkpt lat="44.89165" lon="-0.1081">
        <ele>80</ele>
        <time>2020-10-29T09:36:21Z</time>
      </trkpt>
      <trkpt lat="44.89158" lon="-0.10789">
        <ele>80</ele>
        <time>2020-10-29T09:36:37Z</time>
      </trkpt>
      <trkpt lat="44.89158" lon="-0.10794">
        <ele>80</ele>
        <time>2020-10-29T09:36:49Z</time>
      </trkpt>
      <trkpt lat="44.89157" lon="-0.10792">
        <ele>80</ele>
        <time>2020-10-29T09:37:00Z</time>
      </trkpt>
      <trkpt lat="44.89155" lon="-0.10787">
        <ele>80</ele>
        <time>2020-10-29T09:37:04Z</time>
      </trkpt>
      <trkpt lat="44.89151" lon="-0.10768">
        <ele>80</ele>
        <time>2020-10-29T09:37:18Z</time>
      </trkpt>
      <trkpt lat="44.89145" lon="-0.10748">
        <ele>80</ele>
        <time>2020-10-29T09:37:33Z</time>
      </trkpt>
      <trkpt lat="44.89147" lon="-0.10743">
        <ele>80</ele>
        <time>2020-10-29T09:37:38Z</time>
      </trkpt>
      <trkpt lat="44.89152" lon="-0.10738">
        <ele>79</ele>
        <time>2020-10-29T09:37:42Z</time>
      </trkpt>
      <trkpt lat="44.89166" lon="-0.1073">
        <ele>78</ele>
        <time>2020-10-29T09:37:57Z</time>
      </trkpt>
      <trkpt lat="44.89186" lon="-0.10721">
        <ele>78</ele>
        <time>2020-10-29T09:38:09Z</time>
      </trkpt>
      <trkpt lat="44.89201" lon="-0.10715">
        <ele>77</ele>
        <time>2020-10-29T09:38:25Z</time>
      </trkpt>
      <trkpt lat="44.89222" lon="-0.10708">
        <ele>75</ele>
        <time>2020-10-29T09:38:39Z</time>
      </trkpt>
      <trkpt lat="44.89234" lon="-0.10706">
        <ele>74</ele>
        <time>2020-10-29T09:38:53Z</time>
      </trkpt>
      <trkpt lat="44.89234" lon="-0.10711">
        <ele>74</ele>
        <time>2020-10-29T09:39:03Z</time>
      </trkpt>
      <trkpt lat="44.89236" lon="-0.10719">
        <ele>74</ele>
        <time>2020-10-29T09:39:08Z</time>
      </trkpt>
      <trkpt lat="44.89232" lon="-0.10735">
        <ele>74</ele>
        <time>2020-10-29T09:39:20Z</time>
      </trkpt>
      <trkpt lat="44.89231" lon="-0.10748">
        <ele>76</ele>
        <time>2020-10-29T09:39:30Z</time>
      </trkpt>
      <trkpt lat="44.89242" lon="-0.10754">
        <ele>77</ele>
        <time>2020-10-29T09:39:44Z</time>
      </trkpt>
      <trkpt lat="44.89254" lon="-0.10747">
        <ele>74</ele>
        <time>2020-10-29T09:39:58Z</time>
      </trkpt>
      <trkpt lat="44.89269" lon="-0.1074">
        <ele>72</ele>
        <time>2020-10-29T09:40:11Z</time>
      </trkpt>
      <trkpt lat="44.89274" lon="-0.10738">
        <ele>72</ele>
        <time>2020-10-29T09:40:17Z</time>
      </trkpt>
      <trkpt lat="44.89299" lon="-0.10724">
        <ele>69</ele>
        <time>2020-10-29T09:40:33Z</time>
      </trkpt>
      <trkpt lat="44.89314" lon="-0.10716">
        <ele>68</ele>
        <time>2020-10-29T09:40:44Z</time>
      </trkpt>
      <trkpt lat="44.8933" lon="-0.10701">
        <ele>67</ele>
        <time>2020-10-29T09:40:57Z</time>
      </trkpt>
      <trkpt lat="44.89333" lon="-0.10701">
        <ele>67</ele>
        <time>2020-10-29T09:41:07Z</time>
      </trkpt>
      <trkpt lat="44.89339" lon="-0.10699">
        <ele>67</ele>
        <time>2020-10-29T09:41:11Z</time>
      </trkpt>
      <trkpt lat="44.89351" lon="-0.10698">
        <ele>67</ele>
        <time>2020-10-29T09:41:18Z</time>
      </trkpt>
      <trkpt lat="44.89365" lon="-0.10688">
        <ele>67</ele>
        <time>2020-10-29T09:41:35Z</time>
      </trkpt>
      <trkpt lat="44.8937" lon="-0.10685">
        <ele>64</ele>
        <time>2020-10-29T09:41:40Z</time>
      </trkpt>
      <trkpt lat="44.89371" lon="-0.10685">
        <ele>64</ele>
        <time>2020-10-29T09:41:41Z</time>
      </trkpt>
      <trkpt lat="44.89371" lon="-0.10685">
        <ele>71</ele>
        <time>2020-10-29T09:41:42Z</time>
      </trkpt>
      <trkpt lat="44.89371" lon="-0.10685">
        <ele>66</ele>
        <time>2020-10-29T09:41:43Z</time>
      </trkpt>
      <trkpt lat="44.89371" lon="-0.10684">
        <ele>71</ele>
        <time>2020-10-29T09:41:46Z</time>
      </trkpt>
      <trkpt lat="44.89371" lon="-0.10684">
        <ele>67</ele>
        <time>2020-10-29T09:41:48Z</time>
      </trkpt>
      <trkpt lat="44.89376" lon="-0.10687">
        <ele>67</ele>
        <time>2020-10-29T09:42:15Z</time>
      </trkpt>
      <trkpt lat="44.8938" lon="-0.10693">
        <ele>67</ele>
        <time>2020-10-29T09:42:21Z</time>
      </trkpt>
      <trkpt lat="44.89381" lon="-0.10696">
        <ele>70</ele>
        <time>2020-10-29T09:42:23Z</time>
      </trkpt>
      <trkpt lat="44.89382" lon="-0.10697">
        <ele>70</ele>
        <time>2020-10-29T09:42:24Z</time>
      </trkpt>
      <trkpt lat="44.89383" lon="-0.10699">
        <ele>68</ele>
        <time>2020-10-29T09:42:26Z</time>
      </trkpt>
      <trkpt lat="44.89391" lon="-0.10716">
        <ele>69</ele>
        <time>2020-10-29T09:42:39Z</time>
      </trkpt>
      <trkpt lat="44.89401" lon="-0.10734">
        <ele>70</ele>
        <time>2020-10-29T09:42:52Z</time>
      </trkpt>
      <trkpt lat="44.89405" lon="-0.1074">
        <ele>71</ele>
        <time>2020-10-29T09:43:04Z</time>
      </trkpt>
      <trkpt lat="44.89414" lon="-0.10755">
        <ele>72</ele>
        <time>2020-10-29T09:43:17Z</time>
      </trkpt>
      <trkpt lat="44.89419" lon="-0.10756">
        <ele>72</ele>
        <time>2020-10-29T09:43:23Z</time>
      </trkpt>
      <trkpt lat="44.89434" lon="-0.10754">
        <ele>67</ele>
        <time>2020-10-29T09:43:33Z</time>
      </trkpt>
      <trkpt lat="44.89435" lon="-0.10754">
        <ele>78</ele>
        <time>2020-10-29T09:43:34Z</time>
      </trkpt>
      <trkpt lat="44.89436" lon="-0.10753">
        <ele>73</ele>
        <time>2020-10-29T09:43:35Z</time>
      </trkpt>
      <trkpt lat="44.89438" lon="-0.10752">
        <ele>72</ele>
        <time>2020-10-29T09:43:37Z</time>
      </trkpt>
      <trkpt lat="44.89446" lon="-0.10748">
        <ele>71</ele>
        <time>2020-10-29T09:43:45Z</time>
      </trkpt>
      <trkpt lat="44.89452" lon="-0.1074">
        <ele>70</ele>
        <time>2020-10-29T09:43:57Z</time>
      </trkpt>
      <trkpt lat="44.8946" lon="-0.10718">
        <ele>68</ele>
        <time>2020-10-29T09:44:13Z</time>
      </trkpt>
      <trkpt lat="44.89468" lon="-0.10698">
        <ele>63</ele>
        <time>2020-10-29T09:44:27Z</time>
      </trkpt>
      <trkpt lat="44.89469" lon="-0.10696">
        <ele>66</ele>
        <time>2020-10-29T09:44:28Z</time>
      </trkpt>
      <trkpt lat="44.89476" lon="-0.10682">
        <ele>64</ele>
        <time>2020-10-29T09:44:35Z</time>
      </trkpt>
      <trkpt lat="44.89479" lon="-0.10663">
        <ele>62</ele>
        <time>2020-10-29T09:44:46Z</time>
      </trkpt>
      <trkpt lat="44.89477" lon="-0.10661">
        <ele>62</ele>
        <time>2020-10-29T09:44:51Z</time>
      </trkpt>
      <trkpt lat="44.89478" lon="-0.10652">
        <ele>61</ele>
        <time>2020-10-29T09:44:57Z</time>
      </trkpt>
      <trkpt lat="44.8948" lon="-0.10648">
        <ele>61</ele>
        <time>2020-10-29T09:45:01Z</time>
      </trkpt>
      <trkpt lat="44.89486" lon="-0.1063">
        <ele>60</ele>
        <time>2020-10-29T09:45:14Z</time>
      </trkpt>
      <trkpt lat="44.89488" lon="-0.10624">
        <ele>60</ele>
        <time>2020-10-29T09:45:21Z</time>
      </trkpt>
      <trkpt lat="44.89493" lon="-0.10613">
        <ele>60</ele>
        <time>2020-10-29T09:45:27Z</time>
      </trkpt>
      <trkpt lat="44.89499" lon="-0.10591">
        <ele>60</ele>
        <time>2020-10-29T09:45:43Z</time>
      </trkpt>
      <trkpt lat="44.89499" lon="-0.1059">
        <ele>60</ele>
        <time>2020-10-29T09:45:44Z</time>
      </trkpt>
      <trkpt lat="44.89509" lon="-0.10572">
        <ele>60</ele>
        <time>2020-10-29T09:45:57Z</time>
      </trkpt>
      <trkpt lat="44.89511" lon="-0.10567">
        <ele>61</ele>
        <time>2020-10-29T09:46:19Z</time>
      </trkpt>
      <trkpt lat="44.89511" lon="-0.10565">
        <ele>61</ele>
        <time>2020-10-29T09:46:36Z</time>
      </trkpt>
      <trkpt lat="44.8951" lon="-0.10561">
        <ele>61</ele>
        <time>2020-10-29T09:46:54Z</time>
      </trkpt>
      <trkpt lat="44.89507" lon="-0.10549">
        <ele>59</ele>
        <time>2020-10-29T09:47:07Z</time>
      </trkpt>
      <trkpt lat="44.89502" lon="-0.10539">
        <ele>56</ele>
        <time>2020-10-29T09:47:20Z</time>
      </trkpt>
      <trkpt lat="44.89494" lon="-0.10521">
        <ele>53</ele>
        <time>2020-10-29T09:47:36Z</time>
      </trkpt>
      <trkpt lat="44.89486" lon="-0.10493">
        <ele>51</ele>
        <time>2020-10-29T09:47:50Z</time>
      </trkpt>
      <trkpt lat="44.89479" lon="-0.10482">
        <ele>49</ele>
        <time>2020-10-29T09:48:04Z</time>
      </trkpt>
      <trkpt lat="44.8947" lon="-0.10459">
        <ele>48</ele>
        <time>2020-10-29T09:48:17Z</time>
      </trkpt>
      <trkpt lat="44.89468" lon="-0.10454">
        <ele>48</ele>
        <time>2020-10-29T09:48:23Z</time>
      </trkpt>
      <trkpt lat="44.89465" lon="-0.10444">
        <ele>48</ele>
        <time>2020-10-29T09:48:28Z</time>
      </trkpt>
      <trkpt lat="44.89459" lon="-0.10429">
        <ele>47</ele>
        <time>2020-10-29T09:48:40Z</time>
      </trkpt>
      <trkpt lat="44.89454" lon="-0.10413">
        <ele>47</ele>
        <time>2020-10-29T09:48:52Z</time>
      </trkpt>
      <trkpt lat="44.8945" lon="-0.10398">
        <ele>46</ele>
        <time>2020-10-29T09:49:02Z</time>
      </trkpt>
      <trkpt lat="44.89452" lon="-0.10392">
        <ele>46</ele>
        <time>2020-10-29T09:49:08Z</time>
      </trkpt>
      <trkpt lat="44.89461" lon="-0.10378">
        <ele>45</ele>
        <time>2020-10-29T09:49:21Z</time>
      </trkpt>
      <trkpt lat="44.89469" lon="-0.10363">
        <ele>45</ele>
        <time>2020-10-29T09:49:34Z</time>
      </trkpt>
      <trkpt lat="44.89479" lon="-0.10344">
        <ele>44</ele>
        <time>2020-10-29T09:49:49Z</time>
      </trkpt>
      <trkpt lat="44.89497" lon="-0.10316">
        <ele>43</ele>
        <time>2020-10-29T09:50:06Z</time>
      </trkpt>
      <trkpt lat="44.89502" lon="-0.10303">
        <ele>43</ele>
        <time>2020-10-29T09:50:20Z</time>
      </trkpt>
      <trkpt lat="44.89514" lon="-0.10282">
        <ele>42</ele>
        <time>2020-10-29T09:50:33Z</time>
      </trkpt>
      <trkpt lat="44.89518" lon="-0.10275">
        <ele>42</ele>
        <time>2020-10-29T09:50:41Z</time>
      </trkpt>
      <trkpt lat="44.89523" lon="-0.10267">
        <ele>42</ele>
        <time>2020-10-29T09:50:51Z</time>
      </trkpt>
      <trkpt lat="44.89532" lon="-0.1025">
        <ele>41</ele>
        <time>2020-10-29T09:51:02Z</time>
      </trkpt>
      <trkpt lat="44.89543" lon="-0.10231">
        <ele>41</ele>
        <time>2020-10-29T09:51:17Z</time>
      </trkpt>
      <trkpt lat="44.89552" lon="-0.10215">
        <ele>41</ele>
        <time>2020-10-29T09:51:30Z</time>
      </trkpt>
      <trkpt lat="44.8956" lon="-0.10196">
        <ele>41</ele>
        <time>2020-10-29T09:51:45Z</time>
      </trkpt>
      <trkpt lat="44.89555" lon="-0.10189">
        <ele>40</ele>
        <time>2020-10-29T09:51:56Z</time>
      </trkpt>
      <trkpt lat="44.89553" lon="-0.10187">
        <ele>40</ele>
        <time>2020-10-29T09:51:59Z</time>
      </trkpt>
      <trkpt lat="44.89547" lon="-0.10187">
        <ele>40</ele>
        <time>2020-10-29T09:52:08Z</time>
      </trkpt>
      <trkpt lat="44.89536" lon="-0.10176">
        <ele>41</ele>
        <time>2020-10-29T09:52:21Z</time>
      </trkpt>
      <trkpt lat="44.89534" lon="-0.10174">
        <ele>32</ele>
        <time>2020-10-29T09:52:25Z</time>
      </trkpt>
      <trkpt lat="44.89534" lon="-0.10173">
        <ele>41</ele>
        <time>2020-10-29T09:52:26Z</time>
      </trkpt>
      <trkpt lat="44.89534" lon="-0.10173">
        <ele>48</ele>
        <time>2020-10-29T09:52:27Z</time>
      </trkpt>
      <trkpt lat="44.89534" lon="-0.10172">
        <ele>44</ele>
        <time>2020-10-29T09:52:28Z</time>
      </trkpt>
      <trkpt lat="44.89533" lon="-0.10172">
        <ele>41</ele>
        <time>2020-10-29T09:52:29Z</time>
      </trkpt>
      <trkpt lat="44.89533" lon="-0.10171">
        <ele>42</ele>
        <time>2020-10-29T09:52:30Z</time>
      </trkpt>
      <trkpt lat="44.89533" lon="-0.10171">
        <ele>37</ele>
        <time>2020-10-29T09:52:34Z</time>
      </trkpt>
      <trkpt lat="44.89533" lon="-0.10171">
        <ele>37</ele>
        <time>2020-10-29T09:52:35Z</time>
      </trkpt>
      <trkpt lat="44.89533" lon="-0.10171">
        <ele>41</ele>
        <time>2020-10-29T09:52:36Z</time>
      </trkpt>
      <trkpt lat="44.89533" lon="-0.1017">
        <ele>41</ele>
        <time>2020-10-29T09:52:37Z</time>
      </trkpt>
      <trkpt lat="44.89532" lon="-0.1017">
        <ele>43</ele>
        <time>2020-10-29T09:52:39Z</time>
      </trkpt>
      <trkpt lat="44.8953" lon="-0.10169">
        <ele>42</ele>
        <time>2020-10-29T09:52:57Z</time>
      </trkpt>
      <trkpt lat="44.89524" lon="-0.10162">
        <ele>42</ele>
        <time>2020-10-29T09:53:13Z</time>
      </trkpt>
      <trkpt lat="44.89513" lon="-0.10154">
        <ele>42</ele>
        <time>2020-10-29T09:53:28Z</time>
      </trkpt>
      <trkpt lat="44.89498" lon="-0.10141">
        <ele>44</ele>
        <time>2020-10-29T09:53:46Z</time>
      </trkpt>
      <trkpt lat="44.89484" lon="-0.10131">
        <ele>46</ele>
        <time>2020-10-29T09:54:04Z</time>
      </trkpt>
      <trkpt lat="44.89473" lon="-0.10119">
        <ele>47</ele>
        <time>2020-10-29T09:54:19Z</time>
      </trkpt>
      <trkpt lat="44.89464" lon="-0.10112">
        <ele>49</ele>
        <time>2020-10-29T09:54:33Z</time>
      </trkpt>
      <trkpt lat="44.89463" lon="-0.10111">
        <ele>49</ele>
        <time>2020-10-29T09:54:47Z</time>
      </trkpt>
      <trkpt lat="44.89458" lon="-0.10106">
        <ele>50</ele>
        <time>2020-10-29T09:55:06Z</time>
      </trkpt>
      <trkpt lat="44.89449" lon="-0.10098">
        <ele>52</ele>
        <time>2020-10-29T09:55:24Z</time>
      </trkpt>
      <trkpt lat="44.89444" lon="-0.10094">
        <ele>53</ele>
        <time>2020-10-29T09:55:40Z</time>
      </trkpt>
      <trkpt lat="44.89435" lon="-0.10085">
        <ele>55</ele>
        <time>2020-10-29T09:55:54Z</time>
      </trkpt>
      <trkpt lat="44.89431" lon="-0.10082">
        <ele>56</ele>
        <time>2020-10-29T09:55:59Z</time>
      </trkpt>
      <trkpt lat="44.89428" lon="-0.10075">
        <ele>59</ele>
        <time>2020-10-29T09:56:10Z</time>
      </trkpt>
      <trkpt lat="44.89428" lon="-0.10074">
        <ele>56</ele>
        <time>2020-10-29T09:56:12Z</time>
      </trkpt>
      <trkpt lat="44.89433" lon="-0.10073">
        <ele>56</ele>
        <time>2020-10-29T09:56:32Z</time>
      </trkpt>
      <trkpt lat="44.89435" lon="-0.1007">
        <ele>56</ele>
        <time>2020-10-29T09:56:36Z</time>
      </trkpt>
      <trkpt lat="44.89449" lon="-0.1006">
        <ele>55</ele>
        <time>2020-10-29T09:56:52Z</time>
      </trkpt>
      <trkpt lat="44.89464" lon="-0.10052">
        <ele>54</ele>
        <time>2020-10-29T09:57:09Z</time>
      </trkpt>
      <trkpt lat="44.89484" lon="-0.10039">
        <ele>53</ele>
        <time>2020-10-29T09:57:28Z</time>
      </trkpt>
      <trkpt lat="44.89504" lon="-0.10027">
        <ele>53</ele>
        <time>2020-10-29T09:57:46Z</time>
      </trkpt>
      <trkpt lat="44.89511" lon="-0.10023">
        <ele>49</ele>
        <time>2020-10-29T09:57:52Z</time>
      </trkpt>
      <trkpt lat="44.89513" lon="-0.10023">
        <ele>55</ele>
        <time>2020-10-29T09:57:53Z</time>
      </trkpt>
      <trkpt lat="44.89515" lon="-0.10021">
        <ele>52</ele>
        <time>2020-10-29T09:57:55Z</time>
      </trkpt>
      <trkpt lat="44.89517" lon="-0.10021">
        <ele>52</ele>
        <time>2020-10-29T09:57:56Z</time>
      </trkpt>
      <trkpt lat="44.89523" lon="-0.10019">
        <ele>52</ele>
        <time>2020-10-29T09:58:01Z</time>
      </trkpt>
      <trkpt lat="44.89527" lon="-0.10016">
        <ele>51</ele>
        <time>2020-10-29T09:58:05Z</time>
      </trkpt>
      <trkpt lat="44.89531" lon="-0.10014">
        <ele>54</ele>
        <time>2020-10-29T09:58:09Z</time>
      </trkpt>
      <trkpt lat="44.89533" lon="-0.10014">
        <ele>52</ele>
        <time>2020-10-29T09:58:11Z</time>
      </trkpt>
      <trkpt lat="44.89556" lon="-0.10009">
        <ele>51</ele>
        <time>2020-10-29T09:58:30Z</time>
      </trkpt>
      <trkpt lat="44.89583" lon="-0.10004">
        <ele>50</ele>
        <time>2020-10-29T09:58:52Z</time>
      </trkpt>
      <trkpt lat="44.8961" lon="-0.09998">
        <ele>49</ele>
        <time>2020-10-29T09:59:14Z</time>
      </trkpt>
      <trkpt lat="44.89633" lon="-0.09993">
        <ele>49</ele>
        <time>2020-10-29T09:59:32Z</time>
      </trkpt>
      <trkpt lat="44.8966" lon="-0.09986">
        <ele>48</ele>
        <time>2020-10-29T09:59:55Z</time>
      </trkpt>
      <trkpt lat="44.89687" lon="-0.09981">
        <ele>47</ele>
        <time>2020-10-29T10:00:15Z</time>
      </trkpt>
      <trkpt lat="44.89716" lon="-0.09974">
        <ele>46</ele>
        <time>2020-10-29T10:00:37Z</time>
      </trkpt>
      <trkpt lat="44.89734" lon="-0.0997">
        <ele>45</ele>
        <time>2020-10-29T10:00:54Z</time>
      </trkpt>
      <trkpt lat="44.8976" lon="-0.09965">
        <ele>45</ele>
        <time>2020-10-29T10:01:15Z</time>
      </trkpt>
      <trkpt lat="44.89791" lon="-0.09957">
        <ele>43</ele>
        <time>2020-10-29T10:01:40Z</time>
      </trkpt>
      <trkpt lat="44.89817" lon="-0.0995">
        <ele>43</ele>
        <time>2020-10-29T10:02:01Z</time>
      </trkpt>
      <trkpt lat="44.89844" lon="-0.09945">
        <ele>42</ele>
        <time>2020-10-29T10:02:23Z</time>
      </trkpt>
      <trkpt lat="44.89873" lon="-0.09939">
        <ele>42</ele>
        <time>2020-10-29T10:02:45Z</time>
      </trkpt>
      <trkpt lat="44.89903" lon="-0.09931">
        <ele>41</ele>
        <time>2020-10-29T10:03:09Z</time>
      </trkpt>
      <trkpt lat="44.89929" lon="-0.09924">
        <ele>41</ele>
        <time>2020-10-29T10:03:29Z</time>
      </trkpt>
      <trkpt lat="44.89957" lon="-0.09916">
        <ele>40</ele>
        <time>2020-10-29T10:03:51Z</time>
      </trkpt>
      <trkpt lat="44.89987" lon="-0.09906">
        <ele>38</ele>
        <time>2020-10-29T10:04:15Z</time>
      </trkpt>
      <trkpt lat="44.90011" lon="-0.09898">
        <ele>37</ele>
        <time>2020-10-29T10:04:35Z</time>
      </trkpt>
      <trkpt lat="44.90034" lon="-0.0989">
        <ele>36</ele>
        <time>2020-10-29T10:04:53Z</time>
      </trkpt>
      <trkpt lat="44.90059" lon="-0.09878">
        <ele>33</ele>
        <time>2020-10-29T10:05:13Z</time>
      </trkpt>
      <trkpt lat="44.90078" lon="-0.09865">
        <ele>31</ele>
        <time>2020-10-29T10:05:31Z</time>
      </trkpt>
      <trkpt lat="44.90097" lon="-0.09852">
        <ele>29</ele>
        <time>2020-10-29T10:05:49Z</time>
      </trkpt>
      <trkpt lat="44.90101" lon="-0.09851">
        <ele>29</ele>
        <time>2020-10-29T10:05:53Z</time>
      </trkpt>
      <trkpt lat="44.90104" lon="-0.09852">
        <ele>25</ele>
        <time>2020-10-29T10:05:56Z</time>
      </trkpt>
      <trkpt lat="44.90106" lon="-0.09852">
        <ele>31</ele>
        <time>2020-10-29T10:05:57Z</time>
      </trkpt>
      <trkpt lat="44.90109" lon="-0.09854">
        <ele>29</ele>
        <time>2020-10-29T10:06:00Z</time>
      </trkpt>
      <trkpt lat="44.90115" lon="-0.0986">
        <ele>29</ele>
        <time>2020-10-29T10:06:05Z</time>
      </trkpt>
      <trkpt lat="44.90139" lon="-0.09877">
        <ele>28</ele>
        <time>2020-10-29T10:06:29Z</time>
      </trkpt>
      <trkpt lat="44.90143" lon="-0.09876">
        <ele>27</ele>
        <time>2020-10-29T10:06:46Z</time>
      </trkpt>
      <trkpt lat="44.90145" lon="-0.09882">
        <ele>27</ele>
        <time>2020-10-29T10:07:02Z</time>
      </trkpt>
      <trkpt lat="44.90163" lon="-0.09898">
        <ele>27</ele>
        <time>2020-10-29T10:07:23Z</time>
      </trkpt>
      <trkpt lat="44.90174" lon="-0.09905">
        <ele>27</ele>
        <time>2020-10-29T10:07:40Z</time>
      </trkpt>
      <trkpt lat="44.90175" lon="-0.09907">
        <ele>26</ele>
        <time>2020-10-29T10:07:47Z</time>
      </trkpt>
      <trkpt lat="44.90178" lon="-0.09911">
        <ele>26</ele>
        <time>2020-10-29T10:07:51Z</time>
      </trkpt>
      <trkpt lat="44.90199" lon="-0.09927">
        <ele>26</ele>
        <time>2020-10-29T10:08:12Z</time>
      </trkpt>
      <trkpt lat="44.90203" lon="-0.09929">
        <ele>28</ele>
        <time>2020-10-29T10:08:16Z</time>
      </trkpt>
      <trkpt lat="44.90209" lon="-0.09922">
        <ele>24</ele>
        <time>2020-10-29T10:08:28Z</time>
      </trkpt>
      <trkpt lat="44.9021" lon="-0.09922">
        <ele>30</ele>
        <time>2020-10-29T10:08:29Z</time>
      </trkpt>
      <trkpt lat="44.9021" lon="-0.09922">
        <ele>28</ele>
        <time>2020-10-29T10:08:30Z</time>
      </trkpt>
      <trkpt lat="44.90211" lon="-0.09923">
        <ele>26</ele>
        <time>2020-10-29T10:08:32Z</time>
      </trkpt>
      <trkpt lat="44.9021" lon="-0.0992">
        <ele>26</ele>
        <time>2020-10-29T10:08:52Z</time>
      </trkpt>
      <trkpt lat="44.9021" lon="-0.09913">
        <ele>26</ele>
        <time>2020-10-29T10:08:57Z</time>
      </trkpt>
      <trkpt lat="44.90212" lon="-0.09887">
        <ele>23</ele>
        <time>2020-10-29T10:09:11Z</time>
      </trkpt>
      <trkpt lat="44.90212" lon="-0.09885">
        <ele>29</ele>
        <time>2020-10-29T10:09:12Z</time>
      </trkpt>
      <trkpt lat="44.90213" lon="-0.09869">
        <ele>26</ele>
        <time>2020-10-29T10:09:24Z</time>
      </trkpt>
      <trkpt lat="44.90214" lon="-0.09866">
        <ele>26</ele>
        <time>2020-10-29T10:09:27Z</time>
      </trkpt>
      <trkpt lat="44.90214" lon="-0.09835">
        <ele>25</ele>
        <time>2020-10-29T10:09:43Z</time>
      </trkpt>
      <trkpt lat="44.90217" lon="-0.09801">
        <ele>25</ele>
        <time>2020-10-29T10:10:02Z</time>
      </trkpt>
      <trkpt lat="44.9022" lon="-0.09773">
        <ele>25</ele>
        <time>2020-10-29T10:10:18Z</time>
      </trkpt>
      <trkpt lat="44.90227" lon="-0.09741">
        <ele>27</ele>
        <time>2020-10-29T10:10:33Z</time>
      </trkpt>
      <trkpt lat="44.90228" lon="-0.09735">
        <ele>27</ele>
        <time>2020-10-29T10:10:45Z</time>
      </trkpt>
      <trkpt lat="44.90232" lon="-0.09729">
        <ele>27</ele>
        <time>2020-10-29T10:10:53Z</time>
      </trkpt>
      <trkpt lat="44.90236" lon="-0.09728">
        <ele>27</ele>
        <time>2020-10-29T10:11:10Z</time>
      </trkpt>
      <trkpt lat="44.90237" lon="-0.09727">
        <ele>23</ele>
        <time>2020-10-29T10:11:33Z</time>
      </trkpt>
      <trkpt lat="44.90237" lon="-0.09728">
        <ele>29</ele>
        <time>2020-10-29T10:11:34Z</time>
      </trkpt>
      <trkpt lat="44.90237" lon="-0.09729">
        <ele>29</ele>
        <time>2020-10-29T10:11:35Z</time>
      </trkpt>
      <trkpt lat="44.90238" lon="-0.09731">
        <ele>27</ele>
        <time>2020-10-29T10:11:37Z</time>
      </trkpt>
      <trkpt lat="44.90239" lon="-0.09727">
        <ele>27</ele>
        <time>2020-10-29T10:12:01Z</time>
      </trkpt>
      <trkpt lat="44.90239" lon="-0.09721">
        <ele>27</ele>
        <time>2020-10-29T10:12:16Z</time>
      </trkpt>
      <trkpt lat="44.90247" lon="-0.09714">
        <ele>27</ele>
        <time>2020-10-29T10:12:31Z</time>
      </trkpt>
      <trkpt lat="44.90249" lon="-0.09712">
        <ele>30</ele>
        <time>2020-10-29T10:12:34Z</time>
      </trkpt>
      <trkpt lat="44.90252" lon="-0.09711">
        <ele>28</ele>
        <time>2020-10-29T10:12:37Z</time>
      </trkpt>
      <trkpt lat="44.90256" lon="-0.09707">
        <ele>25</ele>
        <time>2020-10-29T10:12:42Z</time>
      </trkpt>
      <trkpt lat="44.90256" lon="-0.09707">
        <ele>30</ele>
        <time>2020-10-29T10:12:43Z</time>
      </trkpt>
      <trkpt lat="44.90257" lon="-0.09706">
        <ele>26</ele>
        <time>2020-10-29T10:12:44Z</time>
      </trkpt>
      <trkpt lat="44.90258" lon="-0.09705">
        <ele>30</ele>
        <time>2020-10-29T10:12:45Z</time>
      </trkpt>
      <trkpt lat="44.90259" lon="-0.09705">
        <ele>28</ele>
        <time>2020-10-29T10:12:48Z</time>
      </trkpt>
      <trkpt lat="44.90263" lon="-0.09703">
        <ele>28</ele>
        <time>2020-10-29T10:13:04Z</time>
      </trkpt>
      <trkpt lat="44.90276" lon="-0.09694">
        <ele>28</ele>
        <time>2020-10-29T10:13:20Z</time>
      </trkpt>
      <trkpt lat="44.90291" lon="-0.09686">
        <ele>28</ele>
        <time>2020-10-29T10:13:35Z</time>
      </trkpt>
      <trkpt lat="44.90309" lon="-0.09677">
        <ele>29</ele>
        <time>2020-10-29T10:13:52Z</time>
      </trkpt>
      <trkpt lat="44.90323" lon="-0.09668">
        <ele>29</ele>
        <time>2020-10-29T10:14:09Z</time>
      </trkpt>
      <trkpt lat="44.90341" lon="-0.09659">
        <ele>31</ele>
        <time>2020-10-29T10:14:29Z</time>
      </trkpt>
      <trkpt lat="44.90343" lon="-0.09658">
        <ele>32</ele>
        <time>2020-10-29T10:14:32Z</time>
      </trkpt>
      <trkpt lat="44.90345" lon="-0.09658">
        <ele>34</ele>
        <time>2020-10-29T10:14:34Z</time>
      </trkpt>
      <trkpt lat="44.90346" lon="-0.09657">
        <ele>34</ele>
        <time>2020-10-29T10:14:35Z</time>
      </trkpt>
      <trkpt lat="44.90347" lon="-0.09656">
        <ele>32</ele>
        <time>2020-10-29T10:14:37Z</time>
      </trkpt>
      <trkpt lat="44.90357" lon="-0.09659">
        <ele>33</ele>
        <time>2020-10-29T10:14:49Z</time>
      </trkpt>
      <trkpt lat="44.90366" lon="-0.09669">
        <ele>33</ele>
        <time>2020-10-29T10:15:06Z</time>
      </trkpt>
      <trkpt lat="44.90375" lon="-0.09684">
        <ele>33</ele>
        <time>2020-10-29T10:15:23Z</time>
      </trkpt>
      <trkpt lat="44.90377" lon="-0.09687">
        <ele>33</ele>
        <time>2020-10-29T10:15:26Z</time>
      </trkpt>
      <trkpt lat="44.90391" lon="-0.09709">
        <ele>33</ele>
        <time>2020-10-29T10:15:47Z</time>
      </trkpt>
      <trkpt lat="44.90406" lon="-0.09726">
        <ele>35</ele>
        <time>2020-10-29T10:16:06Z</time>
      </trkpt>
      <trkpt lat="44.90422" lon="-0.09731">
        <ele>36</ele>
        <time>2020-10-29T10:16:22Z</time>
      </trkpt>
      <trkpt lat="44.90433" lon="-0.09731">
        <ele>36</ele>
        <time>2020-10-29T10:16:31Z</time>
      </trkpt>
      <trkpt lat="44.90439" lon="-0.09734">
        <ele>36</ele>
        <time>2020-10-29T10:16:37Z</time>
      </trkpt>
      <trkpt lat="44.9045" lon="-0.09735">
        <ele>38</ele>
        <time>2020-10-29T10:16:46Z</time>
      </trkpt>
      <trkpt lat="44.90479" lon="-0.09739">
        <ele>36</ele>
        <time>2020-10-29T10:17:10Z</time>
      </trkpt>
      <trkpt lat="44.90503" lon="-0.09745">
        <ele>36</ele>
        <time>2020-10-29T10:17:30Z</time>
      </trkpt>
      <trkpt lat="44.9053" lon="-0.09752">
        <ele>38</ele>
        <time>2020-10-29T10:17:51Z</time>
      </trkpt>
      <trkpt lat="44.90553" lon="-0.09756">
        <ele>38</ele>
        <time>2020-10-29T10:18:11Z</time>
      </trkpt>
      <trkpt lat="44.90573" lon="-0.09763">
        <ele>39</ele>
        <time>2020-10-29T10:18:32Z</time>
      </trkpt>
      <trkpt lat="44.90575" lon="-0.09763">
        <ele>30</ele>
        <time>2020-10-29T10:18:34Z</time>
      </trkpt>
      <trkpt lat="44.90575" lon="-0.09763">
        <ele>44</ele>
        <time>2020-10-29T10:18:35Z</time>
      </trkpt>
      <trkpt lat="44.90576" lon="-0.09762">
        <ele>40</ele>
        <time>2020-10-29T10:18:37Z</time>
      </trkpt>
      <trkpt lat="44.90578" lon="-0.09762">
        <ele>31</ele>
        <time>2020-10-29T10:18:39Z</time>
      </trkpt>
      <trkpt lat="44.90579" lon="-0.09761">
        <ele>33</ele>
        <time>2020-10-29T10:18:40Z</time>
      </trkpt>
      <trkpt lat="44.9058" lon="-0.09761">
        <ele>42</ele>
        <time>2020-10-29T10:18:41Z</time>
      </trkpt>
      <trkpt lat="44.90581" lon="-0.09761">
        <ele>48</ele>
        <time>2020-10-29T10:18:42Z</time>
      </trkpt>
      <trkpt lat="44.90581" lon="-0.09761">
        <ele>41</ele>
        <time>2020-10-29T10:18:43Z</time>
      </trkpt>
      <trkpt lat="44.90583" lon="-0.09759">
        <ele>40</ele>
        <time>2020-10-29T10:18:45Z</time>
      </trkpt>
      <trkpt lat="44.90592" lon="-0.09754">
        <ele>41</ele>
        <time>2020-10-29T10:18:57Z</time>
      </trkpt>
      <trkpt lat="44.90595" lon="-0.09752">
        <ele>35</ele>
        <time>2020-10-29T10:19:00Z</time>
      </trkpt>
      <trkpt lat="44.90595" lon="-0.09752">
        <ele>43</ele>
        <time>2020-10-29T10:19:01Z</time>
      </trkpt>
      <trkpt lat="44.90597" lon="-0.09751">
        <ele>43</ele>
        <time>2020-10-29T10:19:02Z</time>
      </trkpt>
      <trkpt lat="44.90599" lon="-0.0975">
        <ele>40</ele>
        <time>2020-10-29T10:19:04Z</time>
      </trkpt>
      <trkpt lat="44.90616" lon="-0.0974">
        <ele>42</ele>
        <time>2020-10-29T10:19:22Z</time>
      </trkpt>
      <trkpt lat="44.90629" lon="-0.09732">
        <ele>43</ele>
        <time>2020-10-29T10:19:37Z</time>
      </trkpt>
      <trkpt lat="44.90642" lon="-0.09728">
        <ele>45</ele>
        <time>2020-10-29T10:19:54Z</time>
      </trkpt>
      <trkpt lat="44.90657" lon="-0.09723">
        <ele>47</ele>
        <time>2020-10-29T10:20:11Z</time>
      </trkpt>
      <trkpt lat="44.90671" lon="-0.09723">
        <ele>50</ele>
        <time>2020-10-29T10:20:29Z</time>
      </trkpt>
      <trkpt lat="44.90681" lon="-0.0973">
        <ele>53</ele>
        <time>2020-10-29T10:20:46Z</time>
      </trkpt>
      <trkpt lat="44.90688" lon="-0.0974">
        <ele>55</ele>
        <time>2020-10-29T10:21:00Z</time>
      </trkpt>
      <trkpt lat="44.90691" lon="-0.09756">
        <ele>56</ele>
        <time>2020-10-29T10:21:12Z</time>
      </trkpt>
      <trkpt lat="44.90694" lon="-0.09774">
        <ele>58</ele>
        <time>2020-10-29T10:21:28Z</time>
      </trkpt>
      <trkpt lat="44.90696" lon="-0.09788">
        <ele>58</ele>
        <time>2020-10-29T10:21:45Z</time>
      </trkpt>
      <trkpt lat="44.90696" lon="-0.09795">
        <ele>58</ele>
        <time>2020-10-29T10:21:56Z</time>
      </trkpt>
      <trkpt lat="44.90703" lon="-0.09804">
        <ele>58</ele>
        <time>2020-10-29T10:22:16Z</time>
      </trkpt>
      <trkpt lat="44.90705" lon="-0.09808">
        <ele>60</ele>
        <time>2020-10-29T10:22:21Z</time>
      </trkpt>
      <trkpt lat="44.90706" lon="-0.09809">
        <ele>58</ele>
        <time>2020-10-29T10:22:24Z</time>
      </trkpt>
      <trkpt lat="44.90707" lon="-0.09812">
        <ele>58</ele>
        <time>2020-10-29T10:22:39Z</time>
      </trkpt>
      <trkpt lat="44.90709" lon="-0.09812">
        <ele>58</ele>
        <time>2020-10-29T10:22:55Z</time>
      </trkpt>
      <trkpt lat="44.90708" lon="-0.09806">
        <ele>58</ele>
        <time>2020-10-29T10:23:09Z</time>
      </trkpt>
      <trkpt lat="44.90708" lon="-0.09803">
        <ele>58</ele>
        <time>2020-10-29T10:23:12Z</time>
      </trkpt>
      <trkpt lat="44.90706" lon="-0.09792">
        <ele>58</ele>
        <time>2020-10-29T10:23:26Z</time>
      </trkpt>
      <trkpt lat="44.90705" lon="-0.09783">
        <ele>58</ele>
        <time>2020-10-29T10:23:40Z</time>
      </trkpt>
      <trkpt lat="44.9071" lon="-0.09778">
        <ele>59</ele>
        <time>2020-10-29T10:23:52Z</time>
      </trkpt>
      <trkpt lat="44.90713" lon="-0.09767">
        <ele>60</ele>
        <time>2020-10-29T10:24:07Z</time>
      </trkpt>
      <trkpt lat="44.90711" lon="-0.09764">
        <ele>60</ele>
        <time>2020-10-29T10:24:26Z</time>
      </trkpt>
      <trkpt lat="44.90714" lon="-0.09775">
        <ele>60</ele>
        <time>2020-10-29T10:24:39Z</time>
      </trkpt>
      <trkpt lat="44.90708" lon="-0.0978">
        <ele>59</ele>
        <time>2020-10-29T10:24:52Z</time>
      </trkpt>
      <trkpt lat="44.90702" lon="-0.09773">
        <ele>59</ele>
        <time>2020-10-29T10:25:06Z</time>
      </trkpt>
      <trkpt lat="44.90699" lon="-0.0976">
        <ele>59</ele>
        <time>2020-10-29T10:25:16Z</time>
      </trkpt>
      <trkpt lat="44.90698" lon="-0.09745">
        <ele>59</ele>
        <time>2020-10-29T10:25:29Z</time>
      </trkpt>
      <trkpt lat="44.90699" lon="-0.09747">
        <ele>59</ele>
        <time>2020-10-29T10:25:32Z</time>
      </trkpt>
      <trkpt lat="44.90699" lon="-0.09753">
        <ele>59</ele>
        <time>2020-10-29T10:25:37Z</time>
      </trkpt>
      <trkpt lat="44.90699" lon="-0.0976">
        <ele>59</ele>
        <time>2020-10-29T10:25:50Z</time>
      </trkpt>
      <trkpt lat="44.90701" lon="-0.09773">
        <ele>59</ele>
        <time>2020-10-29T10:26:01Z</time>
      </trkpt>
      <trkpt lat="44.90708" lon="-0.09794">
        <ele>59</ele>
        <time>2020-10-29T10:26:15Z</time>
      </trkpt>
      <trkpt lat="44.90709" lon="-0.09799">
        <ele>59</ele>
        <time>2020-10-29T10:26:19Z</time>
      </trkpt>
      <trkpt lat="44.9071" lon="-0.0981">
        <ele>59</ele>
        <time>2020-10-29T10:26:31Z</time>
      </trkpt>
      <trkpt lat="44.90712" lon="-0.09818">
        <ele>59</ele>
        <time>2020-10-29T10:26:36Z</time>
      </trkpt>
      <trkpt lat="44.90725" lon="-0.09821">
        <ele>59</ele>
        <time>2020-10-29T10:26:49Z</time>
      </trkpt>
      <trkpt lat="44.9074" lon="-0.09821">
        <ele>59</ele>
        <time>2020-10-29T10:27:01Z</time>
      </trkpt>
      <trkpt lat="44.90755" lon="-0.09816">
        <ele>61</ele>
        <time>2020-10-29T10:27:15Z</time>
      </trkpt>
      <trkpt lat="44.90772" lon="-0.09812">
        <ele>61</ele>
        <time>2020-10-29T10:27:27Z</time>
      </trkpt>
      <trkpt lat="44.90778" lon="-0.0981">
        <ele>61</ele>
        <time>2020-10-29T10:27:32Z</time>
      </trkpt>
      <trkpt lat="44.90795" lon="-0.09808">
        <ele>61</ele>
        <time>2020-10-29T10:27:48Z</time>
      </trkpt>
      <trkpt lat="44.90809" lon="-0.09804">
        <ele>62</ele>
        <time>2020-10-29T10:28:05Z</time>
      </trkpt>
      <trkpt lat="44.90823" lon="-0.09797">
        <ele>62</ele>
        <time>2020-10-29T10:28:17Z</time>
      </trkpt>
      <trkpt lat="44.90834" lon="-0.09788">
        <ele>62</ele>
        <time>2020-10-29T10:28:27Z</time>
      </trkpt>
      <trkpt lat="44.90835" lon="-0.09787">
        <ele>62</ele>
        <time>2020-10-29T10:28:28Z</time>
      </trkpt>
      <trkpt lat="44.90837" lon="-0.09785">
        <ele>62</ele>
        <time>2020-10-29T10:28:29Z</time>
      </trkpt>
      <trkpt lat="44.90838" lon="-0.09784">
        <ele>62</ele>
        <time>2020-10-29T10:28:30Z</time>
      </trkpt>
      <trkpt lat="44.90839" lon="-0.09783">
        <ele>62</ele>
        <time>2020-10-29T10:28:31Z</time>
      </trkpt>
      <trkpt lat="44.90841" lon="-0.09782">
        <ele>62</ele>
        <time>2020-10-29T10:28:32Z</time>
      </trkpt>
      <trkpt lat="44.90863" lon="-0.09756">
        <ele>62</ele>
        <time>2020-10-29T10:28:51Z</time>
      </trkpt>
      <trkpt lat="44.90864" lon="-0.0973">
        <ele>61</ele>
        <time>2020-10-29T10:29:04Z</time>
      </trkpt>
      <trkpt lat="44.9086" lon="-0.09723">
        <ele>61</ele>
        <time>2020-10-29T10:29:11Z</time>
      </trkpt>
      <trkpt lat="44.90859" lon="-0.09722">
        <ele>61</ele>
        <time>2020-10-29T10:29:12Z</time>
      </trkpt>
      <trkpt lat="44.90858" lon="-0.09721">
        <ele>61</ele>
        <time>2020-10-29T10:29:13Z</time>
      </trkpt>
      <trkpt lat="44.90857" lon="-0.0972">
        <ele>60</ele>
        <time>2020-10-29T10:29:14Z</time>
      </trkpt>
      <trkpt lat="44.90856" lon="-0.09718">
        <ele>60</ele>
        <time>2020-10-29T10:29:15Z</time>
      </trkpt>
      <trkpt lat="44.90855" lon="-0.09717">
        <ele>60</ele>
        <time>2020-10-29T10:29:16Z</time>
      </trkpt>
      <trkpt lat="44.90854" lon="-0.09717">
        <ele>60</ele>
        <time>2020-10-29T10:29:17Z</time>
      </trkpt>
      <trkpt lat="44.90845" lon="-0.09707">
        <ele>59</ele>
        <time>2020-10-29T10:29:32Z</time>
      </trkpt>
      <trkpt lat="44.90844" lon="-0.09705">
        <ele>58</ele>
        <time>2020-10-29T10:29:55Z</time>
      </trkpt>
      <trkpt lat="44.90838" lon="-0.097">
        <ele>58</ele>
        <time>2020-10-29T10:30:07Z</time>
      </trkpt>
      <trkpt lat="44.90837" lon="-0.097">
        <ele>58</ele>
        <time>2020-10-29T10:30:33Z</time>
      </trkpt>
      <trkpt lat="44.90829" lon="-0.09695">
        <ele>57</ele>
        <time>2020-10-29T10:30:43Z</time>
      </trkpt>
      <trkpt lat="44.90827" lon="-0.09693">
        <ele>57</ele>
        <time>2020-10-29T10:30:44Z</time>
      </trkpt>
      <trkpt lat="44.90811" lon="-0.09684">
        <ele>57</ele>
        <time>2020-10-29T10:30:59Z</time>
      </trkpt>
      <trkpt lat="44.90794" lon="-0.09666">
        <ele>56</ele>
        <time>2020-10-29T10:31:16Z</time>
      </trkpt>
      <trkpt lat="44.90792" lon="-0.09663">
        <ele>45</ele>
        <time>2020-10-29T10:31:18Z</time>
      </trkpt>
      <trkpt lat="44.90791" lon="-0.09663">
        <ele>61</ele>
        <time>2020-10-29T10:31:19Z</time>
      </trkpt>
      <trkpt lat="44.9079" lon="-0.09662">
        <ele>61</ele>
        <time>2020-10-29T10:31:20Z</time>
      </trkpt>
      <trkpt lat="44.90789" lon="-0.09661">
        <ele>56</ele>
        <time>2020-10-29T10:31:21Z</time>
      </trkpt>
      <trkpt lat="44.90787" lon="-0.0966">
        <ele>55</ele>
        <time>2020-10-29T10:31:23Z</time>
      </trkpt>
      <trkpt lat="44.90772" lon="-0.09639">
        <ele>53</ele>
        <time>2020-10-29T10:31:45Z</time>
      </trkpt>
      <trkpt lat="44.90759" lon="-0.09619">
        <ele>51</ele>
        <time>2020-10-29T10:32:04Z</time>
      </trkpt>
      <trkpt lat="44.90744" lon="-0.09598">
        <ele>48</ele>
        <time>2020-10-29T10:32:24Z</time>
      </trkpt>
      <trkpt lat="44.90735" lon="-0.09584">
        <ele>44</ele>
        <time>2020-10-29T10:32:38Z</time>
      </trkpt>
      <trkpt lat="44.90734" lon="-0.09582">
        <ele>48</ele>
        <time>2020-10-29T10:32:39Z</time>
      </trkpt>
      <trkpt lat="44.90732" lon="-0.0958">
        <ele>46</ele>
        <time>2020-10-29T10:32:42Z</time>
      </trkpt>
      <trkpt lat="44.90729" lon="-0.09573">
        <ele>45</ele>
        <time>2020-10-29T10:32:50Z</time>
      </trkpt>
      <trkpt lat="44.90729" lon="-0.09571">
        <ele>45</ele>
        <time>2020-10-29T10:32:51Z</time>
      </trkpt>
      <trkpt lat="44.90722" lon="-0.09569">
        <ele>45</ele>
        <time>2020-10-29T10:33:00Z</time>
      </trkpt>
      <trkpt lat="44.90717" lon="-0.0957">
        <ele>45</ele>
        <time>2020-10-29T10:33:04Z</time>
      </trkpt>
      <trkpt lat="44.907" lon="-0.09582">
        <ele>45</ele>
        <time>2020-10-29T10:33:18Z</time>
      </trkpt>
      <trkpt lat="44.90685" lon="-0.09598">
        <ele>46</ele>
        <time>2020-10-29T10:33:35Z</time>
      </trkpt>
      <trkpt lat="44.90674" lon="-0.09612">
        <ele>46</ele>
        <time>2020-10-29T10:33:48Z</time>
      </trkpt>
      <trkpt lat="44.90666" lon="-0.09624">
        <ele>47</ele>
        <time>2020-10-29T10:34:00Z</time>
      </trkpt>
      <trkpt lat="44.90651" lon="-0.09637">
        <ele>47</ele>
        <time>2020-10-29T10:34:13Z</time>
      </trkpt>
      <trkpt lat="44.9065" lon="-0.0964">
        <ele>47</ele>
        <time>2020-10-29T10:34:15Z</time>
      </trkpt>
      <trkpt lat="44.9065" lon="-0.09643">
        <ele>47</ele>
        <time>2020-10-29T10:34:17Z</time>
      </trkpt>
      <trkpt lat="44.90649" lon="-0.09644">
        <ele>47</ele>
        <time>2020-10-29T10:34:18Z</time>
      </trkpt>
      <trkpt lat="44.90648" lon="-0.09645">
        <ele>47</ele>
        <time>2020-10-29T10:34:19Z</time>
      </trkpt>
      <trkpt lat="44.90647" lon="-0.09645">
        <ele>47</ele>
        <time>2020-10-29T10:34:20Z</time>
      </trkpt>
      <trkpt lat="44.90646" lon="-0.09646">
        <ele>47</ele>
        <time>2020-10-29T10:34:21Z</time>
      </trkpt>
      <trkpt lat="44.90645" lon="-0.09647">
        <ele>47</ele>
        <time>2020-10-29T10:34:22Z</time>
      </trkpt>
      <trkpt lat="44.90645" lon="-0.09648">
        <ele>47</ele>
        <time>2020-10-29T10:34:23Z</time>
      </trkpt>
      <trkpt lat="44.90635" lon="-0.09661">
        <ele>47</ele>
        <time>2020-10-29T10:34:38Z</time>
      </trkpt>
      <trkpt lat="44.90631" lon="-0.09666">
        <ele>45</ele>
        <time>2020-10-29T10:34:42Z</time>
      </trkpt>
      <trkpt lat="44.90621" lon="-0.09681">
        <ele>45</ele>
        <time>2020-10-29T10:34:53Z</time>
      </trkpt>
      <trkpt lat="44.90621" lon="-0.09682">
        <ele>45</ele>
        <time>2020-10-29T10:34:54Z</time>
      </trkpt>
      <trkpt lat="44.9062" lon="-0.09685">
        <ele>45</ele>
        <time>2020-10-29T10:34:55Z</time>
      </trkpt>
      <trkpt lat="44.90619" lon="-0.09686">
        <ele>45</ele>
        <time>2020-10-29T10:34:56Z</time>
      </trkpt>
      <trkpt lat="44.90618" lon="-0.09692">
        <ele>45</ele>
        <time>2020-10-29T10:35:00Z</time>
      </trkpt>
      <trkpt lat="44.90618" lon="-0.09694">
        <ele>45</ele>
        <time>2020-10-29T10:35:01Z</time>
      </trkpt>
      <trkpt lat="44.90618" lon="-0.09716">
        <ele>44</ele>
        <time>2020-10-29T10:35:14Z</time>
      </trkpt>
      <trkpt lat="44.90618" lon="-0.09718">
        <ele>43</ele>
        <time>2020-10-29T10:35:15Z</time>
      </trkpt>
      <trkpt lat="44.90618" lon="-0.0972">
        <ele>43</ele>
        <time>2020-10-29T10:35:16Z</time>
      </trkpt>
      <trkpt lat="44.90613" lon="-0.09736">
        <ele>42</ele>
        <time>2020-10-29T10:35:27Z</time>
      </trkpt>
      <trkpt lat="44.90612" lon="-0.09738">
        <ele>41</ele>
        <time>2020-10-29T10:35:28Z</time>
      </trkpt>
      <trkpt lat="44.90606" lon="-0.09742">
        <ele>41</ele>
        <time>2020-10-29T10:35:33Z</time>
      </trkpt>
      <trkpt lat="44.90605" lon="-0.09742">
        <ele>41</ele>
        <time>2020-10-29T10:35:34Z</time>
      </trkpt>
      <trkpt lat="44.90592" lon="-0.09749">
        <ele>40</ele>
        <time>2020-10-29T10:35:45Z</time>
      </trkpt>
      <trkpt lat="44.90573" lon="-0.09757">
        <ele>38</ele>
        <time>2020-10-29T10:36:00Z</time>
      </trkpt>
      <trkpt lat="44.90568" lon="-0.09757">
        <ele>38</ele>
        <time>2020-10-29T10:36:11Z</time>
      </trkpt>
      <trkpt lat="44.90566" lon="-0.09757">
        <ele>38</ele>
        <time>2020-10-29T10:36:12Z</time>
      </trkpt>
      <trkpt lat="44.90565" lon="-0.09757">
        <ele>38</ele>
        <time>2020-10-29T10:36:13Z</time>
      </trkpt>
      <trkpt lat="44.90564" lon="-0.09757">
        <ele>38</ele>
        <time>2020-10-29T10:36:14Z</time>
      </trkpt>
      <trkpt lat="44.90549" lon="-0.09757">
        <ele>37</ele>
        <time>2020-10-29T10:36:29Z</time>
      </trkpt>
      <trkpt lat="44.90532" lon="-0.09754">
        <ele>37</ele>
        <time>2020-10-29T10:36:40Z</time>
      </trkpt>
      <trkpt lat="44.9051" lon="-0.09746">
        <ele>37</ele>
        <time>2020-10-29T10:36:57Z</time>
      </trkpt>
      <trkpt lat="44.90495" lon="-0.09742">
        <ele>36</ele>
        <time>2020-10-29T10:37:13Z</time>
      </trkpt>
      <trkpt lat="44.90477" lon="-0.09739">
        <ele>36</ele>
        <time>2020-10-29T10:37:32Z</time>
      </trkpt>
      <trkpt lat="44.90476" lon="-0.09739">
        <ele>36</ele>
        <time>2020-10-29T10:37:33Z</time>
      </trkpt>
      <trkpt lat="44.90453" lon="-0.09733">
        <ele>35</ele>
        <time>2020-10-29T10:37:47Z</time>
      </trkpt>
      <trkpt lat="44.90426" lon="-0.09725">
        <ele>35</ele>
        <time>2020-10-29T10:38:04Z</time>
      </trkpt>
      <trkpt lat="44.90414" lon="-0.09727">
        <ele>34</ele>
        <time>2020-10-29T10:38:19Z</time>
      </trkpt>
      <trkpt lat="44.904" lon="-0.0972">
        <ele>33</ele>
        <time>2020-10-29T10:38:34Z</time>
      </trkpt>
      <trkpt lat="44.90386" lon="-0.097">
        <ele>33</ele>
        <time>2020-10-29T10:38:52Z</time>
      </trkpt>
      <trkpt lat="44.90383" lon="-0.09696">
        <ele>33</ele>
        <time>2020-10-29T10:38:55Z</time>
      </trkpt>
      <trkpt lat="44.90379" lon="-0.09689">
        <ele>33</ele>
        <time>2020-10-29T10:38:59Z</time>
      </trkpt>
      <trkpt lat="44.90362" lon="-0.09656">
        <ele>33</ele>
        <time>2020-10-29T10:39:17Z</time>
      </trkpt>
      <trkpt lat="44.9035" lon="-0.09641">
        <ele>32</ele>
        <time>2020-10-29T10:39:34Z</time>
      </trkpt>
      <trkpt lat="44.90347" lon="-0.09636">
        <ele>32</ele>
        <time>2020-10-29T10:39:38Z</time>
      </trkpt>
      <trkpt lat="44.90343" lon="-0.09624">
        <ele>32</ele>
        <time>2020-10-29T10:39:43Z</time>
      </trkpt>
      <trkpt lat="44.90338" lon="-0.09594">
        <ele>31</ele>
        <time>2020-10-29T10:39:57Z</time>
      </trkpt>
      <trkpt lat="44.90336" lon="-0.09591">
        <ele>31</ele>
        <time>2020-10-29T10:40:01Z</time>
      </trkpt>
      <trkpt lat="44.90328" lon="-0.09568">
        <ele>30</ele>
        <time>2020-10-29T10:40:16Z</time>
      </trkpt>
      <trkpt lat="44.90324" lon="-0.09548">
        <ele>30</ele>
        <time>2020-10-29T10:40:24Z</time>
      </trkpt>
      <trkpt lat="44.90315" lon="-0.09534">
        <ele>29</ele>
        <time>2020-10-29T10:40:40Z</time>
      </trkpt>
      <trkpt lat="44.90306" lon="-0.09531">
        <ele>29</ele>
        <time>2020-10-29T10:40:48Z</time>
      </trkpt>
      <trkpt lat="44.90276" lon="-0.09533">
        <ele>29</ele>
        <time>2020-10-29T10:41:05Z</time>
      </trkpt>
      <trkpt lat="44.90265" lon="-0.09533">
        <ele>29</ele>
        <time>2020-10-29T10:41:18Z</time>
      </trkpt>
      <trkpt lat="44.9026" lon="-0.09534">
        <ele>29</ele>
        <time>2020-10-29T10:41:31Z</time>
      </trkpt>
      <trkpt lat="44.9026" lon="-0.09533">
        <ele>29</ele>
        <time>2020-10-29T10:41:33Z</time>
      </trkpt>
      <trkpt lat="44.90239" lon="-0.09533">
        <ele>29</ele>
        <time>2020-10-29T10:41:46Z</time>
      </trkpt>
      <trkpt lat="44.90225" lon="-0.09536">
        <ele>29</ele>
        <time>2020-10-29T10:42:01Z</time>
      </trkpt>
      <trkpt lat="44.90211" lon="-0.09536">
        <ele>29</ele>
        <time>2020-10-29T10:42:11Z</time>
      </trkpt>
      <trkpt lat="44.90195" lon="-0.09537">
        <ele>29</ele>
        <time>2020-10-29T10:42:26Z</time>
      </trkpt>
      <trkpt lat="44.90172" lon="-0.09541">
        <ele>29</ele>
        <time>2020-10-29T10:42:42Z</time>
      </trkpt>
      <trkpt lat="44.90153" lon="-0.09539">
        <ele>29</ele>
        <time>2020-10-29T10:42:58Z</time>
      </trkpt>
      <trkpt lat="44.90147" lon="-0.09541">
        <ele>29</ele>
        <time>2020-10-29T10:43:05Z</time>
      </trkpt>
      <trkpt lat="44.90141" lon="-0.09543">
        <ele>29</ele>
        <time>2020-10-29T10:43:09Z</time>
      </trkpt>
      <trkpt lat="44.90116" lon="-0.09543">
        <ele>29</ele>
        <time>2020-10-29T10:43:25Z</time>
      </trkpt>
      <trkpt lat="44.90114" lon="-0.09543">
        <ele>28</ele>
        <time>2020-10-29T10:43:27Z</time>
      </trkpt>
      <trkpt lat="44.90097" lon="-0.09547">
        <ele>29</ele>
        <time>2020-10-29T10:43:41Z</time>
      </trkpt>
      <trkpt lat="44.90075" lon="-0.09547">
        <ele>29</ele>
        <time>2020-10-29T10:44:00Z</time>
      </trkpt>
      <trkpt lat="44.90068" lon="-0.09547">
        <ele>24</ele>
        <time>2020-10-29T10:44:05Z</time>
      </trkpt>
      <trkpt lat="44.90067" lon="-0.09548">
        <ele>26</ele>
        <time>2020-10-29T10:44:06Z</time>
      </trkpt>
      <trkpt lat="44.90066" lon="-0.09548">
        <ele>31</ele>
        <time>2020-10-29T10:44:07Z</time>
      </trkpt>
      <trkpt lat="44.90065" lon="-0.09548">
        <ele>26</ele>
        <time>2020-10-29T10:44:08Z</time>
      </trkpt>
      <trkpt lat="44.90062" lon="-0.09546">
        <ele>30</ele>
        <time>2020-10-29T10:44:11Z</time>
      </trkpt>
      <trkpt lat="44.90043" lon="-0.09545">
        <ele>28</ele>
        <time>2020-10-29T10:44:25Z</time>
      </trkpt>
      <trkpt lat="44.90025" lon="-0.09537">
        <ele>28</ele>
        <time>2020-10-29T10:44:41Z</time>
      </trkpt>
      <trkpt lat="44.90013" lon="-0.09532">
        <ele>28</ele>
        <time>2020-10-29T10:44:57Z</time>
      </trkpt>
      <trkpt lat="44.90009" lon="-0.0953">
        <ele>28</ele>
        <time>2020-10-29T10:45:18Z</time>
      </trkpt>
      <trkpt lat="44.90001" lon="-0.09529">
        <ele>28</ele>
        <time>2020-10-29T10:45:26Z</time>
      </trkpt>
      <trkpt lat="44.89976" lon="-0.09522">
        <ele>29</ele>
        <time>2020-10-29T10:45:48Z</time>
      </trkpt>
      <trkpt lat="44.8996" lon="-0.09513">
        <ele>30</ele>
        <time>2020-10-29T10:46:01Z</time>
      </trkpt>
      <trkpt lat="44.89949" lon="-0.09511">
        <ele>30</ele>
        <time>2020-10-29T10:46:14Z</time>
      </trkpt>
      <trkpt lat="44.89938" lon="-0.09507">
        <ele>31</ele>
        <time>2020-10-29T10:46:25Z</time>
      </trkpt>
      <trkpt lat="44.89935" lon="-0.09505">
        <ele>32</ele>
        <time>2020-10-29T10:46:29Z</time>
      </trkpt>
      <trkpt lat="44.89918" lon="-0.095">
        <ele>32</ele>
        <time>2020-10-29T10:46:42Z</time>
      </trkpt>
      <trkpt lat="44.89908" lon="-0.09495">
        <ele>32</ele>
        <time>2020-10-29T10:46:52Z</time>
      </trkpt>
      <trkpt lat="44.89906" lon="-0.09494">
        <ele>32</ele>
        <time>2020-10-29T10:46:53Z</time>
      </trkpt>
      <trkpt lat="44.89905" lon="-0.09494">
        <ele>32</ele>
        <time>2020-10-29T10:46:54Z</time>
      </trkpt>
      <trkpt lat="44.89903" lon="-0.09494">
        <ele>33</ele>
        <time>2020-10-29T10:46:55Z</time>
      </trkpt>
      <trkpt lat="44.89902" lon="-0.09493">
        <ele>33</ele>
        <time>2020-10-29T10:46:56Z</time>
      </trkpt>
      <trkpt lat="44.89901" lon="-0.09493">
        <ele>33</ele>
        <time>2020-10-29T10:46:57Z</time>
      </trkpt>
      <trkpt lat="44.899" lon="-0.09493">
        <ele>33</ele>
        <time>2020-10-29T10:46:58Z</time>
      </trkpt>
      <trkpt lat="44.89887" lon="-0.09489">
        <ele>34</ele>
        <time>2020-10-29T10:47:13Z</time>
      </trkpt>
      <trkpt lat="44.89873" lon="-0.09483">
        <ele>35</ele>
        <time>2020-10-29T10:47:28Z</time>
      </trkpt>
      <trkpt lat="44.89854" lon="-0.09476">
        <ele>36</ele>
        <time>2020-10-29T10:47:43Z</time>
      </trkpt>
      <trkpt lat="44.89825" lon="-0.0946">
        <ele>36</ele>
        <time>2020-10-29T10:48:01Z</time>
      </trkpt>
      <trkpt lat="44.89807" lon="-0.09453">
        <ele>37</ele>
        <time>2020-10-29T10:48:13Z</time>
      </trkpt>
      <trkpt lat="44.89792" lon="-0.09443">
        <ele>38</ele>
        <time>2020-10-29T10:48:28Z</time>
      </trkpt>
      <trkpt lat="44.89782" lon="-0.09431">
        <ele>38</ele>
        <time>2020-10-29T10:48:46Z</time>
      </trkpt>
      <trkpt lat="44.89767" lon="-0.09421">
        <ele>38</ele>
        <time>2020-10-29T10:48:56Z</time>
      </trkpt>
      <trkpt lat="44.89748" lon="-0.09397">
        <ele>38</ele>
        <time>2020-10-29T10:49:11Z</time>
      </trkpt>
      <trkpt lat="44.8974" lon="-0.09385">
        <ele>39</ele>
        <time>2020-10-29T10:49:23Z</time>
      </trkpt>
      <trkpt lat="44.89728" lon="-0.09364">
        <ele>39</ele>
        <time>2020-10-29T10:49:37Z</time>
      </trkpt>
      <trkpt lat="44.8972" lon="-0.09353">
        <ele>39</ele>
        <time>2020-10-29T10:49:48Z</time>
      </trkpt>
      <trkpt lat="44.89706" lon="-0.09332">
        <ele>39</ele>
        <time>2020-10-29T10:50:02Z</time>
      </trkpt>
      <trkpt lat="44.89694" lon="-0.09312">
        <ele>40</ele>
        <time>2020-10-29T10:50:17Z</time>
      </trkpt>
      <trkpt lat="44.89688" lon="-0.09305">
        <ele>40</ele>
        <time>2020-10-29T10:50:26Z</time>
      </trkpt>
      <trkpt lat="44.89686" lon="-0.09304">
        <ele>40</ele>
        <time>2020-10-29T10:50:27Z</time>
      </trkpt>
      <trkpt lat="44.89682" lon="-0.09301">
        <ele>40</ele>
        <time>2020-10-29T10:50:30Z</time>
      </trkpt>
      <trkpt lat="44.89679" lon="-0.09298">
        <ele>40</ele>
        <time>2020-10-29T10:50:35Z</time>
      </trkpt>
      <trkpt lat="44.89678" lon="-0.09297">
        <ele>40</ele>
        <time>2020-10-29T10:50:36Z</time>
      </trkpt>
      <trkpt lat="44.89677" lon="-0.09296">
        <ele>40</ele>
        <time>2020-10-29T10:50:37Z</time>
      </trkpt>
      <trkpt lat="44.89676" lon="-0.09295">
        <ele>40</ele>
        <time>2020-10-29T10:50:38Z</time>
      </trkpt>
      <trkpt lat="44.89674" lon="-0.09294">
        <ele>40</ele>
        <time>2020-10-29T10:50:39Z</time>
      </trkpt>
      <trkpt lat="44.89653" lon="-0.09272">
        <ele>40</ele>
        <time>2020-10-29T10:50:53Z</time>
      </trkpt>
      <trkpt lat="44.89647" lon="-0.09266">
        <ele>40</ele>
        <time>2020-10-29T10:51:07Z</time>
      </trkpt>
      <trkpt lat="44.8964" lon="-0.0926">
        <ele>41</ele>
        <time>2020-10-29T10:51:17Z</time>
      </trkpt>
      <trkpt lat="44.89638" lon="-0.09259">
        <ele>41</ele>
        <time>2020-10-29T10:51:18Z</time>
      </trkpt>
      <trkpt lat="44.89618" lon="-0.09241">
        <ele>41</ele>
        <time>2020-10-29T10:51:30Z</time>
      </trkpt>
      <trkpt lat="44.896" lon="-0.09227">
        <ele>41</ele>
        <time>2020-10-29T10:51:44Z</time>
      </trkpt>
      <trkpt lat="44.89578" lon="-0.09209">
        <ele>42</ele>
        <time>2020-10-29T10:52:01Z</time>
      </trkpt>
      <trkpt lat="44.89568" lon="-0.09204">
        <ele>42</ele>
        <time>2020-10-29T10:52:15Z</time>
      </trkpt>
      <trkpt lat="44.89552" lon="-0.09195">
        <ele>43</ele>
        <time>2020-10-29T10:52:28Z</time>
      </trkpt>
      <trkpt lat="44.89529" lon="-0.09177">
        <ele>43</ele>
        <time>2020-10-29T10:52:43Z</time>
      </trkpt>
      <trkpt lat="44.89513" lon="-0.09167">
        <ele>43</ele>
        <time>2020-10-29T10:53:00Z</time>
      </trkpt>
      <trkpt lat="44.89495" lon="-0.09154">
        <ele>44</ele>
        <time>2020-10-29T10:53:15Z</time>
      </trkpt>
      <trkpt lat="44.89493" lon="-0.09152">
        <ele>44</ele>
        <time>2020-10-29T10:53:17Z</time>
      </trkpt>
      <trkpt lat="44.89492" lon="-0.09151">
        <ele>44</ele>
        <time>2020-10-29T10:53:18Z</time>
      </trkpt>
      <trkpt lat="44.8949" lon="-0.0915">
        <ele>44</ele>
        <time>2020-10-29T10:53:19Z</time>
      </trkpt>
      <trkpt lat="44.89489" lon="-0.0915">
        <ele>44</ele>
        <time>2020-10-29T10:53:20Z</time>
      </trkpt>
      <trkpt lat="44.89488" lon="-0.09149">
        <ele>44</ele>
        <time>2020-10-29T10:53:21Z</time>
      </trkpt>
      <trkpt lat="44.89486" lon="-0.09149">
        <ele>44</ele>
        <time>2020-10-29T10:53:22Z</time>
      </trkpt>
      <trkpt lat="44.89471" lon="-0.09152">
        <ele>41</ele>
        <time>2020-10-29T10:53:33Z</time>
      </trkpt>
      <trkpt lat="44.8947" lon="-0.09153">
        <ele>41</ele>
        <time>2020-10-29T10:53:34Z</time>
      </trkpt>
      <trkpt lat="44.89469" lon="-0.09154">
        <ele>48</ele>
        <time>2020-10-29T10:53:35Z</time>
      </trkpt>
      <trkpt lat="44.89468" lon="-0.09154">
        <ele>48</ele>
        <time>2020-10-29T10:53:36Z</time>
      </trkpt>
      <trkpt lat="44.89467" lon="-0.09156">
        <ele>45</ele>
        <time>2020-10-29T10:53:38Z</time>
      </trkpt>
      <trkpt lat="44.89466" lon="-0.09158">
        <ele>44</ele>
        <time>2020-10-29T10:53:39Z</time>
      </trkpt>
      <trkpt lat="44.89453" lon="-0.09183">
        <ele>44</ele>
        <time>2020-10-29T10:53:55Z</time>
      </trkpt>
      <trkpt lat="44.89444" lon="-0.09198">
        <ele>44</ele>
        <time>2020-10-29T10:54:11Z</time>
      </trkpt>
      <trkpt lat="44.89443" lon="-0.09199">
        <ele>44</ele>
        <time>2020-10-29T10:54:13Z</time>
      </trkpt>
      <trkpt lat="44.8942" lon="-0.09224">
        <ele>44</ele>
        <time>2020-10-29T10:54:35Z</time>
      </trkpt>
      <trkpt lat="44.89415" lon="-0.0923">
        <ele>45</ele>
        <time>2020-10-29T10:54:40Z</time>
      </trkpt>
      <trkpt lat="44.89391" lon="-0.0925">
        <ele>47</ele>
        <time>2020-10-29T10:55:01Z</time>
      </trkpt>
      <trkpt lat="44.89364" lon="-0.09273">
        <ele>48</ele>
        <time>2020-10-29T10:55:25Z</time>
      </trkpt>
      <trkpt lat="44.8934" lon="-0.09293">
        <ele>51</ele>
        <time>2020-10-29T10:55:47Z</time>
      </trkpt>
      <trkpt lat="44.89333" lon="-0.0931">
        <ele>52</ele>
        <time>2020-10-29T10:56:01Z</time>
      </trkpt>
      <trkpt lat="44.89338" lon="-0.09341">
        <ele>53</ele>
        <time>2020-10-29T10:56:18Z</time>
      </trkpt>
      <trkpt lat="44.89342" lon="-0.09367">
        <ele>55</ele>
        <time>2020-10-29T10:56:34Z</time>
      </trkpt>
      <trkpt lat="44.89342" lon="-0.09369">
        <ele>55</ele>
        <time>2020-10-29T10:56:35Z</time>
      </trkpt>
      <trkpt lat="44.89339" lon="-0.09375">
        <ele>55</ele>
        <time>2020-10-29T10:56:39Z</time>
      </trkpt>
      <trkpt lat="44.8933" lon="-0.09404">
        <ele>56</ele>
        <time>2020-10-29T10:56:57Z</time>
      </trkpt>
      <trkpt lat="44.89323" lon="-0.09417">
        <ele>54</ele>
        <time>2020-10-29T10:57:10Z</time>
      </trkpt>
      <trkpt lat="44.89301" lon="-0.09427">
        <ele>53</ele>
        <time>2020-10-29T10:57:23Z</time>
      </trkpt>
      <trkpt lat="44.89283" lon="-0.0944">
        <ele>53</ele>
        <time>2020-10-29T10:57:40Z</time>
      </trkpt>
      <trkpt lat="44.89259" lon="-0.0946">
        <ele>53</ele>
        <time>2020-10-29T10:57:56Z</time>
      </trkpt>
      <trkpt lat="44.89251" lon="-0.0947">
        <ele>53</ele>
        <time>2020-10-29T10:58:10Z</time>
      </trkpt>
      <trkpt lat="44.89232" lon="-0.09491">
        <ele>53</ele>
        <time>2020-10-29T10:58:25Z</time>
      </trkpt>
      <trkpt lat="44.8922" lon="-0.09504">
        <ele>53</ele>
        <time>2020-10-29T10:58:39Z</time>
      </trkpt>
      <trkpt lat="44.89199" lon="-0.09522">
        <ele>53</ele>
        <time>2020-10-29T10:58:53Z</time>
      </trkpt>
      <trkpt lat="44.89187" lon="-0.09533">
        <ele>51</ele>
        <time>2020-10-29T10:59:07Z</time>
      </trkpt>
      <trkpt lat="44.89168" lon="-0.09551">
        <ele>50</ele>
        <time>2020-10-29T10:59:24Z</time>
      </trkpt>
      <trkpt lat="44.89151" lon="-0.09562">
        <ele>48</ele>
        <time>2020-10-29T10:59:40Z</time>
      </trkpt>
      <trkpt lat="44.89133" lon="-0.09576">
        <ele>48</ele>
        <time>2020-10-29T10:59:53Z</time>
      </trkpt>
      <trkpt lat="44.89139" lon="-0.09573">
        <ele>48</ele>
        <time>2020-10-29T10:59:59Z</time>
      </trkpt>
      <trkpt lat="44.89146" lon="-0.09563">
        <ele>48</ele>
        <time>2020-10-29T11:00:09Z</time>
      </trkpt>
      <trkpt lat="44.89141" lon="-0.09543">
        <ele>50</ele>
        <time>2020-10-29T11:00:22Z</time>
      </trkpt>
      <trkpt lat="44.8914" lon="-0.09541">
        <ele>50</ele>
        <time>2020-10-29T11:00:23Z</time>
      </trkpt>
      <trkpt lat="44.89134" lon="-0.09521">
        <ele>51</ele>
        <time>2020-10-29T11:00:36Z</time>
      </trkpt>
      <trkpt lat="44.89133" lon="-0.09518">
        <ele>51</ele>
        <time>2020-10-29T11:00:40Z</time>
      </trkpt>
      <trkpt lat="44.89127" lon="-0.09499">
        <ele>52</ele>
        <time>2020-10-29T11:00:54Z</time>
      </trkpt>
      <trkpt lat="44.89126" lon="-0.09498">
        <ele>52</ele>
        <time>2020-10-29T11:00:55Z</time>
      </trkpt>
      <trkpt lat="44.89122" lon="-0.09482">
        <ele>53</ele>
        <time>2020-10-29T11:01:06Z</time>
      </trkpt>
      <trkpt lat="44.89118" lon="-0.09469">
        <ele>53</ele>
        <time>2020-10-29T11:01:17Z</time>
      </trkpt>
      <trkpt lat="44.89117" lon="-0.09465">
        <ele>54</ele>
        <time>2020-10-29T11:01:20Z</time>
      </trkpt>
      <trkpt lat="44.89114" lon="-0.09453">
        <ele>55</ele>
        <time>2020-10-29T11:01:31Z</time>
      </trkpt>
      <trkpt lat="44.89108" lon="-0.09435">
        <ele>58</ele>
        <time>2020-10-29T11:01:49Z</time>
      </trkpt>
      <trkpt lat="44.89111" lon="-0.09422">
        <ele>59</ele>
        <time>2020-10-29T11:02:03Z</time>
      </trkpt>
      <trkpt lat="44.89117" lon="-0.09404">
        <ele>62</ele>
        <time>2020-10-29T11:02:21Z</time>
      </trkpt>
      <trkpt lat="44.89116" lon="-0.09385">
        <ele>63</ele>
        <time>2020-10-29T11:02:37Z</time>
      </trkpt>
      <trkpt lat="44.89119" lon="-0.09353">
        <ele>64</ele>
        <time>2020-10-29T11:02:56Z</time>
      </trkpt>
      <trkpt lat="44.8912" lon="-0.09336">
        <ele>62</ele>
        <time>2020-10-29T11:03:11Z</time>
      </trkpt>
      <trkpt lat="44.89125" lon="-0.09303">
        <ele>62</ele>
        <time>2020-10-29T11:03:25Z</time>
      </trkpt>
      <trkpt lat="44.89124" lon="-0.09285">
        <ele>60</ele>
        <time>2020-10-29T11:03:40Z</time>
      </trkpt>
      <trkpt lat="44.89127" lon="-0.09261">
        <ele>60</ele>
        <time>2020-10-29T11:03:53Z</time>
      </trkpt>
      <trkpt lat="44.89126" lon="-0.09255">
        <ele>60</ele>
        <time>2020-10-29T11:04:05Z</time>
      </trkpt>
      <trkpt lat="44.89126" lon="-0.09229">
        <ele>59</ele>
        <time>2020-10-29T11:04:20Z</time>
      </trkpt>
      <trkpt lat="44.89126" lon="-0.09208">
        <ele>59</ele>
        <time>2020-10-29T11:04:33Z</time>
      </trkpt>
      <trkpt lat="44.89128" lon="-0.09185">
        <ele>59</ele>
        <time>2020-10-29T11:04:48Z</time>
      </trkpt>
      <trkpt lat="44.89134" lon="-0.09157">
        <ele>59</ele>
        <time>2020-10-29T11:05:03Z</time>
      </trkpt>
      <trkpt lat="44.89142" lon="-0.09134">
        <ele>59</ele>
        <time>2020-10-29T11:05:20Z</time>
      </trkpt>
      <trkpt lat="44.8916" lon="-0.09109">
        <ele>59</ele>
        <time>2020-10-29T11:05:38Z</time>
      </trkpt>
      <trkpt lat="44.89171" lon="-0.09099">
        <ele>59</ele>
        <time>2020-10-29T11:05:53Z</time>
      </trkpt>
      <trkpt lat="44.89193" lon="-0.09077">
        <ele>59</ele>
        <time>2020-10-29T11:06:12Z</time>
      </trkpt>
      <trkpt lat="44.89204" lon="-0.09054">
        <ele>60</ele>
        <time>2020-10-29T11:06:27Z</time>
      </trkpt>
      <trkpt lat="44.89207" lon="-0.0903">
        <ele>60</ele>
        <time>2020-10-29T11:06:43Z</time>
      </trkpt>
      <trkpt lat="44.89211" lon="-0.09013">
        <ele>60</ele>
        <time>2020-10-29T11:06:55Z</time>
      </trkpt>
      <trkpt lat="44.89211" lon="-0.08994">
        <ele>60</ele>
        <time>2020-10-29T11:07:09Z</time>
      </trkpt>
      <trkpt lat="44.89212" lon="-0.08989">
        <ele>60</ele>
        <time>2020-10-29T11:07:13Z</time>
      </trkpt>
      <trkpt lat="44.89212" lon="-0.0898">
        <ele>60</ele>
        <time>2020-10-29T11:07:17Z</time>
      </trkpt>
      <trkpt lat="44.89218" lon="-0.08952">
        <ele>60</ele>
        <time>2020-10-29T11:07:31Z</time>
      </trkpt>
      <trkpt lat="44.89222" lon="-0.08942">
        <ele>60</ele>
        <time>2020-10-29T11:07:37Z</time>
      </trkpt>
      <trkpt lat="44.89223" lon="-0.08943">
        <ele>58</ele>
        <time>2020-10-29T11:07:38Z</time>
      </trkpt>
      <trkpt lat="44.89227" lon="-0.08929">
        <ele>57</ele>
        <time>2020-10-29T11:07:49Z</time>
      </trkpt>
      <trkpt lat="44.89224" lon="-0.08909">
        <ele>57</ele>
        <time>2020-10-29T11:08:02Z</time>
      </trkpt>
      <trkpt lat="44.89224" lon="-0.08892">
        <ele>57</ele>
        <time>2020-10-29T11:08:17Z</time>
      </trkpt>
      <trkpt lat="44.89229" lon="-0.08867">
        <ele>57</ele>
        <time>2020-10-29T11:08:33Z</time>
      </trkpt>
      <trkpt lat="44.89235" lon="-0.08831">
        <ele>57</ele>
        <time>2020-10-29T11:08:48Z</time>
      </trkpt>
      <trkpt lat="44.89242" lon="-0.088">
        <ele>57</ele>
        <time>2020-10-29T11:09:05Z</time>
      </trkpt>
      <trkpt lat="44.89243" lon="-0.08778">
        <ele>57</ele>
        <time>2020-10-29T11:09:20Z</time>
      </trkpt>
      <trkpt lat="44.89245" lon="-0.08758">
        <ele>58</ele>
        <time>2020-10-29T11:09:34Z</time>
      </trkpt>
      <trkpt lat="44.89248" lon="-0.08732">
        <ele>58</ele>
        <time>2020-10-29T11:09:53Z</time>
      </trkpt>
      <trkpt lat="44.89254" lon="-0.08701">
        <ele>58</ele>
        <time>2020-10-29T11:10:06Z</time>
      </trkpt>
      <trkpt lat="44.89257" lon="-0.08674">
        <ele>59</ele>
        <time>2020-10-29T11:10:21Z</time>
      </trkpt>
      <trkpt lat="44.89255" lon="-0.08663">
        <ele>59</ele>
        <time>2020-10-29T11:10:34Z</time>
      </trkpt>
      <trkpt lat="44.89255" lon="-0.08654">
        <ele>59</ele>
        <time>2020-10-29T11:10:40Z</time>
      </trkpt>
      <trkpt lat="44.89256" lon="-0.08638">
        <ele>59</ele>
        <time>2020-10-29T11:10:47Z</time>
      </trkpt>
      <trkpt lat="44.89255" lon="-0.08613">
        <ele>59</ele>
        <time>2020-10-29T11:11:02Z</time>
      </trkpt>
      <trkpt lat="44.89253" lon="-0.08597">
        <ele>59</ele>
        <time>2020-10-29T11:11:17Z</time>
      </trkpt>
      <trkpt lat="44.89252" lon="-0.08594">
        <ele>59</ele>
        <time>2020-10-29T11:11:19Z</time>
      </trkpt>
      <trkpt lat="44.89252" lon="-0.0859">
        <ele>58</ele>
        <time>2020-10-29T11:11:21Z</time>
      </trkpt>
      <trkpt lat="44.89251" lon="-0.08574">
        <ele>57</ele>
        <time>2020-10-29T11:11:31Z</time>
      </trkpt>
      <trkpt lat="44.89254" lon="-0.08544">
        <ele>55</ele>
        <time>2020-10-29T11:11:44Z</time>
      </trkpt>
      <trkpt lat="44.89251" lon="-0.08514">
        <ele>53</ele>
        <time>2020-10-29T11:11:57Z</time>
      </trkpt>
      <trkpt lat="44.89246" lon="-0.08497">
        <ele>51</ele>
        <time>2020-10-29T11:12:11Z</time>
      </trkpt>
      <trkpt lat="44.89242" lon="-0.08482">
        <ele>49</ele>
        <time>2020-10-29T11:12:25Z</time>
      </trkpt>
      <trkpt lat="44.89236" lon="-0.08454">
        <ele>47</ele>
        <time>2020-10-29T11:12:43Z</time>
      </trkpt>
      <trkpt lat="44.89232" lon="-0.08432">
        <ele>46</ele>
        <time>2020-10-29T11:13:00Z</time>
      </trkpt>
      <trkpt lat="44.89228" lon="-0.08404">
        <ele>45</ele>
        <time>2020-10-29T11:13:13Z</time>
      </trkpt>
      <trkpt lat="44.89228" lon="-0.08395">
        <ele>45</ele>
        <time>2020-10-29T11:13:19Z</time>
      </trkpt>
      <trkpt lat="44.89225" lon="-0.08386">
        <ele>45</ele>
        <time>2020-10-29T11:13:24Z</time>
      </trkpt>
      <trkpt lat="44.89221" lon="-0.08361">
        <ele>45</ele>
        <time>2020-10-29T11:13:37Z</time>
      </trkpt>
      <trkpt lat="44.89218" lon="-0.0833">
        <ele>45</ele>
        <time>2020-10-29T11:13:52Z</time>
      </trkpt>
      <trkpt lat="44.89216" lon="-0.08308">
        <ele>46</ele>
        <time>2020-10-29T11:14:03Z</time>
      </trkpt>
      <trkpt lat="44.89213" lon="-0.08299">
        <ele>46</ele>
        <time>2020-10-29T11:14:16Z</time>
      </trkpt>
      <trkpt lat="44.89213" lon="-0.08299">
        <ele>44</ele>
        <time>2020-10-29T11:14:26Z</time>
      </trkpt>
      <trkpt lat="44.89215" lon="-0.083">
        <ele>46</ele>
        <time>2020-10-29T11:14:40Z</time>
      </trkpt>
      <trkpt lat="44.89218" lon="-0.0831">
        <ele>46</ele>
        <time>2020-10-29T11:15:00Z</time>
      </trkpt>
      <trkpt lat="44.89217" lon="-0.08308">
        <ele>46</ele>
        <time>2020-10-29T11:15:20Z</time>
      </trkpt>
      <trkpt lat="44.89218" lon="-0.0831">
        <ele>46</ele>
        <time>2020-10-29T11:15:40Z</time>
      </trkpt>
      <trkpt lat="44.89218" lon="-0.08309">
        <ele>47</ele>
        <time>2020-10-29T11:15:43Z</time>
      </trkpt>
      <trkpt lat="44.89218" lon="-0.08309">
        <ele>46</ele>
        <time>2020-10-29T11:15:45Z</time>
      </trkpt>
      <trkpt lat="44.89218" lon="-0.08309">
        <ele>46</ele>
        <time>2020-10-29T11:16:05Z</time>
      </trkpt>
      <trkpt lat="44.89217" lon="-0.0831">
        <ele>46</ele>
        <time>2020-10-29T11:16:26Z</time>
      </trkpt>
      <trkpt lat="44.89218" lon="-0.08307">
        <ele>47</ele>
        <time>2020-10-29T11:16:46Z</time>
      </trkpt>
      <trkpt lat="44.89217" lon="-0.08307">
        <ele>46</ele>
        <time>2020-10-29T11:16:48Z</time>
      </trkpt>
      <trkpt lat="44.89216" lon="-0.08307">
        <ele>46</ele>
        <time>2020-10-29T11:17:09Z</time>
      </trkpt>
      <trkpt lat="44.89215" lon="-0.08307">
        <ele>46</ele>
        <time>2020-10-29T11:17:31Z</time>
      </trkpt>
      <trkpt lat="44.89214" lon="-0.08304">
        <ele>46</ele>
        <time>2020-10-29T11:17:48Z</time>
      </trkpt>
      <trkpt lat="44.89214" lon="-0.08307">
        <ele>46</ele>
        <time>2020-10-29T11:18:31Z</time>
      </trkpt>
      <trkpt lat="44.89213" lon="-0.08308">
        <ele>46</ele>
        <time>2020-10-29T11:19:04Z</time>
      </trkpt>
      <trkpt lat="44.89213" lon="-0.0831">
        <ele>46</ele>
        <time>2020-10-29T11:19:36Z</time>
      </trkpt>
      <trkpt lat="44.89213" lon="-0.08309">
        <ele>46</ele>
        <time>2020-10-29T11:20:10Z</time>
      </trkpt>
      <trkpt lat="44.89212" lon="-0.08306">
        <ele>47</ele>
        <time>2020-10-29T11:20:55Z</time>
      </trkpt>
      <trkpt lat="44.89218" lon="-0.08307">
        <ele>47</ele>
        <time>2020-10-29T11:21:40Z</time>
      </trkpt>
      <trkpt lat="44.89218" lon="-0.08309">
        <ele>47</ele>
        <time>2020-10-29T11:22:19Z</time>
      </trkpt>
      <trkpt lat="44.89218" lon="-0.08308">
        <ele>47</ele>
        <time>2020-10-29T11:22:59Z</time>
      </trkpt>
      <trkpt lat="44.89215" lon="-0.08308">
        <ele>48</ele>
        <time>2020-10-29T11:23:39Z</time>
      </trkpt>
      <trkpt lat="44.89214" lon="-0.08312">
        <ele>48</ele>
        <time>2020-10-29T11:24:21Z</time>
      </trkpt>
      <trkpt lat="44.89213" lon="-0.08308">
        <ele>48</ele>
        <time>2020-10-29T11:25:06Z</time>
      </trkpt>
      <trkpt lat="44.89215" lon="-0.08307">
        <ele>48</ele>
        <time>2020-10-29T11:25:35Z</time>
      </trkpt>
      <trkpt lat="44.89216" lon="-0.08312">
        <ele>49</ele>
        <time>2020-10-29T11:26:17Z</time>
      </trkpt>
      <trkpt lat="44.89215" lon="-0.08312">
        <ele>49</ele>
        <time>2020-10-29T11:27:05Z</time>
      </trkpt>
      <trkpt lat="44.89214" lon="-0.08309">
        <ele>50</ele>
        <time>2020-10-29T11:27:45Z</time>
      </trkpt>
      <trkpt lat="44.89216" lon="-0.08311">
        <ele>50</ele>
        <time>2020-10-29T11:28:10Z</time>
      </trkpt>
      <trkpt lat="44.89222" lon="-0.08306">
        <ele>49</ele>
        <time>2020-10-29T11:28:42Z</time>
      </trkpt>
      <trkpt lat="44.89222" lon="-0.08307">
        <ele>49</ele>
        <time>2020-10-29T11:28:43Z</time>
      </trkpt>
      <trkpt lat="44.89221" lon="-0.08306">
        <ele>52</ele>
        <time>2020-10-29T11:28:48Z</time>
      </trkpt>
      <trkpt lat="44.89221" lon="-0.08306">
        <ele>50</ele>
        <time>2020-10-29T11:28:49Z</time>
      </trkpt>
      <trkpt lat="44.89219" lon="-0.08308">
        <ele>50</ele>
        <time>2020-10-29T11:29:20Z</time>
      </trkpt>
      <trkpt lat="44.8922" lon="-0.08309">
        <ele>49</ele>
        <time>2020-10-29T11:29:33Z</time>
      </trkpt>
      <trkpt lat="44.8922" lon="-0.08308">
        <ele>50</ele>
        <time>2020-10-29T11:29:35Z</time>
      </trkpt>
      <trkpt lat="44.89219" lon="-0.08308">
        <ele>49</ele>
        <time>2020-10-29T11:29:57Z</time>
      </trkpt>
      <trkpt lat="44.8922" lon="-0.08309">
        <ele>52</ele>
        <time>2020-10-29T11:30:08Z</time>
      </trkpt>
      <trkpt lat="44.89219" lon="-0.08309">
        <ele>50</ele>
        <time>2020-10-29T11:30:10Z</time>
      </trkpt>
      <trkpt lat="44.89211" lon="-0.08309">
        <ele>51</ele>
        <time>2020-10-29T11:30:43Z</time>
      </trkpt>
      <trkpt lat="44.89212" lon="-0.08314">
        <ele>50</ele>
        <time>2020-10-29T11:31:17Z</time>
      </trkpt>
      <trkpt lat="44.89215" lon="-0.08311">
        <ele>51</ele>
        <time>2020-10-29T11:31:28Z</time>
      </trkpt>
      <trkpt lat="44.89213" lon="-0.08318">
        <ele>51</ele>
        <time>2020-10-29T11:31:55Z</time>
      </trkpt>
      <trkpt lat="44.89214" lon="-0.0832">
        <ele>51</ele>
        <time>2020-10-29T11:32:20Z</time>
      </trkpt>
      <trkpt lat="44.89233" lon="-0.08293">
        <ele>52</ele>
        <time>2020-10-29T11:32:50Z</time>
      </trkpt>
      <trkpt lat="44.89223" lon="-0.08301">
        <ele>52</ele>
        <time>2020-10-29T11:33:14Z</time>
      </trkpt>
      <trkpt lat="44.89215" lon="-0.08307">
        <ele>52</ele>
        <time>2020-10-29T11:33:54Z</time>
      </trkpt>
      <trkpt lat="44.89218" lon="-0.08304">
        <ele>52</ele>
        <time>2020-10-29T11:34:37Z</time>
      </trkpt>
      <trkpt lat="44.8922" lon="-0.08307">
        <ele>52</ele>
        <time>2020-10-29T11:35:15Z</time>
      </trkpt>
      <trkpt lat="44.89216" lon="-0.08308">
        <ele>52</ele>
        <time>2020-10-29T11:35:40Z</time>
      </trkpt>
      <trkpt lat="44.89218" lon="-0.0831">
        <ele>53</ele>
        <time>2020-10-29T11:36:05Z</time>
      </trkpt>
      <trkpt lat="44.8922" lon="-0.08316">
        <ele>53</ele>
        <time>2020-10-29T11:36:28Z</time>
      </trkpt>
      <trkpt lat="44.89221" lon="-0.08315">
        <ele>50</ele>
        <time>2020-10-29T11:36:33Z</time>
      </trkpt>
      <trkpt lat="44.89221" lon="-0.08315">
        <ele>50</ele>
        <time>2020-10-29T11:36:34Z</time>
      </trkpt>
      <trkpt lat="44.89221" lon="-0.08315">
        <ele>51</ele>
        <time>2020-10-29T11:36:36Z</time>
      </trkpt>
      <trkpt lat="44.89221" lon="-0.08315">
        <ele>56</ele>
        <time>2020-10-29T11:36:37Z</time>
      </trkpt>
      <trkpt lat="44.89221" lon="-0.08315">
        <ele>52</ele>
        <time>2020-10-29T11:36:38Z</time>
      </trkpt>
      <trkpt lat="44.8922" lon="-0.08314">
        <ele>53</ele>
        <time>2020-10-29T11:36:42Z</time>
      </trkpt>
      <trkpt lat="44.89219" lon="-0.08307">
        <ele>53</ele>
        <time>2020-10-29T11:37:11Z</time>
      </trkpt>
      <trkpt lat="44.89219" lon="-0.08308">
        <ele>53</ele>
        <time>2020-10-29T11:37:49Z</time>
      </trkpt>
      <trkpt lat="44.89216" lon="-0.08317">
        <ele>53</ele>
        <time>2020-10-29T11:38:20Z</time>
      </trkpt>
      <trkpt lat="44.89217" lon="-0.0831">
        <ele>53</ele>
        <time>2020-10-29T11:39:02Z</time>
      </trkpt>
      <trkpt lat="44.89217" lon="-0.08306">
        <ele>53</ele>
        <time>2020-10-29T11:39:36Z</time>
      </trkpt>
      <trkpt lat="44.89219" lon="-0.08302">
        <ele>54</ele>
        <time>2020-10-29T11:39:58Z</time>
      </trkpt>
      <trkpt lat="44.89217" lon="-0.083">
        <ele>54</ele>
        <time>2020-10-29T11:40:17Z</time>
      </trkpt>
      <trkpt lat="44.89218" lon="-0.08302">
        <ele>53</ele>
        <time>2020-10-29T11:40:24Z</time>
      </trkpt>
      <trkpt lat="44.89215" lon="-0.08292">
        <ele>55</ele>
        <time>2020-10-29T11:40:51Z</time>
      </trkpt>
      <trkpt lat="44.89215" lon="-0.08299">
        <ele>54</ele>
        <time>2020-10-29T11:41:31Z</time>
      </trkpt>
      <trkpt lat="44.89214" lon="-0.08296">
        <ele>54</ele>
        <time>2020-10-29T11:42:11Z</time>
      </trkpt>
      <trkpt lat="44.89214" lon="-0.083">
        <ele>54</ele>
        <time>2020-10-29T11:42:46Z</time>
      </trkpt>
      <trkpt lat="44.89214" lon="-0.08303">
        <ele>55</ele>
        <time>2020-10-29T11:43:11Z</time>
      </trkpt>
      <trkpt lat="44.89219" lon="-0.08307">
        <ele>55</ele>
        <time>2020-10-29T11:43:37Z</time>
      </trkpt>
      <trkpt lat="44.89221" lon="-0.08313">
        <ele>56</ele>
        <time>2020-10-29T11:43:57Z</time>
      </trkpt>
      <trkpt lat="44.89223" lon="-0.08313">
        <ele>55</ele>
        <time>2020-10-29T11:44:31Z</time>
      </trkpt>
      <trkpt lat="44.89213" lon="-0.08307">
        <ele>55</ele>
        <time>2020-10-29T11:45:16Z</time>
      </trkpt>
      <trkpt lat="44.89211" lon="-0.08301">
        <ele>55</ele>
        <time>2020-10-29T11:45:52Z</time>
      </trkpt>
      <trkpt lat="44.89216" lon="-0.08307">
        <ele>55</ele>
        <time>2020-10-29T11:46:30Z</time>
      </trkpt>
      <trkpt lat="44.89217" lon="-0.08311">
        <ele>55</ele>
        <time>2020-10-29T11:47:16Z</time>
      </trkpt>
      <trkpt lat="44.89217" lon="-0.08307">
        <ele>55</ele>
        <time>2020-10-29T11:47:59Z</time>
      </trkpt>
      <trkpt lat="44.89218" lon="-0.0831">
        <ele>55</ele>
        <time>2020-10-29T11:48:41Z</time>
      </trkpt>
      <trkpt lat="44.89218" lon="-0.08309">
        <ele>55</ele>
        <time>2020-10-29T11:49:20Z</time>
      </trkpt>
      <trkpt lat="44.89219" lon="-0.08309">
        <ele>55</ele>
        <time>2020-10-29T11:49:50Z</time>
      </trkpt>
      <trkpt lat="44.89219" lon="-0.08305">
        <ele>55</ele>
        <time>2020-10-29T11:50:22Z</time>
      </trkpt>
      <trkpt lat="44.89217" lon="-0.08307">
        <ele>55</ele>
        <time>2020-10-29T11:50:54Z</time>
      </trkpt>
      <trkpt lat="44.8922" lon="-0.08309">
        <ele>55</ele>
        <time>2020-10-29T11:51:27Z</time>
      </trkpt>
      <trkpt lat="44.89219" lon="-0.08308">
        <ele>55</ele>
        <time>2020-10-29T11:51:56Z</time>
      </trkpt>
      <trkpt lat="44.8922" lon="-0.08306">
        <ele>55</ele>
        <time>2020-10-29T11:52:32Z</time>
      </trkpt>
      <trkpt lat="44.89218" lon="-0.08304">
        <ele>55</ele>
        <time>2020-10-29T11:53:05Z</time>
      </trkpt>
      <trkpt lat="44.89219" lon="-0.08308">
        <ele>58</ele>
        <time>2020-10-29T11:53:33Z</time>
      </trkpt>
      <trkpt lat="44.89219" lon="-0.08308">
        <ele>58</ele>
        <time>2020-10-29T11:53:34Z</time>
      </trkpt>
      <trkpt lat="44.89219" lon="-0.08304">
        <ele>52</ele>
        <time>2020-10-29T11:53:40Z</time>
      </trkpt>
      <trkpt lat="44.89219" lon="-0.08304">
        <ele>45</ele>
        <time>2020-10-29T11:53:41Z</time>
      </trkpt>
      <trkpt lat="44.89219" lon="-0.08304">
        <ele>65</ele>
        <time>2020-10-29T11:53:42Z</time>
      </trkpt>
      <trkpt lat="44.8922" lon="-0.08304">
        <ele>57</ele>
        <time>2020-10-29T11:53:44Z</time>
      </trkpt>
      <trkpt lat="44.8922" lon="-0.08304">
        <ele>57</ele>
        <time>2020-10-29T11:53:45Z</time>
      </trkpt>
      <trkpt lat="44.89216" lon="-0.08301">
        <ele>57</ele>
        <time>2020-10-29T11:53:58Z</time>
      </trkpt>
      <trkpt lat="44.8922" lon="-0.08291">
        <ele>57</ele>
        <time>2020-10-29T11:54:12Z</time>
      </trkpt>
      <trkpt lat="44.89229" lon="-0.08278">
        <ele>57</ele>
        <time>2020-10-29T11:54:30Z</time>
      </trkpt>
      <trkpt lat="44.89234" lon="-0.08271">
        <ele>58</ele>
        <time>2020-10-29T11:54:41Z</time>
      </trkpt>
      <trkpt lat="44.89246" lon="-0.08256">
        <ele>61</ele>
        <time>2020-10-29T11:54:58Z</time>
      </trkpt>
      <trkpt lat="44.89253" lon="-0.08243">
        <ele>58</ele>
        <time>2020-10-29T11:55:10Z</time>
      </trkpt>
      <trkpt lat="44.89261" lon="-0.0823">
        <ele>59</ele>
        <time>2020-10-29T11:55:22Z</time>
      </trkpt>
      <trkpt lat="44.89264" lon="-0.08227">
        <ele>59</ele>
        <time>2020-10-29T11:55:26Z</time>
      </trkpt>
      <trkpt lat="44.89274" lon="-0.08218">
        <ele>60</ele>
        <time>2020-10-29T11:55:38Z</time>
      </trkpt>
      <trkpt lat="44.89284" lon="-0.08209">
        <ele>61</ele>
        <time>2020-10-29T11:55:50Z</time>
      </trkpt>
      <trkpt lat="44.89288" lon="-0.08203">
        <ele>61</ele>
        <time>2020-10-29T11:55:57Z</time>
      </trkpt>
      <trkpt lat="44.89294" lon="-0.082">
        <ele>61</ele>
        <time>2020-10-29T11:56:01Z</time>
      </trkpt>
      <trkpt lat="44.89307" lon="-0.08186">
        <ele>62</ele>
        <time>2020-10-29T11:56:17Z</time>
      </trkpt>
      <trkpt lat="44.89308" lon="-0.08186">
        <ele>62</ele>
        <time>2020-10-29T11:56:18Z</time>
      </trkpt>
      <trkpt lat="44.89311" lon="-0.08183">
        <ele>62</ele>
        <time>2020-10-29T11:56:22Z</time>
      </trkpt>
      <trkpt lat="44.89326" lon="-0.0817">
        <ele>62</ele>
        <time>2020-10-29T11:56:38Z</time>
      </trkpt>
      <trkpt lat="44.89342" lon="-0.08155">
        <ele>63</ele>
        <time>2020-10-29T11:56:56Z</time>
      </trkpt>
      <trkpt lat="44.89356" lon="-0.08145">
        <ele>63</ele>
        <time>2020-10-29T11:57:11Z</time>
      </trkpt>
      <trkpt lat="44.89372" lon="-0.08138">
        <ele>63</ele>
        <time>2020-10-29T11:57:26Z</time>
      </trkpt>
      <trkpt lat="44.89384" lon="-0.08138">
        <ele>63</ele>
        <time>2020-10-29T11:57:38Z</time>
      </trkpt>
      <trkpt lat="44.89397" lon="-0.08142">
        <ele>64</ele>
        <time>2020-10-29T11:57:50Z</time>
      </trkpt>
      <trkpt lat="44.89399" lon="-0.08143">
        <ele>64</ele>
        <time>2020-10-29T11:57:52Z</time>
      </trkpt>
      <trkpt lat="44.89412" lon="-0.08153">
        <ele>65</ele>
        <time>2020-10-29T11:58:05Z</time>
      </trkpt>
      <trkpt lat="44.89415" lon="-0.08156">
        <ele>65</ele>
        <time>2020-10-29T11:58:10Z</time>
      </trkpt>
      <trkpt lat="44.89421" lon="-0.08162">
        <ele>65</ele>
        <time>2020-10-29T11:58:14Z</time>
      </trkpt>
      <trkpt lat="44.89422" lon="-0.08163">
        <ele>65</ele>
        <time>2020-10-29T11:58:15Z</time>
      </trkpt>
      <trkpt lat="44.89423" lon="-0.08164">
        <ele>65</ele>
        <time>2020-10-29T11:58:16Z</time>
      </trkpt>
      <trkpt lat="44.89423" lon="-0.08165">
        <ele>65</ele>
        <time>2020-10-29T11:58:17Z</time>
      </trkpt>
      <trkpt lat="44.89424" lon="-0.08165">
        <ele>63</ele>
        <time>2020-10-29T11:58:18Z</time>
      </trkpt>
      <trkpt lat="44.89425" lon="-0.08166">
        <ele>66</ele>
        <time>2020-10-29T11:58:19Z</time>
      </trkpt>
      <trkpt lat="44.89427" lon="-0.08167">
        <ele>65</ele>
        <time>2020-10-29T11:58:20Z</time>
      </trkpt>
      <trkpt lat="44.89427" lon="-0.08167">
        <ele>65</ele>
        <time>2020-10-29T11:58:21Z</time>
      </trkpt>
      <trkpt lat="44.8944" lon="-0.08171">
        <ele>64</ele>
        <time>2020-10-29T11:58:36Z</time>
      </trkpt>
      <trkpt lat="44.89459" lon="-0.08172">
        <ele>62</ele>
        <time>2020-10-29T11:58:51Z</time>
      </trkpt>
      <trkpt lat="44.89466" lon="-0.08168">
        <ele>62</ele>
        <time>2020-10-29T11:59:00Z</time>
      </trkpt>
      <trkpt lat="44.89467" lon="-0.08167">
        <ele>62</ele>
        <time>2020-10-29T11:59:01Z</time>
      </trkpt>
      <trkpt lat="44.89466" lon="-0.08159">
        <ele>62</ele>
        <time>2020-10-29T11:59:08Z</time>
      </trkpt>
      <trkpt lat="44.89465" lon="-0.08157">
        <ele>62</ele>
        <time>2020-10-29T11:59:09Z</time>
      </trkpt>
      <trkpt lat="44.8946" lon="-0.08142">
        <ele>63</ele>
        <time>2020-10-29T11:59:19Z</time>
      </trkpt>
      <trkpt lat="44.89453" lon="-0.08126">
        <ele>64</ele>
        <time>2020-10-29T11:59:33Z</time>
      </trkpt>
      <trkpt lat="44.89448" lon="-0.08115">
        <ele>65</ele>
        <time>2020-10-29T11:59:43Z</time>
      </trkpt>
      <trkpt lat="44.89444" lon="-0.08108">
        <ele>66</ele>
        <time>2020-10-29T11:59:48Z</time>
      </trkpt>
      <trkpt lat="44.89438" lon="-0.08092">
        <ele>67</ele>
        <time>2020-10-29T12:00:03Z</time>
      </trkpt>
      <trkpt lat="44.89432" lon="-0.08074">
        <ele>68</ele>
        <time>2020-10-29T12:00:17Z</time>
      </trkpt>
      <trkpt lat="44.89423" lon="-0.08063">
        <ele>69</ele>
        <time>2020-10-29T12:00:29Z</time>
      </trkpt>
      <trkpt lat="44.89418" lon="-0.08057">
        <ele>69</ele>
        <time>2020-10-29T12:00:35Z</time>
      </trkpt>
      <trkpt lat="44.89413" lon="-0.0805">
        <ele>70</ele>
        <time>2020-10-29T12:00:42Z</time>
      </trkpt>
      <trkpt lat="44.89407" lon="-0.08043">
        <ele>70</ele>
        <time>2020-10-29T12:00:49Z</time>
      </trkpt>
      <trkpt lat="44.89402" lon="-0.08037">
        <ele>71</ele>
        <time>2020-10-29T12:00:56Z</time>
      </trkpt>
      <trkpt lat="44.89391" lon="-0.08027">
        <ele>72</ele>
        <time>2020-10-29T12:01:10Z</time>
      </trkpt>
      <trkpt lat="44.89379" lon="-0.08018">
        <ele>72</ele>
        <time>2020-10-29T12:01:22Z</time>
      </trkpt>
      <trkpt lat="44.89377" lon="-0.08016">
        <ele>73</ele>
        <time>2020-10-29T12:01:26Z</time>
      </trkpt>
      <trkpt lat="44.89373" lon="-0.08012">
        <ele>73</ele>
        <time>2020-10-29T12:01:31Z</time>
      </trkpt>
      <trkpt lat="44.89367" lon="-0.08007">
        <ele>73</ele>
        <time>2020-10-29T12:01:38Z</time>
      </trkpt>
      <trkpt lat="44.89359" lon="-0.08001">
        <ele>75</ele>
        <time>2020-10-29T12:01:50Z</time>
      </trkpt>
      <trkpt lat="44.89356" lon="-0.07999">
        <ele>75</ele>
        <time>2020-10-29T12:02:00Z</time>
      </trkpt>
      <trkpt lat="44.89349" lon="-0.07996">
        <ele>76</ele>
        <time>2020-10-29T12:02:07Z</time>
      </trkpt>
      <trkpt lat="44.89342" lon="-0.0799">
        <ele>77</ele>
        <time>2020-10-29T12:02:15Z</time>
      </trkpt>
      <trkpt lat="44.89328" lon="-0.0798">
        <ele>78</ele>
        <time>2020-10-29T12:02:31Z</time>
      </trkpt>
      <trkpt lat="44.89314" lon="-0.07964">
        <ele>77</ele>
        <time>2020-10-29T12:02:50Z</time>
      </trkpt>
      <trkpt lat="44.89306" lon="-0.07957">
        <ele>77</ele>
        <time>2020-10-29T12:02:59Z</time>
      </trkpt>
      <trkpt lat="44.89297" lon="-0.07947">
        <ele>77</ele>
        <time>2020-10-29T12:03:11Z</time>
      </trkpt>
      <trkpt lat="44.89286" lon="-0.07936">
        <ele>75</ele>
        <time>2020-10-29T12:03:26Z</time>
      </trkpt>
      <trkpt lat="44.89285" lon="-0.07935">
        <ele>78</ele>
        <time>2020-10-29T12:03:27Z</time>
      </trkpt>
      <trkpt lat="44.89277" lon="-0.07924">
        <ele>76</ele>
        <time>2020-10-29T12:03:38Z</time>
      </trkpt>
      <trkpt lat="44.89265" lon="-0.07911">
        <ele>76</ele>
        <time>2020-10-29T12:03:53Z</time>
      </trkpt>
      <trkpt lat="44.89264" lon="-0.0791">
        <ele>76</ele>
        <time>2020-10-29T12:03:55Z</time>
      </trkpt>
      <trkpt lat="44.89248" lon="-0.07892">
        <ele>75</ele>
        <time>2020-10-29T12:04:11Z</time>
      </trkpt>
      <trkpt lat="44.89246" lon="-0.07888">
        <ele>75</ele>
        <time>2020-10-29T12:04:16Z</time>
      </trkpt>
      <trkpt lat="44.89237" lon="-0.07877">
        <ele>75</ele>
        <time>2020-10-29T12:04:27Z</time>
      </trkpt>
      <trkpt lat="44.89225" lon="-0.07861">
        <ele>75</ele>
        <time>2020-10-29T12:04:41Z</time>
      </trkpt>
      <trkpt lat="44.89217" lon="-0.07845">
        <ele>75</ele>
        <time>2020-10-29T12:04:56Z</time>
      </trkpt>
      <trkpt lat="44.89209" lon="-0.07832">
        <ele>75</ele>
        <time>2020-10-29T12:05:08Z</time>
      </trkpt>
      <trkpt lat="44.89201" lon="-0.07814">
        <ele>75</ele>
        <time>2020-10-29T12:05:21Z</time>
      </trkpt>
      <trkpt lat="44.892" lon="-0.07811">
        <ele>77</ele>
        <time>2020-10-29T12:05:24Z</time>
      </trkpt>
      <trkpt lat="44.89193" lon="-0.07798">
        <ele>77</ele>
        <time>2020-10-29T12:05:35Z</time>
      </trkpt>
      <trkpt lat="44.89186" lon="-0.07785">
        <ele>78</ele>
        <time>2020-10-29T12:05:45Z</time>
      </trkpt>
      <trkpt lat="44.89175" lon="-0.07774">
        <ele>78</ele>
        <time>2020-10-29T12:05:57Z</time>
      </trkpt>
      <trkpt lat="44.8917" lon="-0.07771">
        <ele>79</ele>
        <time>2020-10-29T12:06:04Z</time>
      </trkpt>
      <trkpt lat="44.89157" lon="-0.07768">
        <ele>80</ele>
        <time>2020-10-29T12:06:16Z</time>
      </trkpt>
      <trkpt lat="44.89146" lon="-0.07765">
        <ele>80</ele>
        <time>2020-10-29T12:06:27Z</time>
      </trkpt>
      <trkpt lat="44.89143" lon="-0.07764">
        <ele>80</ele>
        <time>2020-10-29T12:06:30Z</time>
      </trkpt>
      <trkpt lat="44.89137" lon="-0.07762">
        <ele>81</ele>
        <time>2020-10-29T12:06:37Z</time>
      </trkpt>
      <trkpt lat="44.89124" lon="-0.07753">
        <ele>81</ele>
        <time>2020-10-29T12:06:51Z</time>
      </trkpt>
      <trkpt lat="44.8911" lon="-0.0774">
        <ele>81</ele>
        <time>2020-10-29T12:07:06Z</time>
      </trkpt>
      <trkpt lat="44.89108" lon="-0.07736">
        <ele>81</ele>
        <time>2020-10-29T12:07:10Z</time>
      </trkpt>
      <trkpt lat="44.89105" lon="-0.07726">
        <ele>81</ele>
        <time>2020-10-29T12:07:15Z</time>
      </trkpt>
      <trkpt lat="44.89097" lon="-0.07702">
        <ele>81</ele>
        <time>2020-10-29T12:07:28Z</time>
      </trkpt>
      <trkpt lat="44.89094" lon="-0.07684">
        <ele>81</ele>
        <time>2020-10-29T12:07:44Z</time>
      </trkpt>
      <trkpt lat="44.89092" lon="-0.0766">
        <ele>81</ele>
        <time>2020-10-29T12:07:58Z</time>
      </trkpt>
      <trkpt lat="44.89088" lon="-0.07639">
        <ele>81</ele>
        <time>2020-10-29T12:08:10Z</time>
      </trkpt>
      <trkpt lat="44.89086" lon="-0.07624">
        <ele>82</ele>
        <time>2020-10-29T12:08:22Z</time>
      </trkpt>
      <trkpt lat="44.89085" lon="-0.07616">
        <ele>82</ele>
        <time>2020-10-29T12:08:29Z</time>
      </trkpt>
      <trkpt lat="44.89085" lon="-0.07611">
        <ele>82</ele>
        <time>2020-10-29T12:08:32Z</time>
      </trkpt>
      <trkpt lat="44.89085" lon="-0.07596">
        <ele>83</ele>
        <time>2020-10-29T12:08:47Z</time>
      </trkpt>
      <trkpt lat="44.89085" lon="-0.07595">
        <ele>83</ele>
        <time>2020-10-29T12:08:48Z</time>
      </trkpt>
      <trkpt lat="44.89087" lon="-0.07579">
        <ele>84</ele>
        <time>2020-10-29T12:09:00Z</time>
      </trkpt>
      <trkpt lat="44.89088" lon="-0.07558">
        <ele>84</ele>
        <time>2020-10-29T12:09:15Z</time>
      </trkpt>
      <trkpt lat="44.89088" lon="-0.07538">
        <ele>84</ele>
        <time>2020-10-29T12:09:28Z</time>
      </trkpt>
      <trkpt lat="44.89088" lon="-0.07514">
        <ele>85</ele>
        <time>2020-10-29T12:09:43Z</time>
      </trkpt>
      <trkpt lat="44.89088" lon="-0.07496">
        <ele>86</ele>
        <time>2020-10-29T12:09:55Z</time>
      </trkpt>
      <trkpt lat="44.89088" lon="-0.07486">
        <ele>86</ele>
        <time>2020-10-29T12:10:00Z</time>
      </trkpt>
      <trkpt lat="44.89082" lon="-0.07463">
        <ele>87</ele>
        <time>2020-10-29T12:10:15Z</time>
      </trkpt>
      <trkpt lat="44.89077" lon="-0.07455">
        <ele>87</ele>
        <time>2020-10-29T12:10:22Z</time>
      </trkpt>
      <trkpt lat="44.8907" lon="-0.07437">
        <ele>89</ele>
        <time>2020-10-29T12:10:38Z</time>
      </trkpt>
      <trkpt lat="44.89069" lon="-0.07433">
        <ele>89</ele>
        <time>2020-10-29T12:10:40Z</time>
      </trkpt>
      <trkpt lat="44.89067" lon="-0.07419">
        <ele>90</ele>
        <time>2020-10-29T12:10:46Z</time>
      </trkpt>
      <trkpt lat="44.89064" lon="-0.07412">
        <ele>90</ele>
        <time>2020-10-29T12:10:53Z</time>
      </trkpt>
      <trkpt lat="44.89062" lon="-0.0739">
        <ele>90</ele>
        <time>2020-10-29T12:11:06Z</time>
      </trkpt>
      <trkpt lat="44.89063" lon="-0.07368">
        <ele>91</ele>
        <time>2020-10-29T12:11:18Z</time>
      </trkpt>
      <trkpt lat="44.89064" lon="-0.07362">
        <ele>91</ele>
        <time>2020-10-29T12:11:24Z</time>
      </trkpt>
      <trkpt lat="44.89067" lon="-0.07341">
        <ele>91</ele>
        <time>2020-10-29T12:11:38Z</time>
      </trkpt>
      <trkpt lat="44.89067" lon="-0.0734">
        <ele>91</ele>
        <time>2020-10-29T12:11:40Z</time>
      </trkpt>
      <trkpt lat="44.89066" lon="-0.07332">
        <ele>91</ele>
        <time>2020-10-29T12:11:44Z</time>
      </trkpt>
      <trkpt lat="44.89068" lon="-0.07312">
        <ele>91</ele>
        <time>2020-10-29T12:11:57Z</time>
      </trkpt>
      <trkpt lat="44.8907" lon="-0.07299">
        <ele>91</ele>
        <time>2020-10-29T12:12:02Z</time>
      </trkpt>
      <trkpt lat="44.8907" lon="-0.07282">
        <ele>91</ele>
        <time>2020-10-29T12:12:17Z</time>
      </trkpt>
      <trkpt lat="44.89076" lon="-0.07251">
        <ele>91</ele>
        <time>2020-10-29T12:12:30Z</time>
      </trkpt>
      <trkpt lat="44.89079" lon="-0.07233">
        <ele>91</ele>
        <time>2020-10-29T12:12:45Z</time>
      </trkpt>
      <trkpt lat="44.89087" lon="-0.07213">
        <ele>91</ele>
        <time>2020-10-29T12:13:00Z</time>
      </trkpt>
      <trkpt lat="44.89088" lon="-0.07208">
        <ele>91</ele>
        <time>2020-10-29T12:13:04Z</time>
      </trkpt>
      <trkpt lat="44.89094" lon="-0.07193">
        <ele>90</ele>
        <time>2020-10-29T12:13:18Z</time>
      </trkpt>
      <trkpt lat="44.89104" lon="-0.07176">
        <ele>89</ele>
        <time>2020-10-29T12:13:29Z</time>
      </trkpt>
      <trkpt lat="44.89114" lon="-0.07146">
        <ele>87</ele>
        <time>2020-10-29T12:13:45Z</time>
      </trkpt>
      <trkpt lat="44.89125" lon="-0.07118">
        <ele>85</ele>
        <time>2020-10-29T12:13:59Z</time>
      </trkpt>
      <trkpt lat="44.8913" lon="-0.07105">
        <ele>83</ele>
        <time>2020-10-29T12:14:10Z</time>
      </trkpt>
      <trkpt lat="44.89131" lon="-0.07099">
        <ele>83</ele>
        <time>2020-10-29T12:14:14Z</time>
      </trkpt>
      <trkpt lat="44.89136" lon="-0.07084">
        <ele>82</ele>
        <time>2020-10-29T12:14:26Z</time>
      </trkpt>
      <trkpt lat="44.89134" lon="-0.07084">
        <ele>82</ele>
        <time>2020-10-29T12:14:41Z</time>
      </trkpt>
      <trkpt lat="44.89132" lon="-0.07082">
        <ele>81</ele>
        <time>2020-10-29T12:14:58Z</time>
      </trkpt>
      <trkpt lat="44.89138" lon="-0.07065">
        <ele>80</ele>
        <time>2020-10-29T12:15:17Z</time>
      </trkpt>
      <trkpt lat="44.89141" lon="-0.07055">
        <ele>79</ele>
        <time>2020-10-29T12:15:29Z</time>
      </trkpt>
      <trkpt lat="44.89133" lon="-0.07032">
        <ele>76</ele>
        <time>2020-10-29T12:15:48Z</time>
      </trkpt>
      <trkpt lat="44.89128" lon="-0.07026">
        <ele>76</ele>
        <time>2020-10-29T12:15:54Z</time>
      </trkpt>
      <trkpt lat="44.89122" lon="-0.07017">
        <ele>76</ele>
        <time>2020-10-29T12:16:03Z</time>
      </trkpt>
      <trkpt lat="44.89107" lon="-0.06999">
        <ele>75</ele>
        <time>2020-10-29T12:16:22Z</time>
      </trkpt>
      <trkpt lat="44.89095" lon="-0.06982">
        <ele>74</ele>
        <time>2020-10-29T12:16:37Z</time>
      </trkpt>
      <trkpt lat="44.89087" lon="-0.06969">
        <ele>74</ele>
        <time>2020-10-29T12:16:49Z</time>
      </trkpt>
      <trkpt lat="44.89081" lon="-0.06962">
        <ele>74</ele>
        <time>2020-10-29T12:16:59Z</time>
      </trkpt>
      <trkpt lat="44.89077" lon="-0.06959">
        <ele>74</ele>
        <time>2020-10-29T12:17:03Z</time>
      </trkpt>
      <trkpt lat="44.89065" lon="-0.06945">
        <ele>74</ele>
        <time>2020-10-29T12:17:20Z</time>
      </trkpt>
      <trkpt lat="44.89063" lon="-0.06943">
        <ele>74</ele>
        <time>2020-10-29T12:17:23Z</time>
      </trkpt>
      <trkpt lat="44.89056" lon="-0.06937">
        <ele>74</ele>
        <time>2020-10-29T12:17:31Z</time>
      </trkpt>
      <trkpt lat="44.89043" lon="-0.06924">
        <ele>74</ele>
        <time>2020-10-29T12:17:45Z</time>
      </trkpt>
      <trkpt lat="44.89032" lon="-0.06913">
        <ele>74</ele>
        <time>2020-10-29T12:17:57Z</time>
      </trkpt>
      <trkpt lat="44.89029" lon="-0.06908">
        <ele>74</ele>
        <time>2020-10-29T12:18:02Z</time>
      </trkpt>
      <trkpt lat="44.89023" lon="-0.069">
        <ele>75</ele>
        <time>2020-10-29T12:18:10Z</time>
      </trkpt>
      <trkpt lat="44.89012" lon="-0.0689">
        <ele>76</ele>
        <time>2020-10-29T12:18:22Z</time>
      </trkpt>
      <trkpt lat="44.88998" lon="-0.06881">
        <ele>76</ele>
        <time>2020-10-29T12:18:36Z</time>
      </trkpt>
      <trkpt lat="44.88983" lon="-0.06864">
        <ele>76</ele>
        <time>2020-10-29T12:18:51Z</time>
      </trkpt>
      <trkpt lat="44.88973" lon="-0.06851">
        <ele>76</ele>
        <time>2020-10-29T12:19:04Z</time>
      </trkpt>
      <trkpt lat="44.88964" lon="-0.06832">
        <ele>74</ele>
        <time>2020-10-29T12:19:20Z</time>
      </trkpt>
      <trkpt lat="44.88963" lon="-0.0683">
        <ele>74</ele>
        <time>2020-10-29T12:19:21Z</time>
      </trkpt>
      <trkpt lat="44.88948" lon="-0.06806">
        <ele>73</ele>
        <time>2020-10-29T12:19:39Z</time>
      </trkpt>
      <trkpt lat="44.88935" lon="-0.06789">
        <ele>72</ele>
        <time>2020-10-29T12:19:55Z</time>
      </trkpt>
      <trkpt lat="44.88924" lon="-0.06785">
        <ele>72</ele>
        <time>2020-10-29T12:20:05Z</time>
      </trkpt>
      <trkpt lat="44.88918" lon="-0.0678">
        <ele>72</ele>
        <time>2020-10-29T12:20:10Z</time>
      </trkpt>
      <trkpt lat="44.88909" lon="-0.06779">
        <ele>72</ele>
        <time>2020-10-29T12:20:24Z</time>
      </trkpt>
      <trkpt lat="44.88907" lon="-0.06778">
        <ele>72</ele>
        <time>2020-10-29T12:20:32Z</time>
      </trkpt>
      <trkpt lat="44.88893" lon="-0.06774">
        <ele>72</ele>
        <time>2020-10-29T12:20:44Z</time>
      </trkpt>
      <trkpt lat="44.88873" lon="-0.06767">
        <ele>73</ele>
        <time>2020-10-29T12:21:03Z</time>
      </trkpt>
      <trkpt lat="44.88864" lon="-0.06764">
        <ele>74</ele>
        <time>2020-10-29T12:21:19Z</time>
      </trkpt>
      <trkpt lat="44.88862" lon="-0.06764">
        <ele>75</ele>
        <time>2020-10-29T12:21:34Z</time>
      </trkpt>
      <trkpt lat="44.88855" lon="-0.06762">
        <ele>73</ele>
        <time>2020-10-29T12:21:49Z</time>
      </trkpt>
      <trkpt lat="44.88852" lon="-0.06761">
        <ele>73</ele>
        <time>2020-10-29T12:21:54Z</time>
      </trkpt>
      <trkpt lat="44.88851" lon="-0.0676">
        <ele>73</ele>
        <time>2020-10-29T12:21:55Z</time>
      </trkpt>
      <trkpt lat="44.88848" lon="-0.06757">
        <ele>73</ele>
        <time>2020-10-29T12:21:58Z</time>
      </trkpt>
      <trkpt lat="44.88843" lon="-0.06756">
        <ele>73</ele>
        <time>2020-10-29T12:22:04Z</time>
      </trkpt>
      <trkpt lat="44.88841" lon="-0.06756">
        <ele>73</ele>
        <time>2020-10-29T12:22:05Z</time>
      </trkpt>
      <trkpt lat="44.88826" lon="-0.06753">
        <ele>72</ele>
        <time>2020-10-29T12:22:18Z</time>
      </trkpt>
      <trkpt lat="44.88814" lon="-0.06756">
        <ele>71</ele>
        <time>2020-10-29T12:22:34Z</time>
      </trkpt>
      <trkpt lat="44.88804" lon="-0.06756">
        <ele>70</ele>
        <time>2020-10-29T12:22:40Z</time>
      </trkpt>
      <trkpt lat="44.88802" lon="-0.06755">
        <ele>70</ele>
        <time>2020-10-29T12:22:41Z</time>
      </trkpt>
      <trkpt lat="44.88801" lon="-0.06755">
        <ele>70</ele>
        <time>2020-10-29T12:22:42Z</time>
      </trkpt>
      <trkpt lat="44.888" lon="-0.06756">
        <ele>70</ele>
        <time>2020-10-29T12:22:43Z</time>
      </trkpt>
      <trkpt lat="44.88794" lon="-0.06757">
        <ele>70</ele>
        <time>2020-10-29T12:22:52Z</time>
      </trkpt>
      <trkpt lat="44.88775" lon="-0.06756">
        <ele>69</ele>
        <time>2020-10-29T12:23:04Z</time>
      </trkpt>
      <trkpt lat="44.88765" lon="-0.06754">
        <ele>68</ele>
        <time>2020-10-29T12:23:19Z</time>
      </trkpt>
      <trkpt lat="44.88762" lon="-0.06753">
        <ele>67</ele>
        <time>2020-10-29T12:23:36Z</time>
      </trkpt>
      <trkpt lat="44.88755" lon="-0.06747">
        <ele>67</ele>
        <time>2020-10-29T12:23:45Z</time>
      </trkpt>
      <trkpt lat="44.88754" lon="-0.06746">
        <ele>67</ele>
        <time>2020-10-29T12:23:46Z</time>
      </trkpt>
      <trkpt lat="44.88743" lon="-0.06734">
        <ele>66</ele>
        <time>2020-10-29T12:24:01Z</time>
      </trkpt>
      <trkpt lat="44.88737" lon="-0.06727">
        <ele>66</ele>
        <time>2020-10-29T12:24:08Z</time>
      </trkpt>
      <trkpt lat="44.88714" lon="-0.06702">
        <ele>65</ele>
        <time>2020-10-29T12:24:25Z</time>
      </trkpt>
      <trkpt lat="44.887" lon="-0.06683">
        <ele>64</ele>
        <time>2020-10-29T12:24:40Z</time>
      </trkpt>
      <trkpt lat="44.88685" lon="-0.06669">
        <ele>63</ele>
        <time>2020-10-29T12:24:55Z</time>
      </trkpt>
      <trkpt lat="44.88676" lon="-0.06668">
        <ele>62</ele>
        <time>2020-10-29T12:25:08Z</time>
      </trkpt>
      <trkpt lat="44.88666" lon="-0.0667">
        <ele>61</ele>
        <time>2020-10-29T12:25:18Z</time>
      </trkpt>
      <trkpt lat="44.88664" lon="-0.06694">
        <ele>59</ele>
        <time>2020-10-29T12:25:32Z</time>
      </trkpt>
      <trkpt lat="44.88667" lon="-0.06708">
        <ele>56</ele>
        <time>2020-10-29T12:25:48Z</time>
      </trkpt>
      <trkpt lat="44.88668" lon="-0.06728">
        <ele>55</ele>
        <time>2020-10-29T12:26:00Z</time>
      </trkpt>
      <trkpt lat="44.88667" lon="-0.06766">
        <ele>53</ele>
        <time>2020-10-29T12:26:15Z</time>
      </trkpt>
      <trkpt lat="44.88661" lon="-0.06806">
        <ele>53</ele>
        <time>2020-10-29T12:26:32Z</time>
      </trkpt>
      <trkpt lat="44.8866" lon="-0.06833">
        <ele>52</ele>
        <time>2020-10-29T12:26:48Z</time>
      </trkpt>
      <trkpt lat="44.88663" lon="-0.06849">
        <ele>52</ele>
        <time>2020-10-29T12:27:03Z</time>
      </trkpt>
      <trkpt lat="44.88663" lon="-0.06873">
        <ele>52</ele>
        <time>2020-10-29T12:27:21Z</time>
      </trkpt>
      <trkpt lat="44.88656" lon="-0.06914">
        <ele>51</ele>
        <time>2020-10-29T12:27:38Z</time>
      </trkpt>
      <trkpt lat="44.88643" lon="-0.0695">
        <ele>51</ele>
        <time>2020-10-29T12:27:52Z</time>
      </trkpt>
      <trkpt lat="44.88635" lon="-0.06973">
        <ele>51</ele>
        <time>2020-10-29T12:28:05Z</time>
      </trkpt>
      <trkpt lat="44.88639" lon="-0.06984">
        <ele>51</ele>
        <time>2020-10-29T12:28:21Z</time>
      </trkpt>
      <trkpt lat="44.88641" lon="-0.07002">
        <ele>51</ele>
        <time>2020-10-29T12:28:33Z</time>
      </trkpt>
      <trkpt lat="44.88642" lon="-0.07027">
        <ele>51</ele>
        <time>2020-10-29T12:28:47Z</time>
      </trkpt>
      <trkpt lat="44.88643" lon="-0.07051">
        <ele>52</ele>
        <time>2020-10-29T12:29:01Z</time>
      </trkpt>
      <trkpt lat="44.88641" lon="-0.07059">
        <ele>54</ele>
        <time>2020-10-29T12:29:13Z</time>
      </trkpt>
      <trkpt lat="44.88641" lon="-0.0706">
        <ele>53</ele>
        <time>2020-10-29T12:29:15Z</time>
      </trkpt>
      <trkpt lat="44.8864" lon="-0.07061">
        <ele>53</ele>
        <time>2020-10-29T12:29:17Z</time>
      </trkpt>
      <trkpt lat="44.88639" lon="-0.07062">
        <ele>53</ele>
        <time>2020-10-29T12:29:18Z</time>
      </trkpt>
      <trkpt lat="44.88637" lon="-0.07062">
        <ele>53</ele>
        <time>2020-10-29T12:29:19Z</time>
      </trkpt>
      <trkpt lat="44.88617" lon="-0.07076">
        <ele>51</ele>
        <time>2020-10-29T12:29:37Z</time>
      </trkpt>
      <trkpt lat="44.8861" lon="-0.07089">
        <ele>50</ele>
        <time>2020-10-29T12:29:54Z</time>
      </trkpt>
      <trkpt lat="44.88603" lon="-0.07105">
        <ele>49</ele>
        <time>2020-10-29T12:30:11Z</time>
      </trkpt>
      <trkpt lat="44.88598" lon="-0.07136">
        <ele>47</ele>
        <time>2020-10-29T12:30:29Z</time>
      </trkpt>
      <trkpt lat="44.88598" lon="-0.07143">
        <ele>47</ele>
        <time>2020-10-29T12:30:33Z</time>
      </trkpt>
      <trkpt lat="44.88588" lon="-0.07183">
        <ele>46</ele>
        <time>2020-10-29T12:30:46Z</time>
      </trkpt>
      <trkpt lat="44.88578" lon="-0.07209">
        <ele>45</ele>
        <time>2020-10-29T12:31:00Z</time>
      </trkpt>
      <trkpt lat="44.8857" lon="-0.07226">
        <ele>45</ele>
        <time>2020-10-29T12:31:14Z</time>
      </trkpt>
      <trkpt lat="44.88567" lon="-0.07228">
        <ele>40</ele>
        <time>2020-10-29T12:31:16Z</time>
      </trkpt>
      <trkpt lat="44.88565" lon="-0.0723">
        <ele>53</ele>
        <time>2020-10-29T12:31:18Z</time>
      </trkpt>
      <trkpt lat="44.88564" lon="-0.07231">
        <ele>47</ele>
        <time>2020-10-29T12:31:19Z</time>
      </trkpt>
      <trkpt lat="44.88562" lon="-0.07233">
        <ele>44</ele>
        <time>2020-10-29T12:31:21Z</time>
      </trkpt>
      <trkpt lat="44.88548" lon="-0.07248">
        <ele>43</ele>
        <time>2020-10-29T12:31:40Z</time>
      </trkpt>
      <trkpt lat="44.88544" lon="-0.0725">
        <ele>43</ele>
        <time>2020-10-29T12:31:56Z</time>
      </trkpt>
      <trkpt lat="44.88542" lon="-0.0725">
        <ele>43</ele>
        <time>2020-10-29T12:31:58Z</time>
      </trkpt>
      <trkpt lat="44.88541" lon="-0.07251">
        <ele>43</ele>
        <time>2020-10-29T12:31:59Z</time>
      </trkpt>
      <trkpt lat="44.8854" lon="-0.07251">
        <ele>43</ele>
        <time>2020-10-29T12:32:00Z</time>
      </trkpt>
      <trkpt lat="44.88539" lon="-0.07252">
        <ele>43</ele>
        <time>2020-10-29T12:32:01Z</time>
      </trkpt>
      <trkpt lat="44.88538" lon="-0.07253">
        <ele>43</ele>
        <time>2020-10-29T12:32:02Z</time>
      </trkpt>
      <trkpt lat="44.88537" lon="-0.07254">
        <ele>43</ele>
        <time>2020-10-29T12:32:03Z</time>
      </trkpt>
      <trkpt lat="44.88515" lon="-0.07273">
        <ele>43</ele>
        <time>2020-10-29T12:32:24Z</time>
      </trkpt>
      <trkpt lat="44.88497" lon="-0.07296">
        <ele>43</ele>
        <time>2020-10-29T12:32:44Z</time>
      </trkpt>
      <trkpt lat="44.88484" lon="-0.07322">
        <ele>45</ele>
        <time>2020-10-29T12:33:04Z</time>
      </trkpt>
      <trkpt lat="44.88478" lon="-0.07334">
        <ele>41</ele>
        <time>2020-10-29T12:33:13Z</time>
      </trkpt>
      <trkpt lat="44.88465" lon="-0.07359">
        <ele>40</ele>
        <time>2020-10-29T12:33:31Z</time>
      </trkpt>
      <trkpt lat="44.88462" lon="-0.07364">
        <ele>44</ele>
        <time>2020-10-29T12:33:34Z</time>
      </trkpt>
      <trkpt lat="44.8846" lon="-0.07369">
        <ele>41</ele>
        <time>2020-10-29T12:33:37Z</time>
      </trkpt>
      <trkpt lat="44.88442" lon="-0.07403">
        <ele>41</ele>
        <time>2020-10-29T12:34:02Z</time>
      </trkpt>
      <trkpt lat="44.88427" lon="-0.07431">
        <ele>41</ele>
        <time>2020-10-29T12:34:22Z</time>
      </trkpt>
      <trkpt lat="44.88419" lon="-0.07445">
        <ele>41</ele>
        <time>2020-10-29T12:34:35Z</time>
      </trkpt>
      <trkpt lat="44.88406" lon="-0.07474">
        <ele>41</ele>
        <time>2020-10-29T12:34:53Z</time>
      </trkpt>
      <trkpt lat="44.88399" lon="-0.07502">
        <ele>41</ele>
        <time>2020-10-29T12:35:11Z</time>
      </trkpt>
      <trkpt lat="44.884" lon="-0.07526">
        <ele>42</ele>
        <time>2020-10-29T12:35:30Z</time>
      </trkpt>
      <trkpt lat="44.88407" lon="-0.07564">
        <ele>43</ele>
        <time>2020-10-29T12:35:50Z</time>
      </trkpt>
      <trkpt lat="44.88415" lon="-0.07591">
        <ele>43</ele>
        <time>2020-10-29T12:36:09Z</time>
      </trkpt>
      <trkpt lat="44.88422" lon="-0.07615">
        <ele>44</ele>
        <time>2020-10-29T12:36:25Z</time>
      </trkpt>
      <trkpt lat="44.88426" lon="-0.07624">
        <ele>44</ele>
        <time>2020-10-29T12:36:33Z</time>
      </trkpt>
      <trkpt lat="44.88426" lon="-0.07626">
        <ele>44</ele>
        <time>2020-10-29T12:36:34Z</time>
      </trkpt>
      <trkpt lat="44.88427" lon="-0.07628">
        <ele>44</ele>
        <time>2020-10-29T12:36:35Z</time>
      </trkpt>
      <trkpt lat="44.88427" lon="-0.0763">
        <ele>44</ele>
        <time>2020-10-29T12:36:36Z</time>
      </trkpt>
      <trkpt lat="44.88428" lon="-0.07632">
        <ele>45</ele>
        <time>2020-10-29T12:36:37Z</time>
      </trkpt>
      <trkpt lat="44.88434" lon="-0.07653">
        <ele>45</ele>
        <time>2020-10-29T12:36:51Z</time>
      </trkpt>
      <trkpt lat="44.8844" lon="-0.07675">
        <ele>46</ele>
        <time>2020-10-29T12:37:07Z</time>
      </trkpt>
      <trkpt lat="44.88445" lon="-0.07698">
        <ele>46</ele>
        <time>2020-10-29T12:37:19Z</time>
      </trkpt>
      <trkpt lat="44.88448" lon="-0.07719">
        <ele>46</ele>
        <time>2020-10-29T12:37:36Z</time>
      </trkpt>
      <trkpt lat="44.88451" lon="-0.07741">
        <ele>47</ele>
        <time>2020-10-29T12:37:50Z</time>
      </trkpt>
      <trkpt lat="44.88447" lon="-0.07765">
        <ele>47</ele>
        <time>2020-10-29T12:38:08Z</time>
      </trkpt>
      <trkpt lat="44.88446" lon="-0.07799">
        <ele>47</ele>
        <time>2020-10-29T12:38:23Z</time>
      </trkpt>
      <trkpt lat="44.88448" lon="-0.07828">
        <ele>47</ele>
        <time>2020-10-29T12:38:39Z</time>
      </trkpt>
      <trkpt lat="44.88449" lon="-0.07842">
        <ele>47</ele>
        <time>2020-10-29T12:38:54Z</time>
      </trkpt>
      <trkpt lat="44.88446" lon="-0.07852">
        <ele>46</ele>
        <time>2020-10-29T12:39:07Z</time>
      </trkpt>
      <trkpt lat="44.88446" lon="-0.07855">
        <ele>46</ele>
        <time>2020-10-29T12:39:08Z</time>
      </trkpt>
      <trkpt lat="44.88445" lon="-0.07886">
        <ele>46</ele>
        <time>2020-10-29T12:39:22Z</time>
      </trkpt>
      <trkpt lat="44.88449" lon="-0.07898">
        <ele>46</ele>
        <time>2020-10-29T12:39:35Z</time>
      </trkpt>
      <trkpt lat="44.88454" lon="-0.07916">
        <ele>47</ele>
        <time>2020-10-29T12:39:48Z</time>
      </trkpt>
      <trkpt lat="44.88454" lon="-0.07917">
        <ele>47</ele>
        <time>2020-10-29T12:39:49Z</time>
      </trkpt>
      <trkpt lat="44.88455" lon="-0.0792">
        <ele>47</ele>
        <time>2020-10-29T12:39:50Z</time>
      </trkpt>
      <trkpt lat="44.88456" lon="-0.07926">
        <ele>48</ele>
        <time>2020-10-29T12:39:55Z</time>
      </trkpt>
      <trkpt lat="44.88456" lon="-0.07928">
        <ele>46</ele>
        <time>2020-10-29T12:39:57Z</time>
      </trkpt>
      <trkpt lat="44.88457" lon="-0.07937">
        <ele>47</ele>
        <time>2020-10-29T12:40:11Z</time>
      </trkpt>
      <trkpt lat="44.88457" lon="-0.07938">
        <ele>47</ele>
        <time>2020-10-29T12:40:12Z</time>
      </trkpt>
      <trkpt lat="44.88459" lon="-0.07951">
        <ele>47</ele>
        <time>2020-10-29T12:40:22Z</time>
      </trkpt>
      <trkpt lat="44.88459" lon="-0.07953">
        <ele>47</ele>
        <time>2020-10-29T12:40:23Z</time>
      </trkpt>
      <trkpt lat="44.88458" lon="-0.07973">
        <ele>48</ele>
        <time>2020-10-29T12:40:39Z</time>
      </trkpt>
      <trkpt lat="44.88457" lon="-0.07982">
        <ele>48</ele>
        <time>2020-10-29T12:40:46Z</time>
      </trkpt>
      <trkpt lat="44.88456" lon="-0.07984">
        <ele>48</ele>
        <time>2020-10-29T12:40:47Z</time>
      </trkpt>
      <trkpt lat="44.88456" lon="-0.07985">
        <ele>48</ele>
        <time>2020-10-29T12:40:48Z</time>
      </trkpt>
      <trkpt lat="44.88455" lon="-0.07987">
        <ele>48</ele>
        <time>2020-10-29T12:40:49Z</time>
      </trkpt>
      <trkpt lat="44.88454" lon="-0.07988">
        <ele>48</ele>
        <time>2020-10-29T12:40:50Z</time>
      </trkpt>
      <trkpt lat="44.88443" lon="-0.08018">
        <ele>48</ele>
        <time>2020-10-29T12:41:10Z</time>
      </trkpt>
      <trkpt lat="44.88434" lon="-0.0804">
        <ele>48</ele>
        <time>2020-10-29T12:41:28Z</time>
      </trkpt>
      <trkpt lat="44.88433" lon="-0.08041">
        <ele>48</ele>
        <time>2020-10-29T12:41:29Z</time>
      </trkpt>
      <trkpt lat="44.88418" lon="-0.08063">
        <ele>47</ele>
        <time>2020-10-29T12:41:45Z</time>
      </trkpt>
      <trkpt lat="44.88401" lon="-0.08078">
        <ele>46</ele>
        <time>2020-10-29T12:42:04Z</time>
      </trkpt>
      <trkpt lat="44.88387" lon="-0.08078">
        <ele>46</ele>
        <time>2020-10-29T12:42:17Z</time>
      </trkpt>
      <trkpt lat="44.88377" lon="-0.08079">
        <ele>45</ele>
        <time>2020-10-29T12:42:31Z</time>
      </trkpt>
      <trkpt lat="44.8838" lon="-0.08079">
        <ele>46</ele>
        <time>2020-10-29T12:42:34Z</time>
      </trkpt>
      <trkpt lat="44.88385" lon="-0.08081">
        <ele>46</ele>
        <time>2020-10-29T12:42:39Z</time>
      </trkpt>
      <trkpt lat="44.88386" lon="-0.0808">
        <ele>46</ele>
        <time>2020-10-29T12:42:40Z</time>
      </trkpt>
      <trkpt lat="44.88386" lon="-0.08086">
        <ele>46</ele>
        <time>2020-10-29T12:42:52Z</time>
      </trkpt>
      <trkpt lat="44.88387" lon="-0.08092">
        <ele>46</ele>
        <time>2020-10-29T12:43:04Z</time>
      </trkpt>
      <trkpt lat="44.88386" lon="-0.08093">
        <ele>46</ele>
        <time>2020-10-29T12:43:05Z</time>
      </trkpt>
      <trkpt lat="44.88385" lon="-0.08094">
        <ele>47</ele>
        <time>2020-10-29T12:43:06Z</time>
      </trkpt>
      <trkpt lat="44.88383" lon="-0.08095">
        <ele>47</ele>
        <time>2020-10-29T12:43:07Z</time>
      </trkpt>
      <trkpt lat="44.88383" lon="-0.08097">
        <ele>47</ele>
        <time>2020-10-29T12:43:08Z</time>
      </trkpt>
      <trkpt lat="44.88376" lon="-0.0811">
        <ele>47</ele>
        <time>2020-10-29T12:43:19Z</time>
      </trkpt>
      <trkpt lat="44.88369" lon="-0.08126">
        <ele>47</ele>
        <time>2020-10-29T12:43:32Z</time>
      </trkpt>
      <trkpt lat="44.88359" lon="-0.08148">
        <ele>47</ele>
        <time>2020-10-29T12:43:48Z</time>
      </trkpt>
      <trkpt lat="44.88351" lon="-0.08165">
        <ele>48</ele>
        <time>2020-10-29T12:44:02Z</time>
      </trkpt>
      <trkpt lat="44.88343" lon="-0.08185">
        <ele>49</ele>
        <time>2020-10-29T12:44:17Z</time>
      </trkpt>
      <trkpt lat="44.8834" lon="-0.08194">
        <ele>49</ele>
        <time>2020-10-29T12:44:25Z</time>
      </trkpt>
      <trkpt lat="44.88331" lon="-0.08211">
        <ele>50</ele>
        <time>2020-10-29T12:44:38Z</time>
      </trkpt>
      <trkpt lat="44.8833" lon="-0.08213">
        <ele>50</ele>
        <time>2020-10-29T12:44:41Z</time>
      </trkpt>
      <trkpt lat="44.88327" lon="-0.08222">
        <ele>50</ele>
        <time>2020-10-29T12:44:48Z</time>
      </trkpt>
      <trkpt lat="44.88337" lon="-0.08239">
        <ele>51</ele>
        <time>2020-10-29T12:45:03Z</time>
      </trkpt>
      <trkpt lat="44.88345" lon="-0.0825">
        <ele>52</ele>
        <time>2020-10-29T12:45:14Z</time>
      </trkpt>
      <trkpt lat="44.88352" lon="-0.08261">
        <ele>53</ele>
        <time>2020-10-29T12:45:28Z</time>
      </trkpt>
      <trkpt lat="44.88351" lon="-0.08263">
        <ele>53</ele>
        <time>2020-10-29T12:45:30Z</time>
      </trkpt>
      <trkpt lat="44.88349" lon="-0.08265">
        <ele>54</ele>
        <time>2020-10-29T12:45:33Z</time>
      </trkpt>
      <trkpt lat="44.88339" lon="-0.08276">
        <ele>54</ele>
        <time>2020-10-29T12:45:47Z</time>
      </trkpt>
      <trkpt lat="44.88328" lon="-0.08288">
        <ele>54</ele>
        <time>2020-10-29T12:45:59Z</time>
      </trkpt>
      <trkpt lat="44.8832" lon="-0.08299">
        <ele>55</ele>
        <time>2020-10-29T12:46:10Z</time>
      </trkpt>
      <trkpt lat="44.88313" lon="-0.0831">
        <ele>54</ele>
        <time>2020-10-29T12:46:21Z</time>
      </trkpt>
      <trkpt lat="44.88312" lon="-0.08311">
        <ele>48</ele>
        <time>2020-10-29T12:46:22Z</time>
      </trkpt>
      <trkpt lat="44.88311" lon="-0.08312">
        <ele>50</ele>
        <time>2020-10-29T12:46:23Z</time>
      </trkpt>
      <trkpt lat="44.88311" lon="-0.08313">
        <ele>64</ele>
        <time>2020-10-29T12:46:24Z</time>
      </trkpt>
      <trkpt lat="44.8831" lon="-0.08314">
        <ele>58</ele>
        <time>2020-10-29T12:46:25Z</time>
      </trkpt>
      <trkpt lat="44.88309" lon="-0.08315">
        <ele>55</ele>
        <time>2020-10-29T12:46:26Z</time>
      </trkpt>
      <trkpt lat="44.88298" lon="-0.08333">
        <ele>54</ele>
        <time>2020-10-29T12:46:44Z</time>
      </trkpt>
      <trkpt lat="44.88296" lon="-0.0834">
        <ele>54</ele>
        <time>2020-10-29T12:47:00Z</time>
      </trkpt>
      <trkpt lat="44.88292" lon="-0.08343">
        <ele>54</ele>
        <time>2020-10-29T12:47:17Z</time>
      </trkpt>
      <trkpt lat="44.88291" lon="-0.0834">
        <ele>54</ele>
        <time>2020-10-29T12:47:40Z</time>
      </trkpt>
      <trkpt lat="44.88294" lon="-0.08346">
        <ele>53</ele>
        <time>2020-10-29T12:47:55Z</time>
      </trkpt>
      <trkpt lat="44.88295" lon="-0.08347">
        <ele>53</ele>
        <time>2020-10-29T12:47:56Z</time>
      </trkpt>
      <trkpt lat="44.88304" lon="-0.08359">
        <ele>55</ele>
        <time>2020-10-29T12:48:09Z</time>
      </trkpt>
      <trkpt lat="44.88313" lon="-0.08371">
        <ele>57</ele>
        <time>2020-10-29T12:48:22Z</time>
      </trkpt>
      <trkpt lat="44.88315" lon="-0.08372">
        <ele>57</ele>
        <time>2020-10-29T12:48:26Z</time>
      </trkpt>
      <trkpt lat="44.88315" lon="-0.0838">
        <ele>58</ele>
        <time>2020-10-29T12:48:33Z</time>
      </trkpt>
      <trkpt lat="44.8831" lon="-0.08387">
        <ele>60</ele>
        <time>2020-10-29T12:48:45Z</time>
      </trkpt>
      <trkpt lat="44.88303" lon="-0.08397">
        <ele>60</ele>
        <time>2020-10-29T12:48:57Z</time>
      </trkpt>
      <trkpt lat="44.88294" lon="-0.08407">
        <ele>61</ele>
        <time>2020-10-29T12:49:08Z</time>
      </trkpt>
      <trkpt lat="44.88284" lon="-0.08419">
        <ele>61</ele>
        <time>2020-10-29T12:49:20Z</time>
      </trkpt>
      <trkpt lat="44.88272" lon="-0.08434">
        <ele>60</ele>
        <time>2020-10-29T12:49:32Z</time>
      </trkpt>
      <trkpt lat="44.88266" lon="-0.08447">
        <ele>59</ele>
        <time>2020-10-29T12:49:46Z</time>
      </trkpt>
      <trkpt lat="44.88262" lon="-0.0845">
        <ele>59</ele>
        <time>2020-10-29T12:49:49Z</time>
      </trkpt>
      <trkpt lat="44.88257" lon="-0.08457">
        <ele>58</ele>
        <time>2020-10-29T12:49:54Z</time>
      </trkpt>
      <trkpt lat="44.88241" lon="-0.08479">
        <ele>57</ele>
        <time>2020-10-29T12:50:12Z</time>
      </trkpt>
      <trkpt lat="44.88225" lon="-0.08493">
        <ele>56</ele>
        <time>2020-10-29T12:50:25Z</time>
      </trkpt>
      <trkpt lat="44.88212" lon="-0.08513">
        <ele>55</ele>
        <time>2020-10-29T12:50:39Z</time>
      </trkpt>
      <trkpt lat="44.88212" lon="-0.08514">
        <ele>54</ele>
        <time>2020-10-29T12:50:44Z</time>
      </trkpt>
      <trkpt lat="44.88201" lon="-0.08522">
        <ele>53</ele>
        <time>2020-10-29T12:50:56Z</time>
      </trkpt>
      <trkpt lat="44.88195" lon="-0.08527">
        <ele>61</ele>
        <time>2020-10-29T12:51:04Z</time>
      </trkpt>
      <trkpt lat="44.88196" lon="-0.08527">
        <ele>58</ele>
        <time>2020-10-29T12:51:05Z</time>
      </trkpt>
      <trkpt lat="44.88196" lon="-0.08527">
        <ele>52</ele>
        <time>2020-10-29T12:51:06Z</time>
      </trkpt>
      <trkpt lat="44.88195" lon="-0.08527">
        <ele>52</ele>
        <time>2020-10-29T12:51:07Z</time>
      </trkpt>
      <trkpt lat="44.88196" lon="-0.08526">
        <ele>57</ele>
        <time>2020-10-29T12:51:09Z</time>
      </trkpt>
      <trkpt lat="44.88196" lon="-0.08526">
        <ele>54</ele>
        <time>2020-10-29T12:51:10Z</time>
      </trkpt>
      <trkpt lat="44.88197" lon="-0.08525">
        <ele>53</ele>
        <time>2020-10-29T12:51:12Z</time>
      </trkpt>
      <trkpt lat="44.88197" lon="-0.08528">
        <ele>53</ele>
        <time>2020-10-29T12:51:32Z</time>
      </trkpt>
      <trkpt lat="44.8819" lon="-0.08539">
        <ele>53</ele>
        <time>2020-10-29T12:51:45Z</time>
      </trkpt>
      <trkpt lat="44.88185" lon="-0.08543">
        <ele>53</ele>
        <time>2020-10-29T12:51:55Z</time>
      </trkpt>
      <trkpt lat="44.88182" lon="-0.08546">
        <ele>53</ele>
        <time>2020-10-29T12:51:59Z</time>
      </trkpt>
      <trkpt lat="44.88179" lon="-0.0855">
        <ele>53</ele>
        <time>2020-10-29T12:52:03Z</time>
      </trkpt>
      <trkpt lat="44.88182" lon="-0.08564">
        <ele>54</ele>
        <time>2020-10-29T12:52:16Z</time>
      </trkpt>
      <trkpt lat="44.88186" lon="-0.08572">
        <ele>56</ele>
        <time>2020-10-29T12:52:31Z</time>
      </trkpt>
      <trkpt lat="44.88186" lon="-0.08576">
        <ele>56</ele>
        <time>2020-10-29T12:52:46Z</time>
      </trkpt>
      <trkpt lat="44.88192" lon="-0.08588">
        <ele>58</ele>
        <time>2020-10-29T12:53:01Z</time>
      </trkpt>
      <trkpt lat="44.88197" lon="-0.08597">
        <ele>60</ele>
        <time>2020-10-29T12:53:12Z</time>
      </trkpt>
      <trkpt lat="44.88201" lon="-0.08602">
        <ele>61</ele>
        <time>2020-10-29T12:53:26Z</time>
      </trkpt>
      <trkpt lat="44.88206" lon="-0.0861">
        <ele>62</ele>
        <time>2020-10-29T12:53:40Z</time>
      </trkpt>
      <trkpt lat="44.88211" lon="-0.08614">
        <ele>63</ele>
        <time>2020-10-29T12:53:55Z</time>
      </trkpt>
      <trkpt lat="44.8822" lon="-0.08606">
        <ele>64</ele>
        <time>2020-10-29T12:54:07Z</time>
      </trkpt>
      <trkpt lat="44.88229" lon="-0.08593">
        <ele>64</ele>
        <time>2020-10-29T12:54:20Z</time>
      </trkpt>
      <trkpt lat="44.88234" lon="-0.08588">
        <ele>65</ele>
        <time>2020-10-29T12:54:26Z</time>
      </trkpt>
      <trkpt lat="44.88236" lon="-0.08587">
        <ele>65</ele>
        <time>2020-10-29T12:54:39Z</time>
      </trkpt>
      <trkpt lat="44.88236" lon="-0.08586">
        <ele>65</ele>
        <time>2020-10-29T12:54:40Z</time>
      </trkpt>
      <trkpt lat="44.88239" lon="-0.08585">
        <ele>65</ele>
        <time>2020-10-29T12:54:42Z</time>
      </trkpt>
      <trkpt lat="44.88249" lon="-0.08576">
        <ele>66</ele>
        <time>2020-10-29T12:54:54Z</time>
      </trkpt>
      <trkpt lat="44.88257" lon="-0.0858">
        <ele>67</ele>
        <time>2020-10-29T12:55:02Z</time>
      </trkpt>
      <trkpt lat="44.88259" lon="-0.08584">
        <ele>68</ele>
        <time>2020-10-29T12:55:05Z</time>
      </trkpt>
      <trkpt lat="44.88261" lon="-0.08591">
        <ele>69</ele>
        <time>2020-10-29T12:55:11Z</time>
      </trkpt>
      <trkpt lat="44.88263" lon="-0.08593">
        <ele>69</ele>
        <time>2020-10-29T12:55:16Z</time>
      </trkpt>
      <trkpt lat="44.88255" lon="-0.08601">
        <ele>70</ele>
        <time>2020-10-29T12:55:26Z</time>
      </trkpt>
      <trkpt lat="44.88254" lon="-0.08602">
        <ele>70</ele>
        <time>2020-10-29T12:55:27Z</time>
      </trkpt>
      <trkpt lat="44.8825" lon="-0.08608">
        <ele>70</ele>
        <time>2020-10-29T12:55:33Z</time>
      </trkpt>
      <trkpt lat="44.88244" lon="-0.08613">
        <ele>71</ele>
        <time>2020-10-29T12:55:46Z</time>
      </trkpt>
      <trkpt lat="44.88241" lon="-0.08614">
        <ele>71</ele>
        <time>2020-10-29T12:55:51Z</time>
      </trkpt>
      <trkpt lat="44.88238" lon="-0.08621">
        <ele>71</ele>
        <time>2020-10-29T12:55:55Z</time>
      </trkpt>
      <trkpt lat="44.88227" lon="-0.08633">
        <ele>73</ele>
        <time>2020-10-29T12:56:07Z</time>
      </trkpt>
      <trkpt lat="44.88224" lon="-0.08636">
        <ele>74</ele>
        <time>2020-10-29T12:56:12Z</time>
      </trkpt>
      <trkpt lat="44.88221" lon="-0.08642">
        <ele>74</ele>
        <time>2020-10-29T12:56:18Z</time>
      </trkpt>
      <trkpt lat="44.88235" lon="-0.08636">
        <ele>76</ele>
        <time>2020-10-29T12:56:33Z</time>
      </trkpt>
      <trkpt lat="44.88242" lon="-0.08633">
        <ele>77</ele>
        <time>2020-10-29T12:56:41Z</time>
      </trkpt>
      <trkpt lat="44.88255" lon="-0.08628">
        <ele>78</ele>
        <time>2020-10-29T12:56:55Z</time>
      </trkpt>
      <trkpt lat="44.88261" lon="-0.0863">
        <ele>78</ele>
        <time>2020-10-29T12:57:02Z</time>
      </trkpt>
      <trkpt lat="44.88272" lon="-0.08636">
        <ele>79</ele>
        <time>2020-10-29T12:57:13Z</time>
      </trkpt>
      <trkpt lat="44.88278" lon="-0.08647">
        <ele>80</ele>
        <time>2020-10-29T12:57:23Z</time>
      </trkpt>
      <trkpt lat="44.88287" lon="-0.08661">
        <ele>81</ele>
        <time>2020-10-29T12:57:35Z</time>
      </trkpt>
      <trkpt lat="44.8829" lon="-0.08668">
        <ele>82</ele>
        <time>2020-10-29T12:57:39Z</time>
      </trkpt>
      <trkpt lat="44.88298" lon="-0.08684">
        <ele>82</ele>
        <time>2020-10-29T12:57:51Z</time>
      </trkpt>
      <trkpt lat="44.88304" lon="-0.08699">
        <ele>83</ele>
        <time>2020-10-29T12:58:05Z</time>
      </trkpt>
      <trkpt lat="44.8831" lon="-0.08709">
        <ele>83</ele>
        <time>2020-10-29T12:58:16Z</time>
      </trkpt>
      <trkpt lat="44.88312" lon="-0.08715">
        <ele>83</ele>
        <time>2020-10-29T12:58:27Z</time>
      </trkpt>
      <trkpt lat="44.88317" lon="-0.08743">
        <ele>83</ele>
        <time>2020-10-29T12:58:42Z</time>
      </trkpt>
      <trkpt lat="44.88321" lon="-0.08756">
        <ele>83</ele>
        <time>2020-10-29T12:58:55Z</time>
      </trkpt>
      <trkpt lat="44.8832" lon="-0.08781">
        <ele>83</ele>
        <time>2020-10-29T12:59:10Z</time>
      </trkpt>
      <trkpt lat="44.88321" lon="-0.08792">
        <ele>83</ele>
        <time>2020-10-29T12:59:24Z</time>
      </trkpt>
      <trkpt lat="44.88318" lon="-0.08805">
        <ele>83</ele>
        <time>2020-10-29T12:59:34Z</time>
      </trkpt>
      <trkpt lat="44.88313" lon="-0.08829">
        <ele>83</ele>
        <time>2020-10-29T12:59:51Z</time>
      </trkpt>
      <trkpt lat="44.88311" lon="-0.08845">
        <ele>82</ele>
        <time>2020-10-29T13:00:01Z</time>
      </trkpt>
      <trkpt lat="44.88306" lon="-0.08878">
        <ele>82</ele>
        <time>2020-10-29T13:00:16Z</time>
      </trkpt>
      <trkpt lat="44.88303" lon="-0.08892">
        <ele>82</ele>
        <time>2020-10-29T13:00:28Z</time>
      </trkpt>
      <trkpt lat="44.88298" lon="-0.08908">
        <ele>75</ele>
        <time>2020-10-29T13:00:38Z</time>
      </trkpt>
      <trkpt lat="44.88298" lon="-0.08909">
        <ele>75</ele>
        <time>2020-10-29T13:00:39Z</time>
      </trkpt>
      <trkpt lat="44.88298" lon="-0.0891">
        <ele>93</ele>
        <time>2020-10-29T13:00:40Z</time>
      </trkpt>
      <trkpt lat="44.88297" lon="-0.08911">
        <ele>85</ele>
        <time>2020-10-29T13:00:41Z</time>
      </trkpt>
      <trkpt lat="44.88296" lon="-0.08917">
        <ele>82</ele>
        <time>2020-10-29T13:00:58Z</time>
      </trkpt>
      <trkpt lat="44.883" lon="-0.08932">
        <ele>82</ele>
        <time>2020-10-29T13:01:13Z</time>
      </trkpt>
      <trkpt lat="44.88305" lon="-0.08933">
        <ele>82</ele>
        <time>2020-10-29T13:01:27Z</time>
      </trkpt>
      <trkpt lat="44.883" lon="-0.08926">
        <ele>82</ele>
        <time>2020-10-29T13:01:48Z</time>
      </trkpt>
      <trkpt lat="44.88296" lon="-0.08924">
        <ele>82</ele>
        <time>2020-10-29T13:01:57Z</time>
      </trkpt>
      <trkpt lat="44.88286" lon="-0.08928">
        <ele>82</ele>
        <time>2020-10-29T13:02:07Z</time>
      </trkpt>
      <trkpt lat="44.88276" lon="-0.08937">
        <ele>82</ele>
        <time>2020-10-29T13:02:24Z</time>
      </trkpt>
      <trkpt lat="44.88272" lon="-0.08938">
        <ele>82</ele>
        <time>2020-10-29T13:02:36Z</time>
      </trkpt>
      <trkpt lat="44.88269" lon="-0.08938">
        <ele>82</ele>
        <time>2020-10-29T13:02:40Z</time>
      </trkpt>
      <trkpt lat="44.88246" lon="-0.08936">
        <ele>82</ele>
        <time>2020-10-29T13:03:02Z</time>
      </trkpt>
      <trkpt lat="44.88233" lon="-0.08935">
        <ele>81</ele>
        <time>2020-10-29T13:03:15Z</time>
      </trkpt>
      <trkpt lat="44.88225" lon="-0.08935">
        <ele>81</ele>
        <time>2020-10-29T13:03:23Z</time>
      </trkpt>
      <trkpt lat="44.88211" lon="-0.08936">
        <ele>80</ele>
        <time>2020-10-29T13:03:40Z</time>
      </trkpt>
      <trkpt lat="44.88202" lon="-0.08943">
        <ele>80</ele>
        <time>2020-10-29T13:03:57Z</time>
      </trkpt>
      <trkpt lat="44.88192" lon="-0.08947">
        <ele>80</ele>
        <time>2020-10-29T13:04:10Z</time>
      </trkpt>
      <trkpt lat="44.88187" lon="-0.08943">
        <ele>79</ele>
        <time>2020-10-29T13:04:28Z</time>
      </trkpt>
      <trkpt lat="44.88184" lon="-0.08943">
        <ele>79</ele>
        <time>2020-10-29T13:04:45Z</time>
      </trkpt>
      <trkpt lat="44.88185" lon="-0.08944">
        <ele>79</ele>
        <time>2020-10-29T13:04:50Z</time>
      </trkpt>
      <trkpt lat="44.88186" lon="-0.08942">
        <ele>80</ele>
        <time>2020-10-29T13:05:06Z</time>
      </trkpt>
      <trkpt lat="44.88186" lon="-0.0894">
        <ele>80</ele>
        <time>2020-10-29T13:05:27Z</time>
      </trkpt>
      <trkpt lat="44.88183" lon="-0.08941">
        <ele>80</ele>
        <time>2020-10-29T13:05:47Z</time>
      </trkpt>
      <trkpt lat="44.88182" lon="-0.08941">
        <ele>80</ele>
        <time>2020-10-29T13:06:05Z</time>
      </trkpt>
      <trkpt lat="44.88181" lon="-0.08939">
        <ele>80</ele>
        <time>2020-10-29T13:06:28Z</time>
      </trkpt>
      <trkpt lat="44.88179" lon="-0.08932">
        <ele>80</ele>
        <time>2020-10-29T13:06:48Z</time>
      </trkpt>
      <trkpt lat="44.88183" lon="-0.08942">
        <ele>79</ele>
        <time>2020-10-29T13:07:10Z</time>
      </trkpt>
      <trkpt lat="44.8819" lon="-0.08942">
        <ele>79</ele>
        <time>2020-10-29T13:07:27Z</time>
      </trkpt>
      <trkpt lat="44.88194" lon="-0.08941">
        <ele>79</ele>
        <time>2020-10-29T13:07:48Z</time>
      </trkpt>
      <trkpt lat="44.88196" lon="-0.08937">
        <ele>77</ele>
        <time>2020-10-29T13:07:54Z</time>
      </trkpt>
      <trkpt lat="44.88198" lon="-0.08936">
        <ele>82</ele>
        <time>2020-10-29T13:07:56Z</time>
      </trkpt>
      <trkpt lat="44.88199" lon="-0.08935">
        <ele>79</ele>
        <time>2020-10-29T13:07:57Z</time>
      </trkpt>
      <trkpt lat="44.88215" lon="-0.08931">
        <ele>79</ele>
        <time>2020-10-29T13:08:10Z</time>
      </trkpt>
      <trkpt lat="44.88227" lon="-0.08932">
        <ele>79</ele>
        <time>2020-10-29T13:08:22Z</time>
      </trkpt>
      <trkpt lat="44.88238" lon="-0.08933">
        <ele>79</ele>
        <time>2020-10-29T13:08:31Z</time>
      </trkpt>
      <trkpt lat="44.88253" lon="-0.08935">
        <ele>80</ele>
        <time>2020-10-29T13:08:45Z</time>
      </trkpt>
      <trkpt lat="44.88266" lon="-0.08936">
        <ele>80</ele>
        <time>2020-10-29T13:08:57Z</time>
      </trkpt>
      <trkpt lat="44.88269" lon="-0.08936">
        <ele>80</ele>
        <time>2020-10-29T13:09:01Z</time>
      </trkpt>
      <trkpt lat="44.88279" lon="-0.08929">
        <ele>81</ele>
        <time>2020-10-29T13:09:14Z</time>
      </trkpt>
      <trkpt lat="44.88293" lon="-0.08915">
        <ele>81</ele>
        <time>2020-10-29T13:09:26Z</time>
      </trkpt>
      <trkpt lat="44.88294" lon="-0.08914">
        <ele>81</ele>
        <time>2020-10-29T13:09:30Z</time>
      </trkpt>
      <trkpt lat="44.88301" lon="-0.08898">
        <ele>81</ele>
        <time>2020-10-29T13:09:43Z</time>
      </trkpt>
      <trkpt lat="44.88303" lon="-0.08896">
        <ele>81</ele>
        <time>2020-10-29T13:09:46Z</time>
      </trkpt>
      <trkpt lat="44.88304" lon="-0.08892">
        <ele>81</ele>
        <time>2020-10-29T13:09:48Z</time>
      </trkpt>
      <trkpt lat="44.88306" lon="-0.08881">
        <ele>81</ele>
        <time>2020-10-29T13:10:04Z</time>
      </trkpt>
      <trkpt lat="44.88307" lon="-0.08866">
        <ele>81</ele>
        <time>2020-10-29T13:10:23Z</time>
      </trkpt>
      <trkpt lat="44.88308" lon="-0.0886">
        <ele>81</ele>
        <time>2020-10-29T13:10:27Z</time>
      </trkpt>
      <trkpt lat="44.88312" lon="-0.08836">
        <ele>81</ele>
        <time>2020-10-29T13:10:42Z</time>
      </trkpt>
      <trkpt lat="44.88314" lon="-0.08815">
        <ele>81</ele>
        <time>2020-10-29T13:10:56Z</time>
      </trkpt>
      <trkpt lat="44.88317" lon="-0.08794">
        <ele>81</ele>
        <time>2020-10-29T13:11:10Z</time>
      </trkpt>
      <trkpt lat="44.88317" lon="-0.08792">
        <ele>82</ele>
        <time>2020-10-29T13:11:27Z</time>
      </trkpt>
      <trkpt lat="44.88317" lon="-0.08788">
        <ele>82</ele>
        <time>2020-10-29T13:11:44Z</time>
      </trkpt>
      <trkpt lat="44.88318" lon="-0.08784">
        <ele>82</ele>
        <time>2020-10-29T13:11:50Z</time>
      </trkpt>
      <trkpt lat="44.88318" lon="-0.0878">
        <ele>82</ele>
        <time>2020-10-29T13:11:52Z</time>
      </trkpt>
      <trkpt lat="44.88318" lon="-0.08763">
        <ele>82</ele>
        <time>2020-10-29T13:12:03Z</time>
      </trkpt>
      <trkpt lat="44.88319" lon="-0.08755">
        <ele>82</ele>
        <time>2020-10-29T13:12:08Z</time>
      </trkpt>
      <trkpt lat="44.88323" lon="-0.08741">
        <ele>82</ele>
        <time>2020-10-29T13:12:19Z</time>
      </trkpt>
      <trkpt lat="44.88327" lon="-0.08737">
        <ele>82</ele>
        <time>2020-10-29T13:12:23Z</time>
      </trkpt>
      <trkpt lat="44.88341" lon="-0.0873">
        <ele>82</ele>
        <time>2020-10-29T13:12:37Z</time>
      </trkpt>
      <trkpt lat="44.88349" lon="-0.08724">
        <ele>82</ele>
        <time>2020-10-29T13:12:55Z</time>
      </trkpt>
      <trkpt lat="44.88363" lon="-0.08718">
        <ele>82</ele>
        <time>2020-10-29T13:13:09Z</time>
      </trkpt>
      <trkpt lat="44.88377" lon="-0.0871">
        <ele>81</ele>
        <time>2020-10-29T13:13:23Z</time>
      </trkpt>
      <trkpt lat="44.88389" lon="-0.087">
        <ele>81</ele>
        <time>2020-10-29T13:13:36Z</time>
      </trkpt>
      <trkpt lat="44.8841" lon="-0.08684">
        <ele>81</ele>
        <time>2020-10-29T13:13:56Z</time>
      </trkpt>
      <trkpt lat="44.88427" lon="-0.08671">
        <ele>81</ele>
        <time>2020-10-29T13:14:14Z</time>
      </trkpt>
      <trkpt lat="44.88442" lon="-0.08662">
        <ele>81</ele>
        <time>2020-10-29T13:14:29Z</time>
      </trkpt>
      <trkpt lat="44.88464" lon="-0.08655">
        <ele>81</ele>
        <time>2020-10-29T13:14:44Z</time>
      </trkpt>
      <trkpt lat="44.88486" lon="-0.08644">
        <ele>81</ele>
        <time>2020-10-29T13:15:01Z</time>
      </trkpt>
      <trkpt lat="44.88499" lon="-0.08633">
        <ele>82</ele>
        <time>2020-10-29T13:15:14Z</time>
      </trkpt>
      <trkpt lat="44.88521" lon="-0.08617">
        <ele>82</ele>
        <time>2020-10-29T13:15:32Z</time>
      </trkpt>
      <trkpt lat="44.88539" lon="-0.08605">
        <ele>82</ele>
        <time>2020-10-29T13:15:45Z</time>
      </trkpt>
      <trkpt lat="44.88549" lon="-0.08599">
        <ele>82</ele>
        <time>2020-10-29T13:15:56Z</time>
      </trkpt>
      <trkpt lat="44.88558" lon="-0.08585">
        <ele>83</ele>
        <time>2020-10-29T13:16:15Z</time>
      </trkpt>
      <trkpt lat="44.88564" lon="-0.08579">
        <ele>83</ele>
        <time>2020-10-29T13:16:22Z</time>
      </trkpt>
      <trkpt lat="44.88565" lon="-0.08578">
        <ele>83</ele>
        <time>2020-10-29T13:16:23Z</time>
      </trkpt>
      <trkpt lat="44.88567" lon="-0.08576">
        <ele>81</ele>
        <time>2020-10-29T13:16:24Z</time>
      </trkpt>
      <trkpt lat="44.88579" lon="-0.08565">
        <ele>83</ele>
        <time>2020-10-29T13:16:35Z</time>
      </trkpt>
      <trkpt lat="44.88593" lon="-0.0855">
        <ele>83</ele>
        <time>2020-10-29T13:16:50Z</time>
      </trkpt>
      <trkpt lat="44.88613" lon="-0.08527">
        <ele>83</ele>
        <time>2020-10-29T13:17:08Z</time>
      </trkpt>
      <trkpt lat="44.88632" lon="-0.08511">
        <ele>83</ele>
        <time>2020-10-29T13:17:22Z</time>
      </trkpt>
      <trkpt lat="44.88638" lon="-0.0851">
        <ele>83</ele>
        <time>2020-10-29T13:17:32Z</time>
      </trkpt>
      <trkpt lat="44.88643" lon="-0.08496">
        <ele>83</ele>
        <time>2020-10-29T13:17:48Z</time>
      </trkpt>
      <trkpt lat="44.8866" lon="-0.08482">
        <ele>83</ele>
        <time>2020-10-29T13:18:00Z</time>
      </trkpt>
      <trkpt lat="44.88674" lon="-0.08487">
        <ele>83</ele>
        <time>2020-10-29T13:18:14Z</time>
      </trkpt>
      <trkpt lat="44.88674" lon="-0.0851">
        <ele>83</ele>
        <time>2020-10-29T13:18:29Z</time>
      </trkpt>
      <trkpt lat="44.88675" lon="-0.08513">
        <ele>83</ele>
        <time>2020-10-29T13:18:31Z</time>
      </trkpt>
      <trkpt lat="44.88675" lon="-0.08515">
        <ele>83</ele>
        <time>2020-10-29T13:18:32Z</time>
      </trkpt>
      <trkpt lat="44.88676" lon="-0.08516">
        <ele>83</ele>
        <time>2020-10-29T13:18:33Z</time>
      </trkpt>
      <trkpt lat="44.88677" lon="-0.08517">
        <ele>83</ele>
        <time>2020-10-29T13:18:34Z</time>
      </trkpt>
      <trkpt lat="44.88678" lon="-0.08518">
        <ele>83</ele>
        <time>2020-10-29T13:18:35Z</time>
      </trkpt>
      <trkpt lat="44.88684" lon="-0.08527">
        <ele>83</ele>
        <time>2020-10-29T13:18:44Z</time>
      </trkpt>
      <trkpt lat="44.8869" lon="-0.08544">
        <ele>83</ele>
        <time>2020-10-29T13:18:56Z</time>
      </trkpt>
      <trkpt lat="44.88691" lon="-0.08548">
        <ele>83</ele>
        <time>2020-10-29T13:18:59Z</time>
      </trkpt>
      <trkpt lat="44.88694" lon="-0.0857">
        <ele>83</ele>
        <time>2020-10-29T13:19:13Z</time>
      </trkpt>
      <trkpt lat="44.88696" lon="-0.08586">
        <ele>83</ele>
        <time>2020-10-29T13:19:24Z</time>
      </trkpt>
      <trkpt lat="44.88698" lon="-0.08596">
        <ele>84</ele>
        <time>2020-10-29T13:19:31Z</time>
      </trkpt>
      <trkpt lat="44.88703" lon="-0.08614">
        <ele>84</ele>
        <time>2020-10-29T13:19:44Z</time>
      </trkpt>
      <trkpt lat="44.88708" lon="-0.08637">
        <ele>84</ele>
        <time>2020-10-29T13:19:58Z</time>
      </trkpt>
      <trkpt lat="44.88712" lon="-0.0866">
        <ele>85</ele>
        <time>2020-10-29T13:20:14Z</time>
      </trkpt>
      <trkpt lat="44.88714" lon="-0.08668">
        <ele>79</ele>
        <time>2020-10-29T13:20:19Z</time>
      </trkpt>
      <trkpt lat="44.88715" lon="-0.0867">
        <ele>73</ele>
        <time>2020-10-29T13:20:20Z</time>
      </trkpt>
      <trkpt lat="44.88715" lon="-0.08671">
        <ele>91</ele>
        <time>2020-10-29T13:20:21Z</time>
      </trkpt>
      <trkpt lat="44.88716" lon="-0.08672">
        <ele>84</ele>
        <time>2020-10-29T13:20:22Z</time>
      </trkpt>
      <trkpt lat="44.88717" lon="-0.08679">
        <ele>89</ele>
        <time>2020-10-29T13:20:26Z</time>
      </trkpt>
      <trkpt lat="44.88718" lon="-0.0868">
        <ele>95</ele>
        <time>2020-10-29T13:20:27Z</time>
      </trkpt>
      <trkpt lat="44.88718" lon="-0.08681">
        <ele>86</ele>
        <time>2020-10-29T13:20:28Z</time>
      </trkpt>
      <trkpt lat="44.88719" lon="-0.08685">
        <ele>85</ele>
        <time>2020-10-29T13:20:30Z</time>
      </trkpt>
      <trkpt lat="44.88724" lon="-0.08713">
        <ele>85</ele>
        <time>2020-10-29T13:20:48Z</time>
      </trkpt>
      <trkpt lat="44.8873" lon="-0.08742">
        <ele>85</ele>
        <time>2020-10-29T13:21:06Z</time>
      </trkpt>
      <trkpt lat="44.88736" lon="-0.08777">
        <ele>85</ele>
        <time>2020-10-29T13:21:28Z</time>
      </trkpt>
      <trkpt lat="44.88743" lon="-0.08805">
        <ele>86</ele>
        <time>2020-10-29T13:21:46Z</time>
      </trkpt>
      <trkpt lat="44.88743" lon="-0.0881">
        <ele>86</ele>
        <time>2020-10-29T13:21:49Z</time>
      </trkpt>
      <trkpt lat="44.88749" lon="-0.08833">
        <ele>86</ele>
        <time>2020-10-29T13:22:05Z</time>
      </trkpt>
      <trkpt lat="44.88752" lon="-0.08857">
        <ele>87</ele>
        <time>2020-10-29T13:22:22Z</time>
      </trkpt>
      <trkpt lat="44.88753" lon="-0.08859">
        <ele>88</ele>
        <time>2020-10-29T13:22:24Z</time>
      </trkpt>
      <trkpt lat="44.88753" lon="-0.0886">
        <ele>86</ele>
        <time>2020-10-29T13:22:26Z</time>
      </trkpt>
      <trkpt lat="44.88755" lon="-0.08866">
        <ele>87</ele>
        <time>2020-10-29T13:22:32Z</time>
      </trkpt>
      <trkpt lat="44.88756" lon="-0.08868">
        <ele>86</ele>
        <time>2020-10-29T13:22:34Z</time>
      </trkpt>
      <trkpt lat="44.88759" lon="-0.08879">
        <ele>86</ele>
        <time>2020-10-29T13:22:45Z</time>
      </trkpt>
      <trkpt lat="44.8876" lon="-0.08888">
        <ele>86</ele>
        <time>2020-10-29T13:22:51Z</time>
      </trkpt>
      <trkpt lat="44.88761" lon="-0.08889">
        <ele>86</ele>
        <time>2020-10-29T13:22:52Z</time>
      </trkpt>
      <trkpt lat="44.88764" lon="-0.08909">
        <ele>86</ele>
        <time>2020-10-29T13:23:05Z</time>
      </trkpt>
      <trkpt lat="44.88768" lon="-0.08931">
        <ele>86</ele>
        <time>2020-10-29T13:23:19Z</time>
      </trkpt>
      <trkpt lat="44.88772" lon="-0.08951">
        <ele>86</ele>
        <time>2020-10-29T13:23:33Z</time>
      </trkpt>
      <trkpt lat="44.88777" lon="-0.0897">
        <ele>86</ele>
        <time>2020-10-29T13:23:47Z</time>
      </trkpt>
      <trkpt lat="44.88782" lon="-0.08994">
        <ele>86</ele>
        <time>2020-10-29T13:24:02Z</time>
      </trkpt>
      <trkpt lat="44.88783" lon="-0.08995">
        <ele>86</ele>
        <time>2020-10-29T13:24:03Z</time>
      </trkpt>
      <trkpt lat="44.88787" lon="-0.09018">
        <ele>86</ele>
        <time>2020-10-29T13:24:18Z</time>
      </trkpt>
      <trkpt lat="44.88792" lon="-0.09042">
        <ele>86</ele>
        <time>2020-10-29T13:24:31Z</time>
      </trkpt>
      <trkpt lat="44.88797" lon="-0.09067">
        <ele>86</ele>
        <time>2020-10-29T13:24:47Z</time>
      </trkpt>
      <trkpt lat="44.888" lon="-0.09088">
        <ele>85</ele>
        <time>2020-10-29T13:25:00Z</time>
      </trkpt>
      <trkpt lat="44.88804" lon="-0.09115">
        <ele>85</ele>
        <time>2020-10-29T13:25:15Z</time>
      </trkpt>
      <trkpt lat="44.8881" lon="-0.09139">
        <ele>85</ele>
        <time>2020-10-29T13:25:29Z</time>
      </trkpt>
      <trkpt lat="44.88812" lon="-0.09154">
        <ele>84</ele>
        <time>2020-10-29T13:25:44Z</time>
      </trkpt>
      <trkpt lat="44.88818" lon="-0.09189">
        <ele>84</ele>
        <time>2020-10-29T13:26:00Z</time>
      </trkpt>
      <trkpt lat="44.88825" lon="-0.09219">
        <ele>83</ele>
        <time>2020-10-29T13:26:15Z</time>
      </trkpt>
      <trkpt lat="44.88827" lon="-0.09233">
        <ele>83</ele>
        <time>2020-10-29T13:26:28Z</time>
      </trkpt>
      <trkpt lat="44.88827" lon="-0.09234">
        <ele>83</ele>
        <time>2020-10-29T13:26:29Z</time>
      </trkpt>
      <trkpt lat="44.88826" lon="-0.09235">
        <ele>83</ele>
        <time>2020-10-29T13:26:30Z</time>
      </trkpt>
      <trkpt lat="44.88826" lon="-0.09237">
        <ele>83</ele>
        <time>2020-10-29T13:26:32Z</time>
      </trkpt>
      <trkpt lat="44.88826" lon="-0.09239">
        <ele>83</ele>
        <time>2020-10-29T13:26:33Z</time>
      </trkpt>
      <trkpt lat="44.88832" lon="-0.09262">
        <ele>83</ele>
        <time>2020-10-29T13:26:52Z</time>
      </trkpt>
      <trkpt lat="44.88835" lon="-0.09287">
        <ele>82</ele>
        <time>2020-10-29T13:27:09Z</time>
      </trkpt>
      <trkpt lat="44.8884" lon="-0.09312">
        <ele>82</ele>
        <time>2020-10-29T13:27:23Z</time>
      </trkpt>
      <trkpt lat="44.88843" lon="-0.09346">
        <ele>80</ele>
        <time>2020-10-29T13:27:41Z</time>
      </trkpt>
      <trkpt lat="44.88841" lon="-0.09366">
        <ele>80</ele>
        <time>2020-10-29T13:27:56Z</time>
      </trkpt>
      <trkpt lat="44.88837" lon="-0.09386">
        <ele>79</ele>
        <time>2020-10-29T13:28:11Z</time>
      </trkpt>
      <trkpt lat="44.88833" lon="-0.094">
        <ele>78</ele>
        <time>2020-10-29T13:28:20Z</time>
      </trkpt>
      <trkpt lat="44.88825" lon="-0.09435">
        <ele>76</ele>
        <time>2020-10-29T13:28:34Z</time>
      </trkpt>
      <trkpt lat="44.88822" lon="-0.09452">
        <ele>75</ele>
        <time>2020-10-29T13:28:47Z</time>
      </trkpt>
      <trkpt lat="44.88822" lon="-0.09455">
        <ele>74</ele>
        <time>2020-10-29T13:28:49Z</time>
      </trkpt>
      <trkpt lat="44.88822" lon="-0.09457">
        <ele>74</ele>
        <time>2020-10-29T13:28:50Z</time>
      </trkpt>
      <trkpt lat="44.88822" lon="-0.09459">
        <ele>74</ele>
        <time>2020-10-29T13:28:51Z</time>
      </trkpt>
      <trkpt lat="44.88822" lon="-0.09461">
        <ele>73</ele>
        <time>2020-10-29T13:28:52Z</time>
      </trkpt>
      <trkpt lat="44.88821" lon="-0.09463">
        <ele>73</ele>
        <time>2020-10-29T13:28:53Z</time>
      </trkpt>
      <trkpt lat="44.8882" lon="-0.09466">
        <ele>73</ele>
        <time>2020-10-29T13:28:54Z</time>
      </trkpt>
      <trkpt lat="44.88823" lon="-0.09493">
        <ele>71</ele>
        <time>2020-10-29T13:29:09Z</time>
      </trkpt>
      <trkpt lat="44.88829" lon="-0.095">
        <ele>70</ele>
        <time>2020-10-29T13:29:21Z</time>
      </trkpt>
      <trkpt lat="44.8883" lon="-0.09502">
        <ele>70</ele>
        <time>2020-10-29T13:29:22Z</time>
      </trkpt>
      <trkpt lat="44.88849" lon="-0.09519">
        <ele>69</ele>
        <time>2020-10-29T13:29:36Z</time>
      </trkpt>
      <trkpt lat="44.8886" lon="-0.09541">
        <ele>67</ele>
        <time>2020-10-29T13:29:51Z</time>
      </trkpt>
      <trkpt lat="44.8886" lon="-0.09541">
        <ele>67</ele>
        <time>2020-10-29T13:29:57Z</time>
      </trkpt>
      <trkpt lat="44.8886" lon="-0.09543">
        <ele>67</ele>
        <time>2020-10-29T13:29:58Z</time>
      </trkpt>
      <trkpt lat="44.8886" lon="-0.09547">
        <ele>66</ele>
        <time>2020-10-29T13:30:02Z</time>
      </trkpt>
      <trkpt lat="44.8886" lon="-0.09551">
        <ele>66</ele>
        <time>2020-10-29T13:30:05Z</time>
      </trkpt>
      <trkpt lat="44.8886" lon="-0.09553">
        <ele>66</ele>
        <time>2020-10-29T13:30:06Z</time>
      </trkpt>
      <trkpt lat="44.88855" lon="-0.09577">
        <ele>64</ele>
        <time>2020-10-29T13:30:23Z</time>
      </trkpt>
      <trkpt lat="44.88853" lon="-0.09593">
        <ele>63</ele>
        <time>2020-10-29T13:30:34Z</time>
      </trkpt>
      <trkpt lat="44.88847" lon="-0.09619">
        <ele>62</ele>
        <time>2020-10-29T13:30:49Z</time>
      </trkpt>
      <trkpt lat="44.88846" lon="-0.09621">
        <ele>62</ele>
        <time>2020-10-29T13:30:50Z</time>
      </trkpt>
      <trkpt lat="44.88846" lon="-0.09623">
        <ele>62</ele>
        <time>2020-10-29T13:30:51Z</time>
      </trkpt>
      <trkpt lat="44.88838" lon="-0.09659">
        <ele>61</ele>
        <time>2020-10-29T13:31:06Z</time>
      </trkpt>
      <trkpt lat="44.88837" lon="-0.09674">
        <ele>60</ele>
        <time>2020-10-29T13:31:19Z</time>
      </trkpt>
      <trkpt lat="44.88835" lon="-0.09703">
        <ele>60</ele>
        <time>2020-10-29T13:31:31Z</time>
      </trkpt>
      <trkpt lat="44.88832" lon="-0.09734">
        <ele>59</ele>
        <time>2020-10-29T13:31:50Z</time>
      </trkpt>
      <trkpt lat="44.88832" lon="-0.09751">
        <ele>59</ele>
        <time>2020-10-29T13:32:03Z</time>
      </trkpt>
      <trkpt lat="44.88827" lon="-0.09777">
        <ele>59</ele>
        <time>2020-10-29T13:32:19Z</time>
      </trkpt>
      <trkpt lat="44.88824" lon="-0.09806">
        <ele>59</ele>
        <time>2020-10-29T13:32:34Z</time>
      </trkpt>
      <trkpt lat="44.88824" lon="-0.0981">
        <ele>59</ele>
        <time>2020-10-29T13:32:37Z</time>
      </trkpt>
      <trkpt lat="44.88824" lon="-0.09812">
        <ele>59</ele>
        <time>2020-10-29T13:32:38Z</time>
      </trkpt>
      <trkpt lat="44.88824" lon="-0.09814">
        <ele>59</ele>
        <time>2020-10-29T13:32:39Z</time>
      </trkpt>
      <trkpt lat="44.88824" lon="-0.09816">
        <ele>59</ele>
        <time>2020-10-29T13:32:40Z</time>
      </trkpt>
      <trkpt lat="44.88824" lon="-0.09818">
        <ele>59</ele>
        <time>2020-10-29T13:32:41Z</time>
      </trkpt>
      <trkpt lat="44.88823" lon="-0.09838">
        <ele>59</ele>
        <time>2020-10-29T13:32:55Z</time>
      </trkpt>
      <trkpt lat="44.8882" lon="-0.09861">
        <ele>60</ele>
        <time>2020-10-29T13:33:11Z</time>
      </trkpt>
      <trkpt lat="44.88819" lon="-0.09863">
        <ele>60</ele>
        <time>2020-10-29T13:33:12Z</time>
      </trkpt>
      <trkpt lat="44.88819" lon="-0.09865">
        <ele>60</ele>
        <time>2020-10-29T13:33:13Z</time>
      </trkpt>
      <trkpt lat="44.88819" lon="-0.09867">
        <ele>60</ele>
        <time>2020-10-29T13:33:14Z</time>
      </trkpt>
      <trkpt lat="44.88819" lon="-0.09869">
        <ele>60</ele>
        <time>2020-10-29T13:33:15Z</time>
      </trkpt>
      <trkpt lat="44.88819" lon="-0.0987">
        <ele>60</ele>
        <time>2020-10-29T13:33:16Z</time>
      </trkpt>
      <trkpt lat="44.88819" lon="-0.09892">
        <ele>60</ele>
        <time>2020-10-29T13:33:32Z</time>
      </trkpt>
      <trkpt lat="44.88817" lon="-0.09922">
        <ele>61</ele>
        <time>2020-10-29T13:33:50Z</time>
      </trkpt>
      <trkpt lat="44.88816" lon="-0.09925">
        <ele>61</ele>
        <time>2020-10-29T13:33:53Z</time>
      </trkpt>
      <trkpt lat="44.88815" lon="-0.09927">
        <ele>61</ele>
        <time>2020-10-29T13:33:54Z</time>
      </trkpt>
      <trkpt lat="44.88814" lon="-0.09944">
        <ele>62</ele>
        <time>2020-10-29T13:34:06Z</time>
      </trkpt>
      <trkpt lat="44.88814" lon="-0.09945">
        <ele>62</ele>
        <time>2020-10-29T13:34:22Z</time>
      </trkpt>
      <trkpt lat="44.88813" lon="-0.09951">
        <ele>62</ele>
        <time>2020-10-29T13:34:26Z</time>
      </trkpt>
      <trkpt lat="44.88812" lon="-0.09954">
        <ele>62</ele>
        <time>2020-10-29T13:34:27Z</time>
      </trkpt>
      <trkpt lat="44.88812" lon="-0.09956">
        <ele>62</ele>
        <time>2020-10-29T13:34:28Z</time>
      </trkpt>
      <trkpt lat="44.8881" lon="-0.09982">
        <ele>64</ele>
        <time>2020-10-29T13:34:45Z</time>
      </trkpt>
      <trkpt lat="44.88808" lon="-0.10004">
        <ele>65</ele>
        <time>2020-10-29T13:34:59Z</time>
      </trkpt>
      <trkpt lat="44.88807" lon="-0.10022">
        <ele>66</ele>
        <time>2020-10-29T13:35:10Z</time>
      </trkpt>
      <trkpt lat="44.88807" lon="-0.10023">
        <ele>66</ele>
        <time>2020-10-29T13:35:11Z</time>
      </trkpt>
      <trkpt lat="44.88807" lon="-0.10025">
        <ele>66</ele>
        <time>2020-10-29T13:35:12Z</time>
      </trkpt>
      <trkpt lat="44.88805" lon="-0.1004">
        <ele>66</ele>
        <time>2020-10-29T13:35:24Z</time>
      </trkpt>
      <trkpt lat="44.88803" lon="-0.10058">
        <ele>66</ele>
        <time>2020-10-29T13:35:36Z</time>
      </trkpt>
      <trkpt lat="44.88803" lon="-0.10062">
        <ele>67</ele>
        <time>2020-10-29T13:35:39Z</time>
      </trkpt>
      <trkpt lat="44.88801" lon="-0.10085">
        <ele>67</ele>
        <time>2020-10-29T13:35:53Z</time>
      </trkpt>
      <trkpt lat="44.88798" lon="-0.10092">
        <ele>68</ele>
        <time>2020-10-29T13:36:00Z</time>
      </trkpt>
      <trkpt lat="44.88797" lon="-0.10093">
        <ele>68</ele>
        <time>2020-10-29T13:36:01Z</time>
      </trkpt>
      <trkpt lat="44.88796" lon="-0.10098">
        <ele>68</ele>
        <time>2020-10-29T13:36:06Z</time>
      </trkpt>
      <trkpt lat="44.88795" lon="-0.10106">
        <ele>68</ele>
        <time>2020-10-29T13:36:12Z</time>
      </trkpt>
      <trkpt lat="44.88791" lon="-0.10111">
        <ele>68</ele>
        <time>2020-10-29T13:36:17Z</time>
      </trkpt>
      <trkpt lat="44.8879" lon="-0.10112">
        <ele>69</ele>
        <time>2020-10-29T13:36:18Z</time>
      </trkpt>
      <trkpt lat="44.8879" lon="-0.10112">
        <ele>69</ele>
        <time>2020-10-29T13:36:31Z</time>
      </trkpt>
      <trkpt lat="44.88789" lon="-0.10113">
        <ele>69</ele>
        <time>2020-10-29T13:36:44Z</time>
      </trkpt>
      <trkpt lat="44.88786" lon="-0.10114">
        <ele>69</ele>
        <time>2020-10-29T13:36:52Z</time>
      </trkpt>
      <trkpt lat="44.88772" lon="-0.10115">
        <ele>69</ele>
        <time>2020-10-29T13:37:04Z</time>
      </trkpt>
      <trkpt lat="44.88764" lon="-0.10117">
        <ele>70</ele>
        <time>2020-10-29T13:37:14Z</time>
      </trkpt>
      <trkpt lat="44.88752" lon="-0.10117">
        <ele>70</ele>
        <time>2020-10-29T13:37:24Z</time>
      </trkpt>
      <trkpt lat="44.88741" lon="-0.1012">
        <ele>70</ele>
        <time>2020-10-29T13:37:36Z</time>
      </trkpt>
      <trkpt lat="44.88734" lon="-0.10124">
        <ele>70</ele>
        <time>2020-10-29T13:37:43Z</time>
      </trkpt>
      <trkpt lat="44.88723" lon="-0.10128">
        <ele>70</ele>
        <time>2020-10-29T13:37:55Z</time>
      </trkpt>
      <trkpt lat="44.88712" lon="-0.1013">
        <ele>71</ele>
        <time>2020-10-29T13:38:07Z</time>
      </trkpt>
      <trkpt lat="44.887" lon="-0.10133">
        <ele>71</ele>
        <time>2020-10-29T13:38:18Z</time>
      </trkpt>
      <trkpt lat="44.88695" lon="-0.10134">
        <ele>71</ele>
        <time>2020-10-29T13:38:22Z</time>
      </trkpt>
      <trkpt lat="44.8869" lon="-0.10136">
        <ele>71</ele>
        <time>2020-10-29T13:38:27Z</time>
      </trkpt>
      <trkpt lat="44.8868" lon="-0.10138">
        <ele>72</ele>
        <time>2020-10-29T13:38:37Z</time>
      </trkpt>
      <trkpt lat="44.88678" lon="-0.10139">
        <ele>72</ele>
        <time>2020-10-29T13:38:40Z</time>
      </trkpt>
      <trkpt lat="44.88665" lon="-0.10141">
        <ele>72</ele>
        <time>2020-10-29T13:38:52Z</time>
      </trkpt>
      <trkpt lat="44.88652" lon="-0.10143">
        <ele>74</ele>
        <time>2020-10-29T13:39:03Z</time>
      </trkpt>
      <trkpt lat="44.88649" lon="-0.10144">
        <ele>74</ele>
        <time>2020-10-29T13:39:08Z</time>
      </trkpt>
      <trkpt lat="44.88646" lon="-0.10146">
        <ele>74</ele>
        <time>2020-10-29T13:39:11Z</time>
      </trkpt>
      <trkpt lat="44.88634" lon="-0.10149">
        <ele>75</ele>
        <time>2020-10-29T13:39:25Z</time>
      </trkpt>
      <trkpt lat="44.88631" lon="-0.1015">
        <ele>76</ele>
        <time>2020-10-29T13:39:29Z</time>
      </trkpt>
      <trkpt lat="44.88627" lon="-0.1015">
        <ele>76</ele>
        <time>2020-10-29T13:39:33Z</time>
      </trkpt>
      <trkpt lat="44.88616" lon="-0.10154">
        <ele>77</ele>
        <time>2020-10-29T13:39:45Z</time>
      </trkpt>
      <trkpt lat="44.88616" lon="-0.10157">
        <ele>77</ele>
        <time>2020-10-29T13:39:48Z</time>
      </trkpt>
      <trkpt lat="44.88615" lon="-0.1016">
        <ele>77</ele>
        <time>2020-10-29T13:39:51Z</time>
      </trkpt>
      <trkpt lat="44.88619" lon="-0.10174">
        <ele>77</ele>
        <time>2020-10-29T13:40:03Z</time>
      </trkpt>
      <trkpt lat="44.88624" lon="-0.10186">
        <ele>78</ele>
        <time>2020-10-29T13:40:13Z</time>
      </trkpt>
      <trkpt lat="44.88627" lon="-0.10191">
        <ele>78</ele>
        <time>2020-10-29T13:40:17Z</time>
      </trkpt>
      <trkpt lat="44.88627" lon="-0.10197">
        <ele>78</ele>
        <time>2020-10-29T13:40:21Z</time>
      </trkpt>
      <trkpt lat="44.88628" lon="-0.10206">
        <ele>79</ele>
        <time>2020-10-29T13:40:31Z</time>
      </trkpt>
      <trkpt lat="44.88633" lon="-0.10222">
        <ele>79</ele>
        <time>2020-10-29T13:40:42Z</time>
      </trkpt>
      <trkpt lat="44.88641" lon="-0.10237">
        <ele>80</ele>
        <time>2020-10-29T13:40:56Z</time>
      </trkpt>
      <trkpt lat="44.88645" lon="-0.10245">
        <ele>80</ele>
        <time>2020-10-29T13:41:02Z</time>
      </trkpt>
      <trkpt lat="44.8865" lon="-0.10259">
        <ele>80</ele>
        <time>2020-10-29T13:41:14Z</time>
      </trkpt>
      <trkpt lat="44.88656" lon="-0.10275">
        <ele>81</ele>
        <time>2020-10-29T13:41:25Z</time>
      </trkpt>
      <trkpt lat="44.8866" lon="-0.10294">
        <ele>81</ele>
        <time>2020-10-29T13:41:38Z</time>
      </trkpt>
      <trkpt lat="44.88663" lon="-0.10301">
        <ele>81</ele>
        <time>2020-10-29T13:41:45Z</time>
      </trkpt>
      <trkpt lat="44.88666" lon="-0.1031">
        <ele>81</ele>
        <time>2020-10-29T13:41:50Z</time>
      </trkpt>
      <trkpt lat="44.88675" lon="-0.1033">
        <ele>81</ele>
        <time>2020-10-29T13:42:04Z</time>
      </trkpt>
      <trkpt lat="44.88681" lon="-0.10344">
        <ele>82</ele>
        <time>2020-10-29T13:42:16Z</time>
      </trkpt>
      <trkpt lat="44.88687" lon="-0.1036">
        <ele>82</ele>
        <time>2020-10-29T13:42:28Z</time>
      </trkpt>
      <trkpt lat="44.88689" lon="-0.10373">
        <ele>82</ele>
        <time>2020-10-29T13:42:34Z</time>
      </trkpt>
      <trkpt lat="44.88695" lon="-0.10389">
        <ele>82</ele>
        <time>2020-10-29T13:42:47Z</time>
      </trkpt>
      <trkpt lat="44.88695" lon="-0.10392">
        <ele>82</ele>
        <time>2020-10-29T13:42:48Z</time>
      </trkpt>
      <trkpt lat="44.887" lon="-0.10409">
        <ele>82</ele>
        <time>2020-10-29T13:43:01Z</time>
      </trkpt>
      <trkpt lat="44.88705" lon="-0.10425">
        <ele>82</ele>
        <time>2020-10-29T13:43:14Z</time>
      </trkpt>
      <trkpt lat="44.88711" lon="-0.10448">
        <ele>82</ele>
        <time>2020-10-29T13:43:28Z</time>
      </trkpt>
      <trkpt lat="44.88714" lon="-0.10454">
        <ele>82</ele>
        <time>2020-10-29T13:43:34Z</time>
      </trkpt>
      <trkpt lat="44.8872" lon="-0.10477">
        <ele>82</ele>
        <time>2020-10-29T13:43:47Z</time>
      </trkpt>
      <trkpt lat="44.88721" lon="-0.10496">
        <ele>82</ele>
        <time>2020-10-29T13:43:59Z</time>
      </trkpt>
      <trkpt lat="44.88723" lon="-0.10516">
        <ele>82</ele>
        <time>2020-10-29T13:44:12Z</time>
      </trkpt>
      <trkpt lat="44.88725" lon="-0.10531">
        <ele>83</ele>
        <time>2020-10-29T13:44:24Z</time>
      </trkpt>
      <trkpt lat="44.88728" lon="-0.1055">
        <ele>83</ele>
        <time>2020-10-29T13:44:36Z</time>
      </trkpt>
      <trkpt lat="44.88728" lon="-0.10557">
        <ele>83</ele>
        <time>2020-10-29T13:44:40Z</time>
      </trkpt>
      <trkpt lat="44.88729" lon="-0.10564">
        <ele>83</ele>
        <time>2020-10-29T13:44:45Z</time>
      </trkpt>
      <trkpt lat="44.88727" lon="-0.10571">
        <ele>84</ele>
        <time>2020-10-29T13:44:58Z</time>
      </trkpt>
      <trkpt lat="44.88725" lon="-0.10573">
        <ele>84</ele>
        <time>2020-10-29T13:45:09Z</time>
      </trkpt>
      <trkpt lat="44.88714" lon="-0.10589">
        <ele>84</ele>
        <time>2020-10-29T13:45:23Z</time>
      </trkpt>
      <trkpt lat="44.88707" lon="-0.10601">
        <ele>84</ele>
        <time>2020-10-29T13:45:37Z</time>
      </trkpt>
      <trkpt lat="44.88701" lon="-0.10606">
        <ele>84</ele>
        <time>2020-10-29T13:45:41Z</time>
      </trkpt>
      <trkpt lat="44.88686" lon="-0.10626">
        <ele>84</ele>
        <time>2020-10-29T13:45:57Z</time>
      </trkpt>
      <trkpt lat="44.88673" lon="-0.1064">
        <ele>84</ele>
        <time>2020-10-29T13:46:11Z</time>
      </trkpt>
      <trkpt lat="44.88672" lon="-0.10641">
        <ele>84</ele>
        <time>2020-10-29T13:46:12Z</time>
      </trkpt>
      <trkpt lat="44.88667" lon="-0.10646">
        <ele>84</ele>
        <time>2020-10-29T13:46:17Z</time>
      </trkpt>
      <trkpt lat="44.88662" lon="-0.10662">
        <ele>84</ele>
        <time>2020-10-29T13:46:30Z</time>
      </trkpt>
      <trkpt lat="44.88663" lon="-0.10674">
        <ele>84</ele>
        <time>2020-10-29T13:46:42Z</time>
      </trkpt>
      <trkpt lat="44.88665" lon="-0.10677">
        <ele>85</ele>
        <time>2020-10-29T13:47:01Z</time>
      </trkpt>
      <trkpt lat="44.88664" lon="-0.10678">
        <ele>85</ele>
        <time>2020-10-29T13:47:16Z</time>
      </trkpt>
      <trkpt lat="44.88664" lon="-0.10679">
        <ele>85</ele>
        <time>2020-10-29T13:47:23Z</time>
      </trkpt>
      <trkpt lat="44.88671" lon="-0.10694">
        <ele>84</ele>
        <time>2020-10-29T13:47:35Z</time>
      </trkpt>
      <trkpt lat="44.88678" lon="-0.10708">
        <ele>85</ele>
        <time>2020-10-29T13:47:47Z</time>
      </trkpt>
      <trkpt lat="44.88681" lon="-0.10715">
        <ele>85</ele>
        <time>2020-10-29T13:47:54Z</time>
      </trkpt>
      <trkpt lat="44.88685" lon="-0.10722">
        <ele>86</ele>
        <time>2020-10-29T13:47:58Z</time>
      </trkpt>
      <trkpt lat="44.88693" lon="-0.1074">
        <ele>87</ele>
        <time>2020-10-29T13:48:12Z</time>
      </trkpt>
      <trkpt lat="44.887" lon="-0.10756">
        <ele>88</ele>
        <time>2020-10-29T13:48:26Z</time>
      </trkpt>
      <trkpt lat="44.88705" lon="-0.10772">
        <ele>89</ele>
        <time>2020-10-29T13:48:37Z</time>
      </trkpt>
      <trkpt lat="44.88709" lon="-0.10781">
        <ele>90</ele>
        <time>2020-10-29T13:48:51Z</time>
      </trkpt>
      <trkpt lat="44.88709" lon="-0.10781">
        <ele>89</ele>
        <time>2020-10-29T13:49:16Z</time>
      </trkpt>
      <trkpt lat="44.88709" lon="-0.10781">
        <ele>91</ele>
        <time>2020-10-29T13:49:32Z</time>
      </trkpt>
      <trkpt lat="44.88709" lon="-0.10781">
        <ele>89</ele>
        <time>2020-10-29T13:49:35Z</time>
      </trkpt>
      <trkpt lat="44.88708" lon="-0.1078">
        <ele>88</ele>
        <time>2020-10-29T13:49:59Z</time>
      </trkpt>
      <trkpt lat="44.88708" lon="-0.1078">
        <ele>91</ele>
        <time>2020-10-29T13:50:00Z</time>
      </trkpt>
      <trkpt lat="44.88708" lon="-0.1078">
        <ele>90</ele>
        <time>2020-10-29T13:50:01Z</time>
      </trkpt>
      <trkpt lat="44.88708" lon="-0.10781">
        <ele>89</ele>
        <time>2020-10-29T13:50:03Z</time>
      </trkpt>
      <trkpt lat="44.88708" lon="-0.10781">
        <ele>91</ele>
        <time>2020-10-29T13:50:08Z</time>
      </trkpt>
      <trkpt lat="44.88708" lon="-0.10781">
        <ele>90</ele>
        <time>2020-10-29T13:50:10Z</time>
      </trkpt>
      <trkpt lat="44.88709" lon="-0.10781">
        <ele>89</ele>
        <time>2020-10-29T13:50:31Z</time>
      </trkpt>
      <trkpt lat="44.88708" lon="-0.10778">
        <ele>89</ele>
        <time>2020-10-29T13:50:51Z</time>
      </trkpt>
      <trkpt lat="44.88702" lon="-0.10767">
        <ele>87</ele>
        <time>2020-10-29T13:51:03Z</time>
      </trkpt>
      <trkpt lat="44.88702" lon="-0.10767">
        <ele>89</ele>
        <time>2020-10-29T13:51:05Z</time>
      </trkpt>
      <trkpt lat="44.88696" lon="-0.10754">
        <ele>88</ele>
        <time>2020-10-29T13:51:19Z</time>
      </trkpt>
      <trkpt lat="44.88695" lon="-0.1075">
        <ele>88</ele>
        <time>2020-10-29T13:51:22Z</time>
      </trkpt>
      <trkpt lat="44.88688" lon="-0.10733">
        <ele>87</ele>
        <time>2020-10-29T13:51:35Z</time>
      </trkpt>
      <trkpt lat="44.88685" lon="-0.10727">
        <ele>86</ele>
        <time>2020-10-29T13:51:40Z</time>
      </trkpt>
      <trkpt lat="44.88676" lon="-0.10709">
        <ele>85</ele>
        <time>2020-10-29T13:51:55Z</time>
      </trkpt>
      <trkpt lat="44.88667" lon="-0.10682">
        <ele>85</ele>
        <time>2020-10-29T13:52:09Z</time>
      </trkpt>
      <trkpt lat="44.88659" lon="-0.10668">
        <ele>85</ele>
        <time>2020-10-29T13:52:23Z</time>
      </trkpt>
      <trkpt lat="44.88657" lon="-0.10664">
        <ele>85</ele>
        <time>2020-10-29T13:52:38Z</time>
      </trkpt>
      <trkpt lat="44.88654" lon="-0.10655">
        <ele>84</ele>
        <time>2020-10-29T13:53:01Z</time>
      </trkpt>
      <trkpt lat="44.88646" lon="-0.10637">
        <ele>83</ele>
        <time>2020-10-29T13:53:17Z</time>
      </trkpt>
      <trkpt lat="44.8864" lon="-0.10621">
        <ele>83</ele>
        <time>2020-10-29T13:53:29Z</time>
      </trkpt>
      <trkpt lat="44.88627" lon="-0.10592">
        <ele>83</ele>
        <time>2020-10-29T13:53:47Z</time>
      </trkpt>
      <trkpt lat="44.88617" lon="-0.10566">
        <ele>83</ele>
        <time>2020-10-29T13:54:00Z</time>
      </trkpt>
      <trkpt lat="44.88607" lon="-0.10547">
        <ele>82</ele>
        <time>2020-10-29T13:54:15Z</time>
      </trkpt>
      <trkpt lat="44.88593" lon="-0.10538">
        <ele>82</ele>
        <time>2020-10-29T13:54:31Z</time>
      </trkpt>
      <trkpt lat="44.88585" lon="-0.10539">
        <ele>81</ele>
        <time>2020-10-29T13:54:39Z</time>
      </trkpt>
      <trkpt lat="44.88583" lon="-0.10538">
        <ele>81</ele>
        <time>2020-10-29T13:54:42Z</time>
      </trkpt>
      <trkpt lat="44.88579" lon="-0.10541">
        <ele>80</ele>
        <time>2020-10-29T13:54:46Z</time>
      </trkpt>
      <trkpt lat="44.88561" lon="-0.10558">
        <ele>80</ele>
        <time>2020-10-29T13:55:03Z</time>
      </trkpt>
      <trkpt lat="44.88545" lon="-0.10577">
        <ele>79</ele>
        <time>2020-10-29T13:55:18Z</time>
      </trkpt>
      <trkpt lat="44.88529" lon="-0.10605">
        <ele>78</ele>
        <time>2020-10-29T13:55:43Z</time>
      </trkpt>
      <trkpt lat="44.88507" lon="-0.10618">
        <ele>78</ele>
        <time>2020-10-29T13:56:03Z</time>
      </trkpt>
      <trkpt lat="44.88496" lon="-0.10613">
        <ele>76</ele>
        <time>2020-10-29T13:56:18Z</time>
      </trkpt>
      <trkpt lat="44.88486" lon="-0.10594">
        <ele>73</ele>
        <time>2020-10-29T13:56:33Z</time>
      </trkpt>
      <trkpt lat="44.88486" lon="-0.10589">
        <ele>73</ele>
        <time>2020-10-29T13:56:36Z</time>
      </trkpt>
      <trkpt lat="44.88484" lon="-0.10566">
        <ele>72</ele>
        <time>2020-10-29T13:56:50Z</time>
      </trkpt>
      <trkpt lat="44.88489" lon="-0.10549">
        <ele>71</ele>
        <time>2020-10-29T13:57:03Z</time>
      </trkpt>
      <trkpt lat="44.88504" lon="-0.10531">
        <ele>70</ele>
        <time>2020-10-29T13:57:20Z</time>
      </trkpt>
      <trkpt lat="44.88514" lon="-0.10515">
        <ele>69</ele>
        <time>2020-10-29T13:57:35Z</time>
      </trkpt>
      <trkpt lat="44.88522" lon="-0.10498">
        <ele>66</ele>
        <time>2020-10-29T13:57:46Z</time>
      </trkpt>
      <trkpt lat="44.88524" lon="-0.10492">
        <ele>68</ele>
        <time>2020-10-29T13:57:51Z</time>
      </trkpt>
      <trkpt lat="44.88523" lon="-0.10491">
        <ele>66</ele>
        <time>2020-10-29T13:57:53Z</time>
      </trkpt>
      <trkpt lat="44.88523" lon="-0.10483">
        <ele>66</ele>
        <time>2020-10-29T13:58:10Z</time>
      </trkpt>
      <trkpt lat="44.88522" lon="-0.10481">
        <ele>65</ele>
        <time>2020-10-29T13:58:12Z</time>
      </trkpt>
      <trkpt lat="44.88516" lon="-0.10461">
        <ele>64</ele>
        <time>2020-10-29T13:58:28Z</time>
      </trkpt>
      <trkpt lat="44.88515" lon="-0.10458">
        <ele>63</ele>
        <time>2020-10-29T13:58:30Z</time>
      </trkpt>
      <trkpt lat="44.885" lon="-0.10434">
        <ele>61</ele>
        <time>2020-10-29T13:58:44Z</time>
      </trkpt>
      <trkpt lat="44.88483" lon="-0.10413">
        <ele>59</ele>
        <time>2020-10-29T13:58:59Z</time>
      </trkpt>
      <trkpt lat="44.8847" lon="-0.10407">
        <ele>56</ele>
        <time>2020-10-29T13:59:17Z</time>
      </trkpt>
      <trkpt lat="44.88458" lon="-0.10405">
        <ele>54</ele>
        <time>2020-10-29T13:59:34Z</time>
      </trkpt>
      <trkpt lat="44.88441" lon="-0.10406">
        <ele>52</ele>
        <time>2020-10-29T13:59:49Z</time>
      </trkpt>
      <trkpt lat="44.88423" lon="-0.10393">
        <ele>50</ele>
        <time>2020-10-29T14:00:04Z</time>
      </trkpt>
      <trkpt lat="44.8841" lon="-0.10388">
        <ele>49</ele>
        <time>2020-10-29T14:00:13Z</time>
      </trkpt>
      <trkpt lat="44.88388" lon="-0.10383">
        <ele>45</ele>
        <time>2020-10-29T14:00:29Z</time>
      </trkpt>
      <trkpt lat="44.88362" lon="-0.10366">
        <ele>43</ele>
        <time>2020-10-29T14:00:49Z</time>
      </trkpt>
      <trkpt lat="44.88341" lon="-0.10356">
        <ele>41</ele>
        <time>2020-10-29T14:01:08Z</time>
      </trkpt>
      <trkpt lat="44.88333" lon="-0.10353">
        <ele>40</ele>
        <time>2020-10-29T14:01:23Z</time>
      </trkpt>
      <trkpt lat="44.88329" lon="-0.10353">
        <ele>40</ele>
        <time>2020-10-29T14:01:26Z</time>
      </trkpt>
      <trkpt lat="44.88321" lon="-0.10349">
        <ele>39</ele>
        <time>2020-10-29T14:01:31Z</time>
      </trkpt>
      <trkpt lat="44.88299" lon="-0.10346">
        <ele>37</ele>
        <time>2020-10-29T14:01:49Z</time>
      </trkpt>
      <trkpt lat="44.88287" lon="-0.10346">
        <ele>36</ele>
        <time>2020-10-29T14:02:02Z</time>
      </trkpt>
      <trkpt lat="44.88264" lon="-0.10338">
        <ele>34</ele>
        <time>2020-10-29T14:02:17Z</time>
      </trkpt>
      <trkpt lat="44.88243" lon="-0.10327">
        <ele>33</ele>
        <time>2020-10-29T14:02:31Z</time>
      </trkpt>
      <trkpt lat="44.88228" lon="-0.10322">
        <ele>31</ele>
        <time>2020-10-29T14:02:46Z</time>
      </trkpt>
      <trkpt lat="44.88214" lon="-0.10319">
        <ele>29</ele>
        <time>2020-10-29T14:03:02Z</time>
      </trkpt>
      <trkpt lat="44.88211" lon="-0.10318">
        <ele>20</ele>
        <time>2020-10-29T14:03:04Z</time>
      </trkpt>
      <trkpt lat="44.88209" lon="-0.10317">
        <ele>23</ele>
        <time>2020-10-29T14:03:05Z</time>
      </trkpt>
      <trkpt lat="44.88208" lon="-0.10316">
        <ele>38</ele>
        <time>2020-10-29T14:03:06Z</time>
      </trkpt>
      <trkpt lat="44.88206" lon="-0.10314">
        <ele>41</ele>
        <time>2020-10-29T14:03:08Z</time>
      </trkpt>
      <trkpt lat="44.88204" lon="-0.10314">
        <ele>31</ele>
        <time>2020-10-29T14:03:09Z</time>
      </trkpt>
      <trkpt lat="44.88201" lon="-0.10314">
        <ele>29</ele>
        <time>2020-10-29T14:03:11Z</time>
      </trkpt>
      <trkpt lat="44.88196" lon="-0.10311">
        <ele>29</ele>
        <time>2020-10-29T14:03:14Z</time>
      </trkpt>
      <trkpt lat="44.88183" lon="-0.103">
        <ele>28</ele>
        <time>2020-10-29T14:03:29Z</time>
      </trkpt>
      <trkpt lat="44.88163" lon="-0.10285">
        <ele>27</ele>
        <time>2020-10-29T14:03:46Z</time>
      </trkpt>
      <trkpt lat="44.88146" lon="-0.10272">
        <ele>23</ele>
        <time>2020-10-29T14:04:04Z</time>
      </trkpt>
      <trkpt lat="44.88145" lon="-0.1027">
        <ele>27</ele>
        <time>2020-10-29T14:04:05Z</time>
      </trkpt>
      <trkpt lat="44.88141" lon="-0.10263">
        <ele>24</ele>
        <time>2020-10-29T14:04:11Z</time>
      </trkpt>
      <trkpt lat="44.88136" lon="-0.10258">
        <ele>24</ele>
        <time>2020-10-29T14:04:16Z</time>
      </trkpt>
      <trkpt lat="44.88136" lon="-0.10256">
        <ele>13</ele>
        <time>2020-10-29T14:04:18Z</time>
      </trkpt>
      <trkpt lat="44.88135" lon="-0.10255">
        <ele>31</ele>
        <time>2020-10-29T14:04:19Z</time>
      </trkpt>
      <trkpt lat="44.88134" lon="-0.10254">
        <ele>29</ele>
        <time>2020-10-29T14:04:20Z</time>
      </trkpt>
      <trkpt lat="44.88132" lon="-0.10253">
        <ele>25</ele>
        <time>2020-10-29T14:04:21Z</time>
      </trkpt>
      <trkpt lat="44.8813" lon="-0.10251">
        <ele>24</ele>
        <time>2020-10-29T14:04:23Z</time>
      </trkpt>
      <trkpt lat="44.88128" lon="-0.10248">
        <ele>24</ele>
        <time>2020-10-29T14:04:26Z</time>
      </trkpt>
      <trkpt lat="44.88125" lon="-0.10244">
        <ele>13</ele>
        <time>2020-10-29T14:04:29Z</time>
      </trkpt>
      <trkpt lat="44.88123" lon="-0.10243">
        <ele>32</ele>
        <time>2020-10-29T14:04:30Z</time>
      </trkpt>
      <trkpt lat="44.88122" lon="-0.10241">
        <ele>26</ele>
        <time>2020-10-29T14:04:31Z</time>
      </trkpt>
      <trkpt lat="44.88109" lon="-0.1022">
        <ele>23</ele>
        <time>2020-10-29T14:04:48Z</time>
      </trkpt>
      <trkpt lat="44.88097" lon="-0.10198">
        <ele>22</ele>
        <time>2020-10-29T14:05:06Z</time>
      </trkpt>
      <trkpt lat="44.88087" lon="-0.10176">
        <ele>22</ele>
        <time>2020-10-29T14:05:22Z</time>
      </trkpt>
      <trkpt lat="44.88085" lon="-0.10174">
        <ele>21</ele>
        <time>2020-10-29T14:05:24Z</time>
      </trkpt>
      <trkpt lat="44.88074" lon="-0.10152">
        <ele>21</ele>
        <time>2020-10-29T14:05:38Z</time>
      </trkpt>
      <trkpt lat="44.88061" lon="-0.10128">
        <ele>20</ele>
        <time>2020-10-29T14:05:57Z</time>
      </trkpt>
      <trkpt lat="44.88054" lon="-0.10113">
        <ele>20</ele>
        <time>2020-10-29T14:06:07Z</time>
      </trkpt>
      <trkpt lat="44.88049" lon="-0.10104">
        <ele>19</ele>
        <time>2020-10-29T14:06:13Z</time>
      </trkpt>
      <trkpt lat="44.88039" lon="-0.10091">
        <ele>19</ele>
        <time>2020-10-29T14:06:24Z</time>
      </trkpt>
      <trkpt lat="44.88021" lon="-0.1008">
        <ele>18</ele>
        <time>2020-10-29T14:06:39Z</time>
      </trkpt>
      <trkpt lat="44.88002" lon="-0.10075">
        <ele>17</ele>
        <time>2020-10-29T14:06:56Z</time>
      </trkpt>
      <trkpt lat="44.87984" lon="-0.10071">
        <ele>17</ele>
        <time>2020-10-29T14:07:12Z</time>
      </trkpt>
      <trkpt lat="44.8797" lon="-0.1005">
        <ele>17</ele>
        <time>2020-10-29T14:07:29Z</time>
      </trkpt>
      <trkpt lat="44.87974" lon="-0.10028">
        <ele>17</ele>
        <time>2020-10-29T14:07:42Z</time>
      </trkpt>
      <trkpt lat="44.87979" lon="-0.10005">
        <ele>17</ele>
        <time>2020-10-29T14:08:01Z</time>
      </trkpt>
      <trkpt lat="44.87985" lon="-0.09986">
        <ele>17</ele>
        <time>2020-10-29T14:08:15Z</time>
      </trkpt>
      <trkpt lat="44.87987" lon="-0.09963">
        <ele>17</ele>
        <time>2020-10-29T14:08:29Z</time>
      </trkpt>
      <trkpt lat="44.87988" lon="-0.0995">
        <ele>17</ele>
        <time>2020-10-29T14:08:42Z</time>
      </trkpt>
      <trkpt lat="44.87986" lon="-0.0992">
        <ele>18</ele>
        <time>2020-10-29T14:08:57Z</time>
      </trkpt>
      <trkpt lat="44.87985" lon="-0.099">
        <ele>18</ele>
        <time>2020-10-29T14:09:13Z</time>
      </trkpt>
      <trkpt lat="44.87981" lon="-0.09873">
        <ele>18</ele>
        <time>2020-10-29T14:09:29Z</time>
      </trkpt>
      <trkpt lat="44.87979" lon="-0.09864">
        <ele>18</ele>
        <time>2020-10-29T14:09:35Z</time>
      </trkpt>
      <trkpt lat="44.87979" lon="-0.09862">
        <ele>18</ele>
        <time>2020-10-29T14:09:36Z</time>
      </trkpt>
      <trkpt lat="44.87976" lon="-0.09841">
        <ele>18</ele>
        <time>2020-10-29T14:09:51Z</time>
      </trkpt>
      <trkpt lat="44.87976" lon="-0.09839">
        <ele>18</ele>
        <time>2020-10-29T14:09:52Z</time>
      </trkpt>
      <trkpt lat="44.87976" lon="-0.09817">
        <ele>18</ele>
        <time>2020-10-29T14:10:05Z</time>
      </trkpt>
      <trkpt lat="44.87976" lon="-0.09814">
        <ele>18</ele>
        <time>2020-10-29T14:10:06Z</time>
      </trkpt>
      <trkpt lat="44.87975" lon="-0.09812">
        <ele>18</ele>
        <time>2020-10-29T14:10:07Z</time>
      </trkpt>
      <trkpt lat="44.87962" lon="-0.09789">
        <ele>20</ele>
        <time>2020-10-29T14:10:25Z</time>
      </trkpt>
      <trkpt lat="44.87962" lon="-0.09788">
        <ele>20</ele>
        <time>2020-10-29T14:10:26Z</time>
      </trkpt>
      <trkpt lat="44.87955" lon="-0.09784">
        <ele>20</ele>
        <time>2020-10-29T14:10:39Z</time>
      </trkpt>
      <trkpt lat="44.87952" lon="-0.09784">
        <ele>19</ele>
        <time>2020-10-29T14:11:11Z</time>
      </trkpt>
    </trkseg>
  </trk>
</gpx>